<?xml version="1.0" encoding="UTF-8" standalone="no" ?>
<gpx xmlns="http://www.topografix.com/GPX/1/1" xmlns:xsi="http://www.w3.org/2001/XMLSchema-instance" xsi:schemaLocation="http://www.topografix.com/GPX/1/1 http://www.topografix.com/GPX/1/1/gpx.xsd" version="1.1" creator="VisuGPX - https://www.visugpx.com">
  <metadata>
    <name>StGN_Chatillon_le_pigeonnier</name>
    <desc><![CDATA[Découvrir le bois du parc du château de Bayère avec sa glacière et son pigeonnier qui domine la vallée d'Azergues et le village de Châtillon.]]></desc>
  </metadata>
  <trk>
    <name><![CDATA[StGN_Chatillon_le_pigeonnier]]></name>
    <trkseg>
      <trkpt lat="45.85454" lon="4.63654">
        <ele>261.6</ele>
        <time>2020-07-04T13:21:23.637Z</time>
      </trkpt>
      <trkpt lat="45.85454" lon="4.63658">
        <ele>261.3</ele>
        <time>2020-07-04T13:21:24.980Z</time>
      </trkpt>
      <trkpt lat="45.85454" lon="4.63664">
        <ele>260.9</ele>
        <time>2020-07-04T13:21:26.326Z</time>
      </trkpt>
      <trkpt lat="45.85454" lon="4.63665">
        <ele>260.8</ele>
        <time>2020-07-04T13:21:27.672Z</time>
      </trkpt>
      <trkpt lat="45.85453" lon="4.63668">
        <ele>260.5</ele>
        <time>2020-07-04T13:21:29.019Z</time>
      </trkpt>
      <trkpt lat="45.85454" lon="4.63683">
        <ele>259.5</ele>
        <time>2020-07-04T13:21:30.373Z</time>
      </trkpt>
      <trkpt lat="45.85455" lon="4.63701">
        <ele>258.8</ele>
        <time>2020-07-04T13:21:31.735Z</time>
      </trkpt>
      <trkpt lat="45.8546" lon="4.63725">
        <ele>258</ele>
        <time>2020-07-04T13:21:33.107Z</time>
      </trkpt>
      <trkpt lat="45.85461" lon="4.63743">
        <ele>257.4</ele>
        <time>2020-07-04T13:21:34.486Z</time>
      </trkpt>
      <trkpt lat="45.8546" lon="4.63768">
        <ele>256.5</ele>
        <time>2020-07-04T13:21:35.876Z</time>
      </trkpt>
      <trkpt lat="45.85459" lon="4.63785">
        <ele>255.9</ele>
        <time>2020-07-04T13:21:37.273Z</time>
      </trkpt>
      <trkpt lat="45.85454" lon="4.63803">
        <ele>257</ele>
        <time>2020-07-04T13:21:38.679Z</time>
      </trkpt>
      <trkpt lat="45.85452" lon="4.63809">
        <ele>257.4</ele>
        <time>2020-07-04T13:21:40.087Z</time>
      </trkpt>
      <trkpt lat="45.85446" lon="4.6382">
        <ele>258.2</ele>
        <time>2020-07-04T13:21:41.501Z</time>
      </trkpt>
      <trkpt lat="45.85444" lon="4.63826">
        <ele>258.6</ele>
        <time>2020-07-04T13:21:42.918Z</time>
      </trkpt>
      <trkpt lat="45.85442" lon="4.63836">
        <ele>259.3</ele>
        <time>2020-07-04T13:21:44.339Z</time>
      </trkpt>
      <trkpt lat="45.85443" lon="4.63843">
        <ele>259.6</ele>
        <time>2020-07-04T13:21:45.763Z</time>
      </trkpt>
      <trkpt lat="45.85444" lon="4.63849">
        <ele>259.9</ele>
        <time>2020-07-04T13:21:47.190Z</time>
      </trkpt>
      <trkpt lat="45.85445" lon="4.63852">
        <ele>260.1</ele>
        <time>2020-07-04T13:21:48.618Z</time>
      </trkpt>
      <trkpt lat="45.85448" lon="4.63856">
        <ele>260.4</ele>
        <time>2020-07-04T13:21:50.049Z</time>
      </trkpt>
      <trkpt lat="45.8545" lon="4.63858">
        <ele>260.5</ele>
        <time>2020-07-04T13:21:51.481Z</time>
      </trkpt>
      <trkpt lat="45.85454" lon="4.6386">
        <ele>260.8</ele>
        <time>2020-07-04T13:21:52.916Z</time>
      </trkpt>
      <trkpt lat="45.85463" lon="4.63865">
        <ele>261.4</ele>
        <time>2020-07-04T13:21:54.356Z</time>
      </trkpt>
      <trkpt lat="45.85474" lon="4.63872">
        <ele>262.1</ele>
        <time>2020-07-04T13:21:55.804Z</time>
      </trkpt>
      <trkpt lat="45.85482" lon="4.63877">
        <ele>262.6</ele>
        <time>2020-07-04T13:21:57.257Z</time>
      </trkpt>
      <trkpt lat="45.85491" lon="4.63882">
        <ele>263.4</ele>
        <time>2020-07-04T13:21:58.716Z</time>
      </trkpt>
      <trkpt lat="45.85497" lon="4.63884">
        <ele>263.9</ele>
        <time>2020-07-04T13:22:00.179Z</time>
      </trkpt>
      <trkpt lat="45.85515" lon="4.63896">
        <ele>265.3</ele>
        <time>2020-07-04T13:22:01.653Z</time>
      </trkpt>
      <trkpt lat="45.85526" lon="4.63907">
        <ele>265.9</ele>
        <time>2020-07-04T13:22:03.136Z</time>
      </trkpt>
      <trkpt lat="45.8553" lon="4.63912">
        <ele>266.1</ele>
        <time>2020-07-04T13:22:04.622Z</time>
      </trkpt>
      <trkpt lat="45.85545" lon="4.63928">
        <ele>267</ele>
        <time>2020-07-04T13:22:06.119Z</time>
      </trkpt>
      <trkpt lat="45.85556" lon="4.63939">
        <ele>267.6</ele>
        <time>2020-07-04T13:22:07.624Z</time>
      </trkpt>
      <trkpt lat="45.8557" lon="4.63954">
        <ele>266.8</ele>
        <time>2020-07-04T13:22:09.140Z</time>
      </trkpt>
      <trkpt lat="45.85585" lon="4.63967">
        <ele>266.1</ele>
        <time>2020-07-04T13:22:10.666Z</time>
      </trkpt>
      <trkpt lat="45.85592" lon="4.63974">
        <ele>265.8</ele>
        <time>2020-07-04T13:22:12.198Z</time>
      </trkpt>
      <trkpt lat="45.85604" lon="4.63984">
        <ele>265.3</ele>
        <time>2020-07-04T13:22:13.738Z</time>
      </trkpt>
      <trkpt lat="45.8562" lon="4.63998">
        <ele>264.6</ele>
        <time>2020-07-04T13:22:15.289Z</time>
      </trkpt>
      <trkpt lat="45.85623" lon="4.64002">
        <ele>264.4</ele>
        <time>2020-07-04T13:22:16.843Z</time>
      </trkpt>
      <trkpt lat="45.85634" lon="4.64014">
        <ele>263.8</ele>
        <time>2020-07-04T13:22:18.405Z</time>
      </trkpt>
      <trkpt lat="45.85637" lon="4.64018">
        <ele>263.7</ele>
        <time>2020-07-04T13:22:19.969Z</time>
      </trkpt>
      <trkpt lat="45.85642" lon="4.64028">
        <ele>263.3</ele>
        <time>2020-07-04T13:22:21.539Z</time>
      </trkpt>
      <trkpt lat="45.85649" lon="4.64046">
        <ele>263.5</ele>
        <time>2020-07-04T13:22:23.117Z</time>
      </trkpt>
      <trkpt lat="45.85653" lon="4.64064">
        <ele>263.8</ele>
        <time>2020-07-04T13:22:24.703Z</time>
      </trkpt>
      <trkpt lat="45.85665" lon="4.64108">
        <ele>264.8</ele>
        <time>2020-07-04T13:22:26.309Z</time>
      </trkpt>
      <trkpt lat="45.85673" lon="4.64126">
        <ele>265.4</ele>
        <time>2020-07-04T13:22:27.924Z</time>
      </trkpt>
      <trkpt lat="45.85683" lon="4.64135">
        <ele>266</ele>
        <time>2020-07-04T13:22:29.546Z</time>
      </trkpt>
      <trkpt lat="45.85694" lon="4.64145">
        <ele>266.6</ele>
        <time>2020-07-04T13:22:31.176Z</time>
      </trkpt>
      <trkpt lat="45.85697" lon="4.64147">
        <ele>266.7</ele>
        <time>2020-07-04T13:22:32.808Z</time>
      </trkpt>
      <trkpt lat="45.8571" lon="4.64157">
        <ele>267.5</ele>
        <time>2020-07-04T13:22:34.449Z</time>
      </trkpt>
      <trkpt lat="45.85718" lon="4.64163">
        <ele>267.9</ele>
        <time>2020-07-04T13:22:36.095Z</time>
      </trkpt>
      <trkpt lat="45.85729" lon="4.6417">
        <ele>268.4</ele>
        <time>2020-07-04T13:22:37.749Z</time>
      </trkpt>
      <trkpt lat="45.85739" lon="4.64178">
        <ele>268.8</ele>
        <time>2020-07-04T13:22:39.410Z</time>
      </trkpt>
      <trkpt lat="45.85751" lon="4.64186">
        <ele>269.3</ele>
        <time>2020-07-04T13:22:41.078Z</time>
      </trkpt>
      <trkpt lat="45.85754" lon="4.64189">
        <ele>269.4</ele>
        <time>2020-07-04T13:22:42.749Z</time>
      </trkpt>
      <trkpt lat="45.8576" lon="4.64195">
        <ele>269.7</ele>
        <time>2020-07-04T13:22:44.424Z</time>
      </trkpt>
      <trkpt lat="45.85767" lon="4.64201">
        <ele>270</ele>
        <time>2020-07-04T13:22:46.104Z</time>
      </trkpt>
      <trkpt lat="45.85771" lon="4.64204">
        <ele>270.2</ele>
        <time>2020-07-04T13:22:47.787Z</time>
      </trkpt>
      <trkpt lat="45.85781" lon="4.64213">
        <ele>270.8</ele>
        <time>2020-07-04T13:22:49.477Z</time>
      </trkpt>
      <trkpt lat="45.85785" lon="4.64215">
        <ele>271</ele>
        <time>2020-07-04T13:22:51.170Z</time>
      </trkpt>
      <trkpt lat="45.85794" lon="4.64225">
        <ele>271.5</ele>
        <time>2020-07-04T13:22:52.869Z</time>
      </trkpt>
      <trkpt lat="45.85803" lon="4.64233">
        <ele>272</ele>
        <time>2020-07-04T13:22:54.575Z</time>
      </trkpt>
      <trkpt lat="45.85809" lon="4.64239">
        <ele>272.3</ele>
        <time>2020-07-04T13:22:56.285Z</time>
      </trkpt>
      <trkpt lat="45.85813" lon="4.64242">
        <ele>272.4</ele>
        <time>2020-07-04T13:22:57.998Z</time>
      </trkpt>
      <trkpt lat="45.85823" lon="4.6425">
        <ele>272.7</ele>
        <time>2020-07-04T13:22:59.718Z</time>
      </trkpt>
      <trkpt lat="45.85824" lon="4.64252">
        <ele>272.8</ele>
        <time>2020-07-04T13:23:01.439Z</time>
      </trkpt>
      <trkpt lat="45.85824" lon="4.6426">
        <ele>273.1</ele>
        <time>2020-07-04T13:23:03.163Z</time>
      </trkpt>
      <trkpt lat="45.85822" lon="4.64264">
        <ele>273.2</ele>
        <time>2020-07-04T13:23:04.889Z</time>
      </trkpt>
      <trkpt lat="45.85816" lon="4.64276">
        <ele>273.7</ele>
        <time>2020-07-04T13:23:06.621Z</time>
      </trkpt>
      <trkpt lat="45.85798" lon="4.64309">
        <ele>273.7</ele>
        <time>2020-07-04T13:23:08.371Z</time>
      </trkpt>
      <trkpt lat="45.85782" lon="4.64334">
        <ele>273.1</ele>
        <time>2020-07-04T13:23:10.135Z</time>
      </trkpt>
      <trkpt lat="45.85768" lon="4.64354">
        <ele>272.9</ele>
        <time>2020-07-04T13:23:11.911Z</time>
      </trkpt>
      <trkpt lat="45.85755" lon="4.64365">
        <ele>272.7</ele>
        <time>2020-07-04T13:23:13.696Z</time>
      </trkpt>
      <trkpt lat="45.85751" lon="4.64369">
        <ele>272.7</ele>
        <time>2020-07-04T13:23:15.484Z</time>
      </trkpt>
      <trkpt lat="45.8574" lon="4.64381">
        <ele>272.3</ele>
        <time>2020-07-04T13:23:17.281Z</time>
      </trkpt>
      <trkpt lat="45.85728" lon="4.64394">
        <ele>271.6</ele>
        <time>2020-07-04T13:23:19.087Z</time>
      </trkpt>
      <trkpt lat="45.85725" lon="4.64396">
        <ele>271.4</ele>
        <time>2020-07-04T13:23:20.894Z</time>
      </trkpt>
      <trkpt lat="45.8572" lon="4.64402">
        <ele>271</ele>
        <time>2020-07-04T13:23:22.705Z</time>
      </trkpt>
      <trkpt lat="45.85716" lon="4.64407">
        <ele>270.7</ele>
        <time>2020-07-04T13:23:24.520Z</time>
      </trkpt>
      <trkpt lat="45.85699" lon="4.64424">
        <ele>269.3</ele>
        <time>2020-07-04T13:23:26.347Z</time>
      </trkpt>
      <trkpt lat="45.85676" lon="4.64449">
        <ele>268.3</ele>
        <time>2020-07-04T13:23:28.192Z</time>
      </trkpt>
      <trkpt lat="45.85669" lon="4.64456">
        <ele>268</ele>
        <time>2020-07-04T13:23:30.042Z</time>
      </trkpt>
      <trkpt lat="45.8565" lon="4.64477">
        <ele>267</ele>
        <time>2020-07-04T13:23:31.906Z</time>
      </trkpt>
      <trkpt lat="45.85647" lon="4.64478">
        <ele>266.9</ele>
        <time>2020-07-04T13:23:33.772Z</time>
      </trkpt>
      <trkpt lat="45.85644" lon="4.64477">
        <ele>266.8</ele>
        <time>2020-07-04T13:23:35.640Z</time>
      </trkpt>
      <trkpt lat="45.85642" lon="4.64475">
        <ele>266.8</ele>
        <time>2020-07-04T13:23:37.510Z</time>
      </trkpt>
      <trkpt lat="45.85625" lon="4.64454">
        <ele>267</ele>
        <time>2020-07-04T13:23:39.393Z</time>
      </trkpt>
      <trkpt lat="45.8562" lon="4.64451">
        <ele>266.9</ele>
        <time>2020-07-04T13:23:41.279Z</time>
      </trkpt>
      <trkpt lat="45.85618" lon="4.64453">
        <ele>267</ele>
        <time>2020-07-04T13:23:43.167Z</time>
      </trkpt>
      <trkpt lat="45.85618" lon="4.64462">
        <ele>266.9</ele>
        <time>2020-07-04T13:23:45.059Z</time>
      </trkpt>
      <trkpt lat="45.85626" lon="4.64474">
        <ele>266.7</ele>
        <time>2020-07-04T13:23:46.957Z</time>
      </trkpt>
      <trkpt lat="45.85627" lon="4.64476">
        <ele>266.7</ele>
        <time>2020-07-04T13:23:48.856Z</time>
      </trkpt>
      <trkpt lat="45.85638" lon="4.64497">
        <ele>266.5</ele>
        <time>2020-07-04T13:23:50.766Z</time>
      </trkpt>
      <trkpt lat="45.85647" lon="4.64514">
        <ele>266.4</ele>
        <time>2020-07-04T13:23:52.685Z</time>
      </trkpt>
      <trkpt lat="45.85658" lon="4.64535">
        <ele>266.5</ele>
        <time>2020-07-04T13:23:54.616Z</time>
      </trkpt>
      <trkpt lat="45.85666" lon="4.64552">
        <ele>266.3</ele>
        <time>2020-07-04T13:23:56.555Z</time>
      </trkpt>
      <trkpt lat="45.85675" lon="4.64572">
        <ele>266</ele>
        <time>2020-07-04T13:23:58.504Z</time>
      </trkpt>
      <trkpt lat="45.85677" lon="4.64575">
        <ele>266</ele>
        <time>2020-07-04T13:24:00.455Z</time>
      </trkpt>
      <trkpt lat="45.85691" lon="4.64604">
        <ele>265.8</ele>
        <time>2020-07-04T13:24:02.421Z</time>
      </trkpt>
      <trkpt lat="45.85698" lon="4.64621">
        <ele>265.8</ele>
        <time>2020-07-04T13:24:04.395Z</time>
      </trkpt>
      <trkpt lat="45.85703" lon="4.64626">
        <ele>266</ele>
        <time>2020-07-04T13:24:06.373Z</time>
      </trkpt>
      <trkpt lat="45.85705" lon="4.64626">
        <ele>266</ele>
        <time>2020-07-04T13:24:08.352Z</time>
      </trkpt>
      <trkpt lat="45.8571" lon="4.64617">
        <ele>265.9</ele>
        <time>2020-07-04T13:24:10.335Z</time>
      </trkpt>
      <trkpt lat="45.8572" lon="4.646">
        <ele>266.4</ele>
        <time>2020-07-04T13:24:12.328Z</time>
      </trkpt>
      <trkpt lat="45.85721" lon="4.64597">
        <ele>266.5</ele>
        <time>2020-07-04T13:24:14.322Z</time>
      </trkpt>
      <trkpt lat="45.85729" lon="4.64583">
        <ele>267.3</ele>
        <time>2020-07-04T13:24:16.324Z</time>
      </trkpt>
      <trkpt lat="45.85738" lon="4.6457">
        <ele>268.3</ele>
        <time>2020-07-04T13:24:18.334Z</time>
      </trkpt>
      <trkpt lat="45.85748" lon="4.64556">
        <ele>269.3</ele>
        <time>2020-07-04T13:24:20.352Z</time>
      </trkpt>
      <trkpt lat="45.85749" lon="4.64554">
        <ele>269.4</ele>
        <time>2020-07-04T13:24:22.371Z</time>
      </trkpt>
      <trkpt lat="45.85758" lon="4.6454">
        <ele>270.1</ele>
        <time>2020-07-04T13:24:24.398Z</time>
      </trkpt>
      <trkpt lat="45.85768" lon="4.64526">
        <ele>271</ele>
        <time>2020-07-04T13:24:26.434Z</time>
      </trkpt>
      <trkpt lat="45.85771" lon="4.64522">
        <ele>271.2</ele>
        <time>2020-07-04T13:24:28.472Z</time>
      </trkpt>
      <trkpt lat="45.85783" lon="4.64507">
        <ele>272.2</ele>
        <time>2020-07-04T13:24:30.520Z</time>
      </trkpt>
      <trkpt lat="45.85798" lon="4.64489">
        <ele>272.7</ele>
        <time>2020-07-04T13:24:32.580Z</time>
      </trkpt>
      <trkpt lat="45.85803" lon="4.64483">
        <ele>272.9</ele>
        <time>2020-07-04T13:24:34.643Z</time>
      </trkpt>
      <trkpt lat="45.85811" lon="4.64476">
        <ele>273.1</ele>
        <time>2020-07-04T13:24:36.712Z</time>
      </trkpt>
      <trkpt lat="45.85819" lon="4.64467">
        <ele>273.2</ele>
        <time>2020-07-04T13:24:38.787Z</time>
      </trkpt>
      <trkpt lat="45.85826" lon="4.6446">
        <ele>273.2</ele>
        <time>2020-07-04T13:24:40.867Z</time>
      </trkpt>
      <trkpt lat="45.85839" lon="4.64446">
        <ele>273.5</ele>
        <time>2020-07-04T13:24:42.957Z</time>
      </trkpt>
      <trkpt lat="45.85842" lon="4.64442">
        <ele>273.6</ele>
        <time>2020-07-04T13:24:45.050Z</time>
      </trkpt>
      <trkpt lat="45.85856" lon="4.64426">
        <ele>273.9</ele>
        <time>2020-07-04T13:24:47.154Z</time>
      </trkpt>
      <trkpt lat="45.85872" lon="4.6441">
        <ele>273.7</ele>
        <time>2020-07-04T13:24:49.269Z</time>
      </trkpt>
      <trkpt lat="45.85889" lon="4.64394">
        <ele>273.3</ele>
        <time>2020-07-04T13:24:51.396Z</time>
      </trkpt>
      <trkpt lat="45.85896" lon="4.64386">
        <ele>273</ele>
        <time>2020-07-04T13:24:53.529Z</time>
      </trkpt>
      <trkpt lat="45.859" lon="4.64382">
        <ele>272.8</ele>
        <time>2020-07-04T13:24:55.665Z</time>
      </trkpt>
      <trkpt lat="45.8591" lon="4.64372">
        <ele>272.7</ele>
        <time>2020-07-04T13:24:57.808Z</time>
      </trkpt>
      <trkpt lat="45.85914" lon="4.64368">
        <ele>272.7</ele>
        <time>2020-07-04T13:24:59.954Z</time>
      </trkpt>
      <trkpt lat="45.85937" lon="4.64344">
        <ele>272.7</ele>
        <time>2020-07-04T13:25:02.117Z</time>
      </trkpt>
      <trkpt lat="45.85956" lon="4.64318">
        <ele>272.8</ele>
        <time>2020-07-04T13:25:04.296Z</time>
      </trkpt>
      <trkpt lat="45.85973" lon="4.64298">
        <ele>272.8</ele>
        <time>2020-07-04T13:25:06.488Z</time>
      </trkpt>
      <trkpt lat="45.85985" lon="4.64285">
        <ele>273</ele>
        <time>2020-07-04T13:25:08.689Z</time>
      </trkpt>
      <trkpt lat="45.86001" lon="4.64268">
        <ele>273.2</ele>
        <time>2020-07-04T13:25:10.902Z</time>
      </trkpt>
      <trkpt lat="45.86013" lon="4.64266">
        <ele>273.2</ele>
        <time>2020-07-04T13:25:13.123Z</time>
      </trkpt>
      <trkpt lat="45.86019" lon="4.64267">
        <ele>273.2</ele>
        <time>2020-07-04T13:25:15.348Z</time>
      </trkpt>
      <trkpt lat="45.86029" lon="4.64267">
        <ele>273.2</ele>
        <time>2020-07-04T13:25:17.578Z</time>
      </trkpt>
      <trkpt lat="45.86054" lon="4.64264">
        <ele>273.5</ele>
        <time>2020-07-04T13:25:19.823Z</time>
      </trkpt>
      <trkpt lat="45.86057" lon="4.64264">
        <ele>273.5</ele>
        <time>2020-07-04T13:25:22.071Z</time>
      </trkpt>
      <trkpt lat="45.8608" lon="4.64263">
        <ele>272.7</ele>
        <time>2020-07-04T13:25:24.332Z</time>
      </trkpt>
      <trkpt lat="45.86088" lon="4.64263">
        <ele>272.4</ele>
        <time>2020-07-04T13:25:26.598Z</time>
      </trkpt>
      <trkpt lat="45.86128" lon="4.64268">
        <ele>271.1</ele>
        <time>2020-07-04T13:25:28.888Z</time>
      </trkpt>
      <trkpt lat="45.86169" lon="4.64276">
        <ele>270.6</ele>
        <time>2020-07-04T13:25:31.203Z</time>
      </trkpt>
      <trkpt lat="45.86187" lon="4.64278">
        <ele>270.5</ele>
        <time>2020-07-04T13:25:33.529Z</time>
      </trkpt>
      <trkpt lat="45.86213" lon="4.64281">
        <ele>270.3</ele>
        <time>2020-07-04T13:25:35.871Z</time>
      </trkpt>
      <trkpt lat="45.86243" lon="4.64288">
        <ele>269.7</ele>
        <time>2020-07-04T13:25:38.231Z</time>
      </trkpt>
      <trkpt lat="45.86247" lon="4.64289">
        <ele>269.7</ele>
        <time>2020-07-04T13:25:40.593Z</time>
      </trkpt>
      <trkpt lat="45.86276" lon="4.64294">
        <ele>269.3</ele>
        <time>2020-07-04T13:25:42.973Z</time>
      </trkpt>
      <trkpt lat="45.86302" lon="4.64302">
        <ele>269.3</ele>
        <time>2020-07-04T13:25:45.369Z</time>
      </trkpt>
      <trkpt lat="45.86318" lon="4.64307">
        <ele>268.7</ele>
        <time>2020-07-04T13:25:47.775Z</time>
      </trkpt>
      <trkpt lat="45.86319" lon="4.64321">
        <ele>269.6</ele>
        <time>2020-07-04T13:25:50.187Z</time>
      </trkpt>
      <trkpt lat="45.86316" lon="4.64357">
        <ele>272.4</ele>
        <time>2020-07-04T13:25:52.614Z</time>
      </trkpt>
      <trkpt lat="45.86318" lon="4.64361">
        <ele>272.6</ele>
        <time>2020-07-04T13:25:55.043Z</time>
      </trkpt>
      <trkpt lat="45.86322" lon="4.64369">
        <ele>272.9</ele>
        <time>2020-07-04T13:25:57.476Z</time>
      </trkpt>
      <trkpt lat="45.86338" lon="4.64377">
        <ele>272</ele>
        <time>2020-07-04T13:25:59.920Z</time>
      </trkpt>
      <trkpt lat="45.86345" lon="4.64395">
        <ele>272.1</ele>
        <time>2020-07-04T13:26:02.372Z</time>
      </trkpt>
      <trkpt lat="45.86346" lon="4.64405">
        <ele>272.4</ele>
        <time>2020-07-04T13:26:04.828Z</time>
      </trkpt>
      <trkpt lat="45.86345" lon="4.64426">
        <ele>272.4</ele>
        <time>2020-07-04T13:26:07.293Z</time>
      </trkpt>
      <trkpt lat="45.86346" lon="4.64472">
        <ele>272</ele>
        <time>2020-07-04T13:26:09.777Z</time>
      </trkpt>
      <trkpt lat="45.86348" lon="4.64517">
        <ele>270.9</ele>
        <time>2020-07-04T13:26:12.280Z</time>
      </trkpt>
      <trkpt lat="45.86353" lon="4.64569">
        <ele>268.9</ele>
        <time>2020-07-04T13:26:14.805Z</time>
      </trkpt>
      <trkpt lat="45.86359" lon="4.64604">
        <ele>268.5</ele>
        <time>2020-07-04T13:26:17.346Z</time>
      </trkpt>
      <trkpt lat="45.86364" lon="4.64628">
        <ele>268.5</ele>
        <time>2020-07-04T13:26:19.897Z</time>
      </trkpt>
      <trkpt lat="45.86371" lon="4.64661">
        <ele>267.9</ele>
        <time>2020-07-04T13:26:22.463Z</time>
      </trkpt>
      <trkpt lat="45.86378" lon="4.64672">
        <ele>267.6</ele>
        <time>2020-07-04T13:26:25.035Z</time>
      </trkpt>
      <trkpt lat="45.8639" lon="4.6467">
        <ele>267.4</ele>
        <time>2020-07-04T13:26:27.615Z</time>
      </trkpt>
      <trkpt lat="45.86422" lon="4.64659">
        <ele>266</ele>
        <time>2020-07-04T13:26:30.215Z</time>
      </trkpt>
      <trkpt lat="45.86448" lon="4.64647">
        <ele>264.5</ele>
        <time>2020-07-04T13:26:32.831Z</time>
      </trkpt>
      <trkpt lat="45.86456" lon="4.64644">
        <ele>264</ele>
        <time>2020-07-04T13:26:35.452Z</time>
      </trkpt>
      <trkpt lat="45.86478" lon="4.64636">
        <ele>262.6</ele>
        <time>2020-07-04T13:26:38.087Z</time>
      </trkpt>
      <trkpt lat="45.86505" lon="4.64628">
        <ele>261.2</ele>
        <time>2020-07-04T13:26:40.738Z</time>
      </trkpt>
      <trkpt lat="45.86521" lon="4.64623">
        <ele>260.6</ele>
        <time>2020-07-04T13:26:43.399Z</time>
      </trkpt>
      <trkpt lat="45.86528" lon="4.6462">
        <ele>260.3</ele>
        <time>2020-07-04T13:26:46.065Z</time>
      </trkpt>
      <trkpt lat="45.86531" lon="4.64618">
        <ele>260.3</ele>
        <time>2020-07-04T13:26:48.733Z</time>
      </trkpt>
      <trkpt lat="45.86544" lon="4.64613">
        <ele>259.9</ele>
        <time>2020-07-04T13:26:51.409Z</time>
      </trkpt>
      <trkpt lat="45.86554" lon="4.6461">
        <ele>259.4</ele>
        <time>2020-07-04T13:26:54.091Z</time>
      </trkpt>
      <trkpt lat="45.86558" lon="4.6461">
        <ele>259</ele>
        <time>2020-07-04T13:26:56.775Z</time>
      </trkpt>
      <trkpt lat="45.86574" lon="4.64603">
        <ele>257.5</ele>
        <time>2020-07-04T13:26:59.469Z</time>
      </trkpt>
      <trkpt lat="45.86578" lon="4.64601">
        <ele>257.1</ele>
        <time>2020-07-04T13:27:02.166Z</time>
      </trkpt>
      <trkpt lat="45.86582" lon="4.646">
        <ele>256.7</ele>
        <time>2020-07-04T13:27:04.865Z</time>
      </trkpt>
      <trkpt lat="45.86591" lon="4.64597">
        <ele>255.8</ele>
        <time>2020-07-04T13:27:07.570Z</time>
      </trkpt>
      <trkpt lat="45.86613" lon="4.64589">
        <ele>253.6</ele>
        <time>2020-07-04T13:27:10.288Z</time>
      </trkpt>
      <trkpt lat="45.86622" lon="4.64585">
        <ele>252.7</ele>
        <time>2020-07-04T13:27:13.012Z</time>
      </trkpt>
      <trkpt lat="45.86636" lon="4.64579">
        <ele>251.3</ele>
        <time>2020-07-04T13:27:15.745Z</time>
      </trkpt>
      <trkpt lat="45.86654" lon="4.64571">
        <ele>250.5</ele>
        <time>2020-07-04T13:27:18.489Z</time>
      </trkpt>
      <trkpt lat="45.86659" lon="4.64569">
        <ele>250.3</ele>
        <time>2020-07-04T13:27:21.236Z</time>
      </trkpt>
      <trkpt lat="45.86674" lon="4.64561">
        <ele>249.5</ele>
        <time>2020-07-04T13:27:23.993Z</time>
      </trkpt>
      <trkpt lat="45.86677" lon="4.64558">
        <ele>249.3</ele>
        <time>2020-07-04T13:27:26.752Z</time>
      </trkpt>
      <trkpt lat="45.86684" lon="4.64553">
        <ele>248.8</ele>
        <time>2020-07-04T13:27:29.516Z</time>
      </trkpt>
      <trkpt lat="45.86693" lon="4.64542">
        <ele>248.1</ele>
        <time>2020-07-04T13:27:32.287Z</time>
      </trkpt>
      <trkpt lat="45.86696" lon="4.64537">
        <ele>247.9</ele>
        <time>2020-07-04T13:27:35.061Z</time>
      </trkpt>
      <trkpt lat="45.86719" lon="4.64509">
        <ele>246.4</ele>
        <time>2020-07-04T13:27:37.853Z</time>
      </trkpt>
      <trkpt lat="45.86732" lon="4.64494">
        <ele>245.8</ele>
        <time>2020-07-04T13:27:40.655Z</time>
      </trkpt>
      <trkpt lat="45.86737" lon="4.64489">
        <ele>245.7</ele>
        <time>2020-07-04T13:27:43.461Z</time>
      </trkpt>
      <trkpt lat="45.86747" lon="4.64478">
        <ele>245.4</ele>
        <time>2020-07-04T13:27:46.274Z</time>
      </trkpt>
      <trkpt lat="45.86754" lon="4.6447">
        <ele>244.6</ele>
        <time>2020-07-04T13:27:49.093Z</time>
      </trkpt>
      <trkpt lat="45.86756" lon="4.64466">
        <ele>244.3</ele>
        <time>2020-07-04T13:27:51.914Z</time>
      </trkpt>
      <trkpt lat="45.86757" lon="4.64465">
        <ele>244.1</ele>
        <time>2020-07-04T13:27:54.736Z</time>
      </trkpt>
      <trkpt lat="45.86757" lon="4.64465">
        <ele>244.1</ele>
        <time>2020-07-04T13:27:57.558Z</time>
      </trkpt>
      <trkpt lat="45.86757" lon="4.64465">
        <ele>244.1</ele>
        <time>2020-07-04T13:28:00.380Z</time>
      </trkpt>
      <trkpt lat="45.86757" lon="4.64465">
        <ele>244.1</ele>
        <time>2020-07-04T13:28:03.202Z</time>
      </trkpt>
      <trkpt lat="45.86757" lon="4.64464">
        <ele>244.1</ele>
        <time>2020-07-04T13:28:06.024Z</time>
      </trkpt>
      <trkpt lat="45.86757" lon="4.64464">
        <ele>244.1</ele>
        <time>2020-07-04T13:28:08.846Z</time>
      </trkpt>
      <trkpt lat="45.86757" lon="4.64464">
        <ele>244.1</ele>
        <time>2020-07-04T13:28:11.668Z</time>
      </trkpt>
      <trkpt lat="45.86757" lon="4.64464">
        <ele>244.1</ele>
        <time>2020-07-04T13:28:14.490Z</time>
      </trkpt>
      <trkpt lat="45.86757" lon="4.64464">
        <ele>244.1</ele>
        <time>2020-07-04T13:28:17.312Z</time>
      </trkpt>
      <trkpt lat="45.86757" lon="4.64463">
        <ele>244</ele>
        <time>2020-07-04T13:28:20.134Z</time>
      </trkpt>
      <trkpt lat="45.86759" lon="4.6446">
        <ele>243.8</ele>
        <time>2020-07-04T13:28:22.959Z</time>
      </trkpt>
      <trkpt lat="45.86771" lon="4.64446">
        <ele>242.5</ele>
        <time>2020-07-04T13:28:25.793Z</time>
      </trkpt>
      <trkpt lat="45.86775" lon="4.64442">
        <ele>242.2</ele>
        <time>2020-07-04T13:28:28.630Z</time>
      </trkpt>
      <trkpt lat="45.86794" lon="4.64425">
        <ele>241.2</ele>
        <time>2020-07-04T13:28:31.481Z</time>
      </trkpt>
      <trkpt lat="45.86807" lon="4.64412">
        <ele>240.9</ele>
        <time>2020-07-04T13:28:34.341Z</time>
      </trkpt>
      <trkpt lat="45.8682" lon="4.644">
        <ele>240.3</ele>
        <time>2020-07-04T13:28:37.210Z</time>
      </trkpt>
      <trkpt lat="45.86824" lon="4.64396">
        <ele>240.1</ele>
        <time>2020-07-04T13:28:40.082Z</time>
      </trkpt>
      <trkpt lat="45.86834" lon="4.64385">
        <ele>239.6</ele>
        <time>2020-07-04T13:28:42.962Z</time>
      </trkpt>
      <trkpt lat="45.86851" lon="4.64374">
        <ele>238.7</ele>
        <time>2020-07-04T13:28:45.853Z</time>
      </trkpt>
      <trkpt lat="45.86871" lon="4.64381">
        <ele>237</ele>
        <time>2020-07-04T13:28:48.756Z</time>
      </trkpt>
      <trkpt lat="45.86884" lon="4.64386">
        <ele>236</ele>
        <time>2020-07-04T13:28:51.667Z</time>
      </trkpt>
      <trkpt lat="45.86888" lon="4.64387">
        <ele>235.7</ele>
        <time>2020-07-04T13:28:54.581Z</time>
      </trkpt>
      <trkpt lat="45.86893" lon="4.64388">
        <ele>235.4</ele>
        <time>2020-07-04T13:28:57.498Z</time>
      </trkpt>
      <trkpt lat="45.86897" lon="4.6439">
        <ele>235.1</ele>
        <time>2020-07-04T13:29:00.418Z</time>
      </trkpt>
      <trkpt lat="45.86902" lon="4.64392">
        <ele>234.9</ele>
        <time>2020-07-04T13:29:03.341Z</time>
      </trkpt>
      <trkpt lat="45.86918" lon="4.64396">
        <ele>233.9</ele>
        <time>2020-07-04T13:29:06.273Z</time>
      </trkpt>
      <trkpt lat="45.86934" lon="4.64399">
        <ele>232.8</ele>
        <time>2020-07-04T13:29:09.215Z</time>
      </trkpt>
      <trkpt lat="45.86948" lon="4.64401">
        <ele>231.8</ele>
        <time>2020-07-04T13:29:12.166Z</time>
      </trkpt>
      <trkpt lat="45.86957" lon="4.64401">
        <ele>231.1</ele>
        <time>2020-07-04T13:29:15.122Z</time>
      </trkpt>
      <trkpt lat="45.8696" lon="4.64401">
        <ele>230.9</ele>
        <time>2020-07-04T13:29:18.080Z</time>
      </trkpt>
      <trkpt lat="45.86967" lon="4.644">
        <ele>230.4</ele>
        <time>2020-07-04T13:29:21.042Z</time>
      </trkpt>
      <trkpt lat="45.86973" lon="4.644">
        <ele>230</ele>
        <time>2020-07-04T13:29:24.008Z</time>
      </trkpt>
      <trkpt lat="45.86977" lon="4.64405">
        <ele>229.7</ele>
        <time>2020-07-04T13:29:26.977Z</time>
      </trkpt>
      <trkpt lat="45.86983" lon="4.64401">
        <ele>229.1</ele>
        <time>2020-07-04T13:29:29.950Z</time>
      </trkpt>
      <trkpt lat="45.86985" lon="4.644">
        <ele>229</ele>
        <time>2020-07-04T13:29:32.924Z</time>
      </trkpt>
      <trkpt lat="45.86989" lon="4.64399">
        <ele>228.6</ele>
        <time>2020-07-04T13:29:35.900Z</time>
      </trkpt>
      <trkpt lat="45.87003" lon="4.64393">
        <ele>227.7</ele>
        <time>2020-07-04T13:29:38.885Z</time>
      </trkpt>
      <trkpt lat="45.87019" lon="4.64392">
        <ele>227</ele>
        <time>2020-07-04T13:29:41.880Z</time>
      </trkpt>
      <trkpt lat="45.87038" lon="4.6441">
        <ele>225.4</ele>
        <time>2020-07-04T13:29:44.889Z</time>
      </trkpt>
      <trkpt lat="45.87056" lon="4.64418">
        <ele>224.2</ele>
        <time>2020-07-04T13:29:47.909Z</time>
      </trkpt>
      <trkpt lat="45.87059" lon="4.64423">
        <ele>223.8</ele>
        <time>2020-07-04T13:29:50.932Z</time>
      </trkpt>
      <trkpt lat="45.87062" lon="4.64436">
        <ele>223</ele>
        <time>2020-07-04T13:29:53.961Z</time>
      </trkpt>
      <trkpt lat="45.87063" lon="4.6445">
        <ele>222.4</ele>
        <time>2020-07-04T13:29:56.995Z</time>
      </trkpt>
      <trkpt lat="45.87064" lon="4.64456">
        <ele>222.5</ele>
        <time>2020-07-04T13:30:00.032Z</time>
      </trkpt>
      <trkpt lat="45.87067" lon="4.64481">
        <ele>222.8</ele>
        <time>2020-07-04T13:30:03.080Z</time>
      </trkpt>
      <trkpt lat="45.87073" lon="4.6452">
        <ele>223</ele>
        <time>2020-07-04T13:30:06.144Z</time>
      </trkpt>
      <trkpt lat="45.87076" lon="4.64538">
        <ele>223.1</ele>
        <time>2020-07-04T13:30:09.216Z</time>
      </trkpt>
      <trkpt lat="45.87079" lon="4.64553">
        <ele>223.3</ele>
        <time>2020-07-04T13:30:12.295Z</time>
      </trkpt>
      <trkpt lat="45.87081" lon="4.64554">
        <ele>223.2</ele>
        <time>2020-07-04T13:30:15.375Z</time>
      </trkpt>
      <trkpt lat="45.87087" lon="4.64551">
        <ele>222.9</ele>
        <time>2020-07-04T13:30:18.458Z</time>
      </trkpt>
      <trkpt lat="45.87105" lon="4.64545">
        <ele>221.9</ele>
        <time>2020-07-04T13:30:21.553Z</time>
      </trkpt>
      <trkpt lat="45.8713" lon="4.64536">
        <ele>220.5</ele>
        <time>2020-07-04T13:30:24.663Z</time>
      </trkpt>
      <trkpt lat="45.87148" lon="4.6453">
        <ele>218.9</ele>
        <time>2020-07-04T13:30:27.784Z</time>
      </trkpt>
      <trkpt lat="45.87168" lon="4.64517">
        <ele>216.5</ele>
        <time>2020-07-04T13:30:30.919Z</time>
      </trkpt>
      <trkpt lat="45.87171" lon="4.64515">
        <ele>216.1</ele>
        <time>2020-07-04T13:30:34.056Z</time>
      </trkpt>
      <trkpt lat="45.87185" lon="4.64506">
        <ele>214.4</ele>
        <time>2020-07-04T13:30:37.202Z</time>
      </trkpt>
      <trkpt lat="45.87192" lon="4.64501">
        <ele>213.6</ele>
        <time>2020-07-04T13:30:40.353Z</time>
      </trkpt>
      <trkpt lat="45.87198" lon="4.64497">
        <ele>213.3</ele>
        <time>2020-07-04T13:30:43.507Z</time>
      </trkpt>
      <trkpt lat="45.87206" lon="4.6449">
        <ele>212.7</ele>
        <time>2020-07-04T13:30:46.667Z</time>
      </trkpt>
      <trkpt lat="45.87209" lon="4.64488">
        <ele>212.5</ele>
        <time>2020-07-04T13:30:49.829Z</time>
      </trkpt>
      <trkpt lat="45.87212" lon="4.64487">
        <ele>212.4</ele>
        <time>2020-07-04T13:30:52.993Z</time>
      </trkpt>
      <trkpt lat="45.87223" lon="4.64479">
        <ele>211.6</ele>
        <time>2020-07-04T13:30:56.164Z</time>
      </trkpt>
      <trkpt lat="45.87227" lon="4.64475">
        <ele>211.4</ele>
        <time>2020-07-04T13:30:59.338Z</time>
      </trkpt>
      <trkpt lat="45.87235" lon="4.64468">
        <ele>211.1</ele>
        <time>2020-07-04T13:31:02.518Z</time>
      </trkpt>
      <trkpt lat="45.87248" lon="4.64457">
        <ele>211.2</ele>
        <time>2020-07-04T13:31:05.707Z</time>
      </trkpt>
      <trkpt lat="45.87262" lon="4.64445">
        <ele>211.3</ele>
        <time>2020-07-04T13:31:08.906Z</time>
      </trkpt>
      <trkpt lat="45.87282" lon="4.64428">
        <ele>211.1</ele>
        <time>2020-07-04T13:31:12.119Z</time>
      </trkpt>
      <trkpt lat="45.87305" lon="4.64408">
        <ele>210.9</ele>
        <time>2020-07-04T13:31:15.348Z</time>
      </trkpt>
      <trkpt lat="45.87333" lon="4.64386">
        <ele>210.6</ele>
        <time>2020-07-04T13:31:18.597Z</time>
      </trkpt>
      <trkpt lat="45.87337" lon="4.64383">
        <ele>210.7</ele>
        <time>2020-07-04T13:31:21.848Z</time>
      </trkpt>
      <trkpt lat="45.87351" lon="4.64369">
        <ele>211.1</ele>
        <time>2020-07-04T13:31:25.109Z</time>
      </trkpt>
      <trkpt lat="45.87359" lon="4.64358">
        <ele>211</ele>
        <time>2020-07-04T13:31:28.377Z</time>
      </trkpt>
      <trkpt lat="45.87365" lon="4.64351">
        <ele>211</ele>
        <time>2020-07-04T13:31:31.650Z</time>
      </trkpt>
      <trkpt lat="45.87375" lon="4.64345">
        <ele>211.3</ele>
        <time>2020-07-04T13:31:34.929Z</time>
      </trkpt>
      <trkpt lat="45.87381" lon="4.64341">
        <ele>211.6</ele>
        <time>2020-07-04T13:31:38.213Z</time>
      </trkpt>
      <trkpt lat="45.87381" lon="4.64338">
        <ele>211.6</ele>
        <time>2020-07-04T13:31:41.498Z</time>
      </trkpt>
      <trkpt lat="45.87381" lon="4.64328">
        <ele>211.6</ele>
        <time>2020-07-04T13:31:44.787Z</time>
      </trkpt>
      <trkpt lat="45.8738" lon="4.64325">
        <ele>211.5</ele>
        <time>2020-07-04T13:31:48.077Z</time>
      </trkpt>
      <trkpt lat="45.87378" lon="4.64329">
        <ele>211.4</ele>
        <time>2020-07-04T13:31:51.369Z</time>
      </trkpt>
      <trkpt lat="45.87382" lon="4.64337">
        <ele>211.6</ele>
        <time>2020-07-04T13:31:54.666Z</time>
      </trkpt>
      <trkpt lat="45.8739" lon="4.6434">
        <ele>212</ele>
        <time>2020-07-04T13:31:57.967Z</time>
      </trkpt>
      <trkpt lat="45.87396" lon="4.64341">
        <ele>212</ele>
        <time>2020-07-04T13:32:01.272Z</time>
      </trkpt>
      <trkpt lat="45.87411" lon="4.64338">
        <ele>212</ele>
        <time>2020-07-04T13:32:04.586Z</time>
      </trkpt>
      <trkpt lat="45.8742" lon="4.64338">
        <ele>212</ele>
        <time>2020-07-04T13:32:07.906Z</time>
      </trkpt>
      <trkpt lat="45.8743" lon="4.64338">
        <ele>212</ele>
        <time>2020-07-04T13:32:11.232Z</time>
      </trkpt>
      <trkpt lat="45.8744" lon="4.64338">
        <ele>212</ele>
        <time>2020-07-04T13:32:14.564Z</time>
      </trkpt>
      <trkpt lat="45.87448" lon="4.64339">
        <ele>211.9</ele>
        <time>2020-07-04T13:32:17.900Z</time>
      </trkpt>
      <trkpt lat="45.87467" lon="4.64345">
        <ele>211.8</ele>
        <time>2020-07-04T13:32:21.248Z</time>
      </trkpt>
      <trkpt lat="45.87502" lon="4.64358">
        <ele>211.5</ele>
        <time>2020-07-04T13:32:24.618Z</time>
      </trkpt>
      <trkpt lat="45.87507" lon="4.6436">
        <ele>211.5</ele>
        <time>2020-07-04T13:32:27.991Z</time>
      </trkpt>
      <trkpt lat="45.87522" lon="4.64365">
        <ele>211.4</ele>
        <time>2020-07-04T13:32:31.373Z</time>
      </trkpt>
      <trkpt lat="45.87538" lon="4.64371">
        <ele>211.3</ele>
        <time>2020-07-04T13:32:34.765Z</time>
      </trkpt>
      <trkpt lat="45.87551" lon="4.64377">
        <ele>211.3</ele>
        <time>2020-07-04T13:32:38.166Z</time>
      </trkpt>
      <trkpt lat="45.87562" lon="4.64382">
        <ele>211.3</ele>
        <time>2020-07-04T13:32:41.573Z</time>
      </trkpt>
      <trkpt lat="45.87567" lon="4.64384">
        <ele>211.4</ele>
        <time>2020-07-04T13:32:44.984Z</time>
      </trkpt>
      <trkpt lat="45.87567" lon="4.64384">
        <ele>211.4</ele>
        <time>2020-07-04T13:32:48.395Z</time>
      </trkpt>
      <trkpt lat="45.87567" lon="4.64384">
        <ele>211.4</ele>
        <time>2020-07-04T13:32:51.806Z</time>
      </trkpt>
      <trkpt lat="45.87567" lon="4.64384">
        <ele>211.4</ele>
        <time>2020-07-04T13:32:55.217Z</time>
      </trkpt>
      <trkpt lat="45.8757" lon="4.64385">
        <ele>211.4</ele>
        <time>2020-07-04T13:32:58.630Z</time>
      </trkpt>
      <trkpt lat="45.87584" lon="4.64398">
        <ele>211.7</ele>
        <time>2020-07-04T13:33:02.053Z</time>
      </trkpt>
      <trkpt lat="45.87599" lon="4.64418">
        <ele>212.2</ele>
        <time>2020-07-04T13:33:05.488Z</time>
      </trkpt>
      <trkpt lat="45.87611" lon="4.64424">
        <ele>212.3</ele>
        <time>2020-07-04T13:33:08.931Z</time>
      </trkpt>
      <trkpt lat="45.87633" lon="4.64421">
        <ele>211.7</ele>
        <time>2020-07-04T13:33:12.387Z</time>
      </trkpt>
      <trkpt lat="45.87663" lon="4.64416">
        <ele>211.8</ele>
        <time>2020-07-04T13:33:15.861Z</time>
      </trkpt>
      <trkpt lat="45.87681" lon="4.6442">
        <ele>212.4</ele>
        <time>2020-07-04T13:33:19.346Z</time>
      </trkpt>
      <trkpt lat="45.87689" lon="4.64423">
        <ele>212.8</ele>
        <time>2020-07-04T13:33:22.836Z</time>
      </trkpt>
      <trkpt lat="45.87698" lon="4.64425">
        <ele>213.1</ele>
        <time>2020-07-04T13:33:26.332Z</time>
      </trkpt>
      <trkpt lat="45.87704" lon="4.64429">
        <ele>213.5</ele>
        <time>2020-07-04T13:33:29.832Z</time>
      </trkpt>
      <trkpt lat="45.87697" lon="4.64441">
        <ele>213.8</ele>
        <time>2020-07-04T13:33:33.338Z</time>
      </trkpt>
      <trkpt lat="45.87684" lon="4.6446">
        <ele>214.2</ele>
        <time>2020-07-04T13:33:36.855Z</time>
      </trkpt>
      <trkpt lat="45.87676" lon="4.6448">
        <ele>214.2</ele>
        <time>2020-07-04T13:33:40.382Z</time>
      </trkpt>
      <trkpt lat="45.87677" lon="4.64486">
        <ele>214.3</ele>
        <time>2020-07-04T13:33:43.911Z</time>
      </trkpt>
      <trkpt lat="45.87682" lon="4.64496">
        <ele>214.5</ele>
        <time>2020-07-04T13:33:47.446Z</time>
      </trkpt>
      <trkpt lat="45.87688" lon="4.64506">
        <ele>214.8</ele>
        <time>2020-07-04T13:33:50.986Z</time>
      </trkpt>
      <trkpt lat="45.87703" lon="4.64524">
        <ele>215.4</ele>
        <time>2020-07-04T13:33:54.538Z</time>
      </trkpt>
      <trkpt lat="45.87721" lon="4.64555">
        <ele>216.9</ele>
        <time>2020-07-04T13:33:58.107Z</time>
      </trkpt>
      <trkpt lat="45.87722" lon="4.6458">
        <ele>218.1</ele>
        <time>2020-07-04T13:34:01.686Z</time>
      </trkpt>
      <trkpt lat="45.87724" lon="4.64605">
        <ele>219.6</ele>
        <time>2020-07-04T13:34:05.276Z</time>
      </trkpt>
      <trkpt lat="45.8773" lon="4.64631">
        <ele>219.9</ele>
        <time>2020-07-04T13:34:08.878Z</time>
      </trkpt>
      <trkpt lat="45.87727" lon="4.64659">
        <ele>219.1</ele>
        <time>2020-07-04T13:34:12.492Z</time>
      </trkpt>
      <trkpt lat="45.87725" lon="4.64701">
        <ele>218.1</ele>
        <time>2020-07-04T13:34:16.124Z</time>
      </trkpt>
      <trkpt lat="45.87727" lon="4.64728">
        <ele>216.6</ele>
        <time>2020-07-04T13:34:19.767Z</time>
      </trkpt>
      <trkpt lat="45.8773" lon="4.64744">
        <ele>215.7</ele>
        <time>2020-07-04T13:34:23.417Z</time>
      </trkpt>
      <trkpt lat="45.87737" lon="4.64777">
        <ele>213.9</ele>
        <time>2020-07-04T13:34:27.081Z</time>
      </trkpt>
      <trkpt lat="45.87742" lon="4.64788">
        <ele>213.5</ele>
        <time>2020-07-04T13:34:30.751Z</time>
      </trkpt>
      <trkpt lat="45.87752" lon="4.64806">
        <ele>213.9</ele>
        <time>2020-07-04T13:34:34.431Z</time>
      </trkpt>
      <trkpt lat="45.87763" lon="4.64825">
        <ele>214.4</ele>
        <time>2020-07-04T13:34:38.121Z</time>
      </trkpt>
      <trkpt lat="45.87768" lon="4.64833">
        <ele>214.6</ele>
        <time>2020-07-04T13:34:41.816Z</time>
      </trkpt>
      <trkpt lat="45.87778" lon="4.64848">
        <ele>215.1</ele>
        <time>2020-07-04T13:34:45.519Z</time>
      </trkpt>
      <trkpt lat="45.87779" lon="4.64851">
        <ele>215.1</ele>
        <time>2020-07-04T13:34:49.224Z</time>
      </trkpt>
      <trkpt lat="45.87787" lon="4.64864">
        <ele>215.5</ele>
        <time>2020-07-04T13:34:52.936Z</time>
      </trkpt>
      <trkpt lat="45.87791" lon="4.64871">
        <ele>215.8</ele>
        <time>2020-07-04T13:34:56.652Z</time>
      </trkpt>
      <trkpt lat="45.87796" lon="4.64882">
        <ele>216.7</ele>
        <time>2020-07-04T13:35:00.373Z</time>
      </trkpt>
      <trkpt lat="45.878" lon="4.64891">
        <ele>217.4</ele>
        <time>2020-07-04T13:35:04.099Z</time>
      </trkpt>
      <trkpt lat="45.87803" lon="4.64896">
        <ele>217.9</ele>
        <time>2020-07-04T13:35:07.827Z</time>
      </trkpt>
      <trkpt lat="45.8781" lon="4.64911">
        <ele>219.2</ele>
        <time>2020-07-04T13:35:11.563Z</time>
      </trkpt>
      <trkpt lat="45.87811" lon="4.64914">
        <ele>219.5</ele>
        <time>2020-07-04T13:35:15.300Z</time>
      </trkpt>
      <trkpt lat="45.87817" lon="4.64927">
        <ele>220.8</ele>
        <time>2020-07-04T13:35:19.044Z</time>
      </trkpt>
      <trkpt lat="45.87818" lon="4.64929">
        <ele>221</ele>
        <time>2020-07-04T13:35:22.789Z</time>
      </trkpt>
      <trkpt lat="45.87826" lon="4.64942">
        <ele>222.4</ele>
        <time>2020-07-04T13:35:26.542Z</time>
      </trkpt>
      <trkpt lat="45.87826" lon="4.64945">
        <ele>222.6</ele>
        <time>2020-07-04T13:35:30.296Z</time>
      </trkpt>
      <trkpt lat="45.87829" lon="4.64959">
        <ele>224.1</ele>
        <time>2020-07-04T13:35:34.056Z</time>
      </trkpt>
      <trkpt lat="45.8783" lon="4.64962">
        <ele>224.6</ele>
        <time>2020-07-04T13:35:37.817Z</time>
      </trkpt>
      <trkpt lat="45.87837" lon="4.64975">
        <ele>226.5</ele>
        <time>2020-07-04T13:35:41.585Z</time>
      </trkpt>
      <trkpt lat="45.87838" lon="4.64977">
        <ele>226.8</ele>
        <time>2020-07-04T13:35:45.354Z</time>
      </trkpt>
      <trkpt lat="45.87841" lon="4.64987">
        <ele>228.2</ele>
        <time>2020-07-04T13:35:49.128Z</time>
      </trkpt>
      <trkpt lat="45.87844" lon="4.64994">
        <ele>229.1</ele>
        <time>2020-07-04T13:35:52.905Z</time>
      </trkpt>
      <trkpt lat="45.87846" lon="4.64998">
        <ele>229.7</ele>
        <time>2020-07-04T13:35:56.684Z</time>
      </trkpt>
      <trkpt lat="45.87848" lon="4.65005">
        <ele>230.5</ele>
        <time>2020-07-04T13:36:00.466Z</time>
      </trkpt>
      <trkpt lat="45.8785" lon="4.65009">
        <ele>231.1</ele>
        <time>2020-07-04T13:36:04.251Z</time>
      </trkpt>
      <trkpt lat="45.87851" lon="4.65011">
        <ele>231.4</ele>
        <time>2020-07-04T13:36:08.037Z</time>
      </trkpt>
      <trkpt lat="45.87856" lon="4.65019">
        <ele>232.6</ele>
        <time>2020-07-04T13:36:11.827Z</time>
      </trkpt>
      <trkpt lat="45.87858" lon="4.65024">
        <ele>233.2</ele>
        <time>2020-07-04T13:36:15.619Z</time>
      </trkpt>
      <trkpt lat="45.87861" lon="4.6503">
        <ele>234</ele>
        <time>2020-07-04T13:36:19.415Z</time>
      </trkpt>
      <trkpt lat="45.87866" lon="4.65038">
        <ele>235.2</ele>
        <time>2020-07-04T13:36:23.215Z</time>
      </trkpt>
      <trkpt lat="45.87868" lon="4.6504">
        <ele>235.6</ele>
        <time>2020-07-04T13:36:27.016Z</time>
      </trkpt>
      <trkpt lat="45.87871" lon="4.65046">
        <ele>236.4</ele>
        <time>2020-07-04T13:36:30.821Z</time>
      </trkpt>
      <trkpt lat="45.87875" lon="4.65052">
        <ele>237.3</ele>
        <time>2020-07-04T13:36:34.629Z</time>
      </trkpt>
      <trkpt lat="45.87879" lon="4.65057">
        <ele>238.1</ele>
        <time>2020-07-04T13:36:38.440Z</time>
      </trkpt>
      <trkpt lat="45.8788" lon="4.65059">
        <ele>238.4</ele>
        <time>2020-07-04T13:36:42.252Z</time>
      </trkpt>
      <trkpt lat="45.87886" lon="4.65067">
        <ele>239.7</ele>
        <time>2020-07-04T13:36:46.069Z</time>
      </trkpt>
      <trkpt lat="45.8789" lon="4.65076">
        <ele>240.9</ele>
        <time>2020-07-04T13:36:49.891Z</time>
      </trkpt>
      <trkpt lat="45.87891" lon="4.65078">
        <ele>241.3</ele>
        <time>2020-07-04T13:36:53.714Z</time>
      </trkpt>
      <trkpt lat="45.87895" lon="4.65084">
        <ele>242.5</ele>
        <time>2020-07-04T13:36:57.540Z</time>
      </trkpt>
      <trkpt lat="45.87898" lon="4.65097">
        <ele>244.2</ele>
        <time>2020-07-04T13:37:01.372Z</time>
      </trkpt>
      <trkpt lat="45.87899" lon="4.65107">
        <ele>245.3</ele>
        <time>2020-07-04T13:37:05.208Z</time>
      </trkpt>
      <trkpt lat="45.87897" lon="4.65113">
        <ele>245.5</ele>
        <time>2020-07-04T13:37:09.047Z</time>
      </trkpt>
      <trkpt lat="45.87895" lon="4.65115">
        <ele>245.4</ele>
        <time>2020-07-04T13:37:12.887Z</time>
      </trkpt>
      <trkpt lat="45.87893" lon="4.65117">
        <ele>245.3</ele>
        <time>2020-07-04T13:37:16.728Z</time>
      </trkpt>
      <trkpt lat="45.87894" lon="4.65117">
        <ele>245.5</ele>
        <time>2020-07-04T13:37:20.570Z</time>
      </trkpt>
      <trkpt lat="45.87893" lon="4.65118">
        <ele>245.4</ele>
        <time>2020-07-04T13:37:24.412Z</time>
      </trkpt>
      <trkpt lat="45.87885" lon="4.65128">
        <ele>245.8</ele>
        <time>2020-07-04T13:37:28.261Z</time>
      </trkpt>
      <trkpt lat="45.87876" lon="4.65136">
        <ele>246.2</ele>
        <time>2020-07-04T13:37:32.116Z</time>
      </trkpt>
      <trkpt lat="45.8787" lon="4.6514">
        <ele>246.3</ele>
        <time>2020-07-04T13:37:35.975Z</time>
      </trkpt>
      <trkpt lat="45.87864" lon="4.65144">
        <ele>246.4</ele>
        <time>2020-07-04T13:37:39.838Z</time>
      </trkpt>
      <trkpt lat="45.87856" lon="4.65149">
        <ele>246.6</ele>
        <time>2020-07-04T13:37:43.706Z</time>
      </trkpt>
      <trkpt lat="45.87849" lon="4.65152">
        <ele>246.5</ele>
        <time>2020-07-04T13:37:47.578Z</time>
      </trkpt>
      <trkpt lat="45.87843" lon="4.65155">
        <ele>246.5</ele>
        <time>2020-07-04T13:37:51.454Z</time>
      </trkpt>
      <trkpt lat="45.8783" lon="4.65161">
        <ele>247.5</ele>
        <time>2020-07-04T13:37:55.339Z</time>
      </trkpt>
      <trkpt lat="45.87824" lon="4.65164">
        <ele>248.1</ele>
        <time>2020-07-04T13:37:59.228Z</time>
      </trkpt>
      <trkpt lat="45.87815" lon="4.65166">
        <ele>248.4</ele>
        <time>2020-07-04T13:38:03.122Z</time>
      </trkpt>
      <trkpt lat="45.87807" lon="4.65168">
        <ele>248.8</ele>
        <time>2020-07-04T13:38:07.021Z</time>
      </trkpt>
      <trkpt lat="45.878" lon="4.65168">
        <ele>249</ele>
        <time>2020-07-04T13:38:10.924Z</time>
      </trkpt>
      <trkpt lat="45.87787" lon="4.65168">
        <ele>249.5</ele>
        <time>2020-07-04T13:38:14.835Z</time>
      </trkpt>
      <trkpt lat="45.87779" lon="4.65167">
        <ele>249.6</ele>
        <time>2020-07-04T13:38:18.751Z</time>
      </trkpt>
      <trkpt lat="45.87773" lon="4.65166">
        <ele>249.6</ele>
        <time>2020-07-04T13:38:22.670Z</time>
      </trkpt>
      <trkpt lat="45.87767" lon="4.65166">
        <ele>249.9</ele>
        <time>2020-07-04T13:38:26.593Z</time>
      </trkpt>
      <trkpt lat="45.87759" lon="4.65167">
        <ele>250.5</ele>
        <time>2020-07-04T13:38:30.521Z</time>
      </trkpt>
      <trkpt lat="45.87757" lon="4.65166">
        <ele>250.4</ele>
        <time>2020-07-04T13:38:34.450Z</time>
      </trkpt>
      <trkpt lat="45.87755" lon="4.65166">
        <ele>250.5</ele>
        <time>2020-07-04T13:38:38.381Z</time>
      </trkpt>
      <trkpt lat="45.87746" lon="4.65166">
        <ele>250.9</ele>
        <time>2020-07-04T13:38:42.317Z</time>
      </trkpt>
      <trkpt lat="45.8774" lon="4.65166">
        <ele>251.2</ele>
        <time>2020-07-04T13:38:46.257Z</time>
      </trkpt>
      <trkpt lat="45.87738" lon="4.65165">
        <ele>251.1</ele>
        <time>2020-07-04T13:38:50.198Z</time>
      </trkpt>
      <trkpt lat="45.8773" lon="4.65165">
        <ele>251.5</ele>
        <time>2020-07-04T13:38:54.143Z</time>
      </trkpt>
      <trkpt lat="45.87728" lon="4.65165">
        <ele>251.6</ele>
        <time>2020-07-04T13:38:58.090Z</time>
      </trkpt>
      <trkpt lat="45.8772" lon="4.65164">
        <ele>252.1</ele>
        <time>2020-07-04T13:39:02.042Z</time>
      </trkpt>
      <trkpt lat="45.87713" lon="4.65163">
        <ele>253</ele>
        <time>2020-07-04T13:39:05.998Z</time>
      </trkpt>
      <trkpt lat="45.87711" lon="4.65162">
        <ele>253.1</ele>
        <time>2020-07-04T13:39:09.955Z</time>
      </trkpt>
      <trkpt lat="45.877" lon="4.65161">
        <ele>254.6</ele>
        <time>2020-07-04T13:39:13.919Z</time>
      </trkpt>
      <trkpt lat="45.8769" lon="4.6516">
        <ele>256</ele>
        <time>2020-07-04T13:39:17.889Z</time>
      </trkpt>
      <trkpt lat="45.87683" lon="4.65162">
        <ele>257.5</ele>
        <time>2020-07-04T13:39:21.863Z</time>
      </trkpt>
      <trkpt lat="45.87674" lon="4.65163">
        <ele>258.6</ele>
        <time>2020-07-04T13:39:25.842Z</time>
      </trkpt>
      <trkpt lat="45.87665" lon="4.65165">
        <ele>259.9</ele>
        <time>2020-07-04T13:39:29.827Z</time>
      </trkpt>
      <trkpt lat="45.87655" lon="4.6517">
        <ele>261.7</ele>
        <time>2020-07-04T13:39:33.818Z</time>
      </trkpt>
      <trkpt lat="45.87653" lon="4.6517">
        <ele>261.9</ele>
        <time>2020-07-04T13:39:37.811Z</time>
      </trkpt>
      <trkpt lat="45.8764" lon="4.65178">
        <ele>264.4</ele>
        <time>2020-07-04T13:39:41.812Z</time>
      </trkpt>
      <trkpt lat="45.87633" lon="4.65183">
        <ele>265.7</ele>
        <time>2020-07-04T13:39:45.818Z</time>
      </trkpt>
      <trkpt lat="45.87622" lon="4.65191">
        <ele>267.5</ele>
        <time>2020-07-04T13:39:49.831Z</time>
      </trkpt>
      <trkpt lat="45.87618" lon="4.65195">
        <ele>268.1</ele>
        <time>2020-07-04T13:39:53.847Z</time>
      </trkpt>
      <trkpt lat="45.87613" lon="4.65199">
        <ele>268.6</ele>
        <time>2020-07-04T13:39:57.866Z</time>
      </trkpt>
      <trkpt lat="45.87602" lon="4.65208">
        <ele>270.1</ele>
        <time>2020-07-04T13:40:01.893Z</time>
      </trkpt>
      <trkpt lat="45.876" lon="4.6521">
        <ele>270.4</ele>
        <time>2020-07-04T13:40:05.922Z</time>
      </trkpt>
      <trkpt lat="45.87592" lon="4.65218">
        <ele>271.8</ele>
        <time>2020-07-04T13:40:09.956Z</time>
      </trkpt>
      <trkpt lat="45.87584" lon="4.65225">
        <ele>273</ele>
        <time>2020-07-04T13:40:13.996Z</time>
      </trkpt>
      <trkpt lat="45.87576" lon="4.65237">
        <ele>274.7</ele>
        <time>2020-07-04T13:40:18.043Z</time>
      </trkpt>
      <trkpt lat="45.87574" lon="4.65239">
        <ele>275</ele>
        <time>2020-07-04T13:40:22.092Z</time>
      </trkpt>
      <trkpt lat="45.87563" lon="4.65252">
        <ele>276.8</ele>
        <time>2020-07-04T13:40:26.149Z</time>
      </trkpt>
      <trkpt lat="45.87558" lon="4.65258">
        <ele>277.6</ele>
        <time>2020-07-04T13:40:30.210Z</time>
      </trkpt>
      <trkpt lat="45.87552" lon="4.65265">
        <ele>278.6</ele>
        <time>2020-07-04T13:40:34.276Z</time>
      </trkpt>
      <trkpt lat="45.87543" lon="4.65276">
        <ele>280</ele>
        <time>2020-07-04T13:40:38.349Z</time>
      </trkpt>
      <trkpt lat="45.87542" lon="4.65278">
        <ele>280.1</ele>
        <time>2020-07-04T13:40:42.423Z</time>
      </trkpt>
      <trkpt lat="45.87536" lon="4.65288">
        <ele>280.7</ele>
        <time>2020-07-04T13:40:46.503Z</time>
      </trkpt>
      <trkpt lat="45.87533" lon="4.65293">
        <ele>281</ele>
        <time>2020-07-04T13:40:50.585Z</time>
      </trkpt>
      <trkpt lat="45.87531" lon="4.65297">
        <ele>281.3</ele>
        <time>2020-07-04T13:40:54.669Z</time>
      </trkpt>
      <trkpt lat="45.87525" lon="4.6531">
        <ele>282.3</ele>
        <time>2020-07-04T13:40:58.760Z</time>
      </trkpt>
      <trkpt lat="45.87524" lon="4.65313">
        <ele>282.5</ele>
        <time>2020-07-04T13:41:02.852Z</time>
      </trkpt>
      <trkpt lat="45.8752" lon="4.65321">
        <ele>283.1</ele>
        <time>2020-07-04T13:41:06.948Z</time>
      </trkpt>
      <trkpt lat="45.87516" lon="4.6533">
        <ele>283.8</ele>
        <time>2020-07-04T13:41:11.049Z</time>
      </trkpt>
      <trkpt lat="45.87516" lon="4.65333">
        <ele>284</ele>
        <time>2020-07-04T13:41:15.151Z</time>
      </trkpt>
      <trkpt lat="45.87514" lon="4.65341">
        <ele>284.8</ele>
        <time>2020-07-04T13:41:19.256Z</time>
      </trkpt>
      <trkpt lat="45.87514" lon="4.65346">
        <ele>285.3</ele>
        <time>2020-07-04T13:41:23.364Z</time>
      </trkpt>
      <trkpt lat="45.87513" lon="4.65351">
        <ele>285.7</ele>
        <time>2020-07-04T13:41:27.474Z</time>
      </trkpt>
      <trkpt lat="45.87513" lon="4.65351">
        <ele>285.7</ele>
        <time>2020-07-04T13:41:31.584Z</time>
      </trkpt>
      <trkpt lat="45.87513" lon="4.65351">
        <ele>285.7</ele>
        <time>2020-07-04T13:41:35.694Z</time>
      </trkpt>
      <trkpt lat="45.87513" lon="4.65351">
        <ele>285.7</ele>
        <time>2020-07-04T13:41:39.804Z</time>
      </trkpt>
      <trkpt lat="45.87513" lon="4.65351">
        <ele>285.7</ele>
        <time>2020-07-04T13:41:43.914Z</time>
      </trkpt>
      <trkpt lat="45.87513" lon="4.65353">
        <ele>285.9</ele>
        <time>2020-07-04T13:41:48.025Z</time>
      </trkpt>
      <trkpt lat="45.87513" lon="4.65353">
        <ele>285.9</ele>
        <time>2020-07-04T13:41:52.136Z</time>
      </trkpt>
      <trkpt lat="45.87513" lon="4.65353">
        <ele>285.9</ele>
        <time>2020-07-04T13:41:56.247Z</time>
      </trkpt>
      <trkpt lat="45.87513" lon="4.65353">
        <ele>285.9</ele>
        <time>2020-07-04T13:42:00.358Z</time>
      </trkpt>
      <trkpt lat="45.87513" lon="4.65353">
        <ele>285.9</ele>
        <time>2020-07-04T13:42:04.469Z</time>
      </trkpt>
      <trkpt lat="45.87513" lon="4.65353">
        <ele>285.9</ele>
        <time>2020-07-04T13:42:08.580Z</time>
      </trkpt>
      <trkpt lat="45.87512" lon="4.65355">
        <ele>286.1</ele>
        <time>2020-07-04T13:42:12.692Z</time>
      </trkpt>
      <trkpt lat="45.87511" lon="4.65355">
        <ele>286.1</ele>
        <time>2020-07-04T13:42:16.805Z</time>
      </trkpt>
      <trkpt lat="45.87506" lon="4.6536">
        <ele>286.5</ele>
        <time>2020-07-04T13:42:20.921Z</time>
      </trkpt>
      <trkpt lat="45.87503" lon="4.65363">
        <ele>286.8</ele>
        <time>2020-07-04T13:42:25.039Z</time>
      </trkpt>
      <trkpt lat="45.87497" lon="4.65372">
        <ele>287.4</ele>
        <time>2020-07-04T13:42:29.163Z</time>
      </trkpt>
      <trkpt lat="45.87496" lon="4.65373">
        <ele>287.4</ele>
        <time>2020-07-04T13:42:33.287Z</time>
      </trkpt>
      <trkpt lat="45.87492" lon="4.6538">
        <ele>287.5</ele>
        <time>2020-07-04T13:42:37.415Z</time>
      </trkpt>
      <trkpt lat="45.87476" lon="4.65393">
        <ele>286.9</ele>
        <time>2020-07-04T13:42:41.554Z</time>
      </trkpt>
      <trkpt lat="45.87459" lon="4.65405">
        <ele>284.6</ele>
        <time>2020-07-04T13:42:45.705Z</time>
      </trkpt>
      <trkpt lat="45.87455" lon="4.65406">
        <ele>284</ele>
        <time>2020-07-04T13:42:49.858Z</time>
      </trkpt>
      <trkpt lat="45.87448" lon="4.65407">
        <ele>283</ele>
        <time>2020-07-04T13:42:54.015Z</time>
      </trkpt>
      <trkpt lat="45.87435" lon="4.65408">
        <ele>281.1</ele>
        <time>2020-07-04T13:42:58.180Z</time>
      </trkpt>
      <trkpt lat="45.87423" lon="4.65413">
        <ele>280.2</ele>
        <time>2020-07-04T13:43:02.353Z</time>
      </trkpt>
      <trkpt lat="45.87416" lon="4.65418">
        <ele>280.1</ele>
        <time>2020-07-04T13:43:06.531Z</time>
      </trkpt>
      <trkpt lat="45.8741" lon="4.65424">
        <ele>280.2</ele>
        <time>2020-07-04T13:43:10.713Z</time>
      </trkpt>
      <trkpt lat="45.87398" lon="4.65435">
        <ele>280.2</ele>
        <time>2020-07-04T13:43:14.904Z</time>
      </trkpt>
      <trkpt lat="45.8739" lon="4.65444">
        <ele>280.4</ele>
        <time>2020-07-04T13:43:19.101Z</time>
      </trkpt>
      <trkpt lat="45.87384" lon="4.6545">
        <ele>281.1</ele>
        <time>2020-07-04T13:43:23.302Z</time>
      </trkpt>
      <trkpt lat="45.8738" lon="4.65454">
        <ele>281.5</ele>
        <time>2020-07-04T13:43:27.506Z</time>
      </trkpt>
      <trkpt lat="45.87364" lon="4.65469">
        <ele>282.4</ele>
        <time>2020-07-04T13:43:31.722Z</time>
      </trkpt>
      <trkpt lat="45.87356" lon="4.6547">
        <ele>282.8</ele>
        <time>2020-07-04T13:43:35.942Z</time>
      </trkpt>
      <trkpt lat="45.87347" lon="4.65467">
        <ele>283.2</ele>
        <time>2020-07-04T13:43:40.168Z</time>
      </trkpt>
      <trkpt lat="45.87341" lon="4.65465">
        <ele>283.5</ele>
        <time>2020-07-04T13:43:44.398Z</time>
      </trkpt>
      <trkpt lat="45.87332" lon="4.65461">
        <ele>283.9</ele>
        <time>2020-07-04T13:43:48.634Z</time>
      </trkpt>
      <trkpt lat="45.87329" lon="4.6546">
        <ele>284</ele>
        <time>2020-07-04T13:43:52.871Z</time>
      </trkpt>
      <trkpt lat="45.87317" lon="4.65454">
        <ele>284.5</ele>
        <time>2020-07-04T13:43:57.116Z</time>
      </trkpt>
      <trkpt lat="45.87312" lon="4.65449">
        <ele>284.5</ele>
        <time>2020-07-04T13:44:01.364Z</time>
      </trkpt>
      <trkpt lat="45.87297" lon="4.65444">
        <ele>284.3</ele>
        <time>2020-07-04T13:44:05.622Z</time>
      </trkpt>
      <trkpt lat="45.87291" lon="4.65444">
        <ele>284.1</ele>
        <time>2020-07-04T13:44:09.883Z</time>
      </trkpt>
      <trkpt lat="45.87277" lon="4.65441">
        <ele>283.6</ele>
        <time>2020-07-04T13:44:14.153Z</time>
      </trkpt>
      <trkpt lat="45.87256" lon="4.6544">
        <ele>283</ele>
        <time>2020-07-04T13:44:18.435Z</time>
      </trkpt>
      <trkpt lat="45.87233" lon="4.65442">
        <ele>282.6</ele>
        <time>2020-07-04T13:44:22.731Z</time>
      </trkpt>
      <trkpt lat="45.87216" lon="4.6545">
        <ele>281.5</ele>
        <time>2020-07-04T13:44:27.039Z</time>
      </trkpt>
      <trkpt lat="45.87203" lon="4.65466">
        <ele>280.6</ele>
        <time>2020-07-04T13:44:31.357Z</time>
      </trkpt>
      <trkpt lat="45.87194" lon="4.65489">
        <ele>280.8</ele>
        <time>2020-07-04T13:44:35.686Z</time>
      </trkpt>
      <trkpt lat="45.87194" lon="4.65505">
        <ele>281.9</ele>
        <time>2020-07-04T13:44:40.021Z</time>
      </trkpt>
      <trkpt lat="45.87196" lon="4.65527">
        <ele>284.9</ele>
        <time>2020-07-04T13:44:44.366Z</time>
      </trkpt>
      <trkpt lat="45.87197" lon="4.65534">
        <ele>285.9</ele>
        <time>2020-07-04T13:44:48.714Z</time>
      </trkpt>
      <trkpt lat="45.87198" lon="4.65541">
        <ele>286.8</ele>
        <time>2020-07-04T13:44:53.065Z</time>
      </trkpt>
      <trkpt lat="45.87198" lon="4.65545">
        <ele>287.2</ele>
        <time>2020-07-04T13:44:57.418Z</time>
      </trkpt>
      <trkpt lat="45.87199" lon="4.65553">
        <ele>288.1</ele>
        <time>2020-07-04T13:45:01.774Z</time>
      </trkpt>
      <trkpt lat="45.872" lon="4.65555">
        <ele>288.4</ele>
        <time>2020-07-04T13:45:06.131Z</time>
      </trkpt>
      <trkpt lat="45.872" lon="4.65564">
        <ele>289.2</ele>
        <time>2020-07-04T13:45:10.492Z</time>
      </trkpt>
      <trkpt lat="45.87202" lon="4.65579">
        <ele>290.9</ele>
        <time>2020-07-04T13:45:14.859Z</time>
      </trkpt>
      <trkpt lat="45.87202" lon="4.65588">
        <ele>291.7</ele>
        <time>2020-07-04T13:45:19.230Z</time>
      </trkpt>
      <trkpt lat="45.87202" lon="4.65597">
        <ele>292.6</ele>
        <time>2020-07-04T13:45:23.605Z</time>
      </trkpt>
      <trkpt lat="45.87202" lon="4.65606">
        <ele>294</ele>
        <time>2020-07-04T13:45:27.984Z</time>
      </trkpt>
      <trkpt lat="45.87201" lon="4.65615">
        <ele>295.5</ele>
        <time>2020-07-04T13:45:32.366Z</time>
      </trkpt>
      <trkpt lat="45.87202" lon="4.65624">
        <ele>296.8</ele>
        <time>2020-07-04T13:45:36.752Z</time>
      </trkpt>
      <trkpt lat="45.87202" lon="4.65626">
        <ele>297.1</ele>
        <time>2020-07-04T13:45:41.139Z</time>
      </trkpt>
      <trkpt lat="45.87202" lon="4.65631">
        <ele>297.7</ele>
        <time>2020-07-04T13:45:45.528Z</time>
      </trkpt>
      <trkpt lat="45.87203" lon="4.6564">
        <ele>298.8</ele>
        <time>2020-07-04T13:45:49.921Z</time>
      </trkpt>
      <trkpt lat="45.87203" lon="4.65643">
        <ele>299.1</ele>
        <time>2020-07-04T13:45:54.315Z</time>
      </trkpt>
      <trkpt lat="45.87203" lon="4.65646">
        <ele>299.5</ele>
        <time>2020-07-04T13:45:58.710Z</time>
      </trkpt>
      <trkpt lat="45.87202" lon="4.65658">
        <ele>300.9</ele>
        <time>2020-07-04T13:46:03.110Z</time>
      </trkpt>
      <trkpt lat="45.87202" lon="4.65666">
        <ele>301.9</ele>
        <time>2020-07-04T13:46:07.514Z</time>
      </trkpt>
      <trkpt lat="45.87202" lon="4.65669">
        <ele>302.2</ele>
        <time>2020-07-04T13:46:11.919Z</time>
      </trkpt>
      <trkpt lat="45.87205" lon="4.65679">
        <ele>303.5</ele>
        <time>2020-07-04T13:46:16.329Z</time>
      </trkpt>
      <trkpt lat="45.87206" lon="4.65681">
        <ele>303.8</ele>
        <time>2020-07-04T13:46:20.740Z</time>
      </trkpt>
      <trkpt lat="45.87211" lon="4.65685">
        <ele>304.5</ele>
        <time>2020-07-04T13:46:25.154Z</time>
      </trkpt>
      <trkpt lat="45.87215" lon="4.65688">
        <ele>305</ele>
        <time>2020-07-04T13:46:29.571Z</time>
      </trkpt>
      <trkpt lat="45.87217" lon="4.65689">
        <ele>305.2</ele>
        <time>2020-07-04T13:46:33.989Z</time>
      </trkpt>
      <trkpt lat="45.87218" lon="4.6569">
        <ele>305.3</ele>
        <time>2020-07-04T13:46:38.408Z</time>
      </trkpt>
      <trkpt lat="45.87226" lon="4.65694">
        <ele>305.8</ele>
        <time>2020-07-04T13:46:42.832Z</time>
      </trkpt>
      <trkpt lat="45.87227" lon="4.65695">
        <ele>305.9</ele>
        <time>2020-07-04T13:46:47.257Z</time>
      </trkpt>
      <trkpt lat="45.87232" lon="4.65698">
        <ele>306</ele>
        <time>2020-07-04T13:46:51.685Z</time>
      </trkpt>
      <trkpt lat="45.87241" lon="4.65705">
        <ele>306.4</ele>
        <time>2020-07-04T13:46:56.119Z</time>
      </trkpt>
      <trkpt lat="45.87244" lon="4.65707">
        <ele>306.5</ele>
        <time>2020-07-04T13:47:00.555Z</time>
      </trkpt>
      <trkpt lat="45.87248" lon="4.65709">
        <ele>306.6</ele>
        <time>2020-07-04T13:47:04.994Z</time>
      </trkpt>
      <trkpt lat="45.87251" lon="4.65711">
        <ele>306.7</ele>
        <time>2020-07-04T13:47:09.435Z</time>
      </trkpt>
      <trkpt lat="45.87259" lon="4.6572">
        <ele>307.4</ele>
        <time>2020-07-04T13:47:13.882Z</time>
      </trkpt>
      <trkpt lat="45.8726" lon="4.65722">
        <ele>307.5</ele>
        <time>2020-07-04T13:47:18.330Z</time>
      </trkpt>
      <trkpt lat="45.87259" lon="4.65733">
        <ele>308.9</ele>
        <time>2020-07-04T13:47:22.783Z</time>
      </trkpt>
      <trkpt lat="45.87257" lon="4.65738">
        <ele>309.6</ele>
        <time>2020-07-04T13:47:27.238Z</time>
      </trkpt>
      <trkpt lat="45.87257" lon="4.65741">
        <ele>310.1</ele>
        <time>2020-07-04T13:47:31.694Z</time>
      </trkpt>
      <trkpt lat="45.87258" lon="4.65742">
        <ele>310.1</ele>
        <time>2020-07-04T13:47:36.151Z</time>
      </trkpt>
      <trkpt lat="45.87259" lon="4.65743">
        <ele>310.2</ele>
        <time>2020-07-04T13:47:40.609Z</time>
      </trkpt>
      <trkpt lat="45.8726" lon="4.65743">
        <ele>310.1</ele>
        <time>2020-07-04T13:47:45.067Z</time>
      </trkpt>
      <trkpt lat="45.8726" lon="4.65743">
        <ele>310.1</ele>
        <time>2020-07-04T13:47:49.526Z</time>
      </trkpt>
      <trkpt lat="45.87265" lon="4.65749">
        <ele>310.6</ele>
        <time>2020-07-04T13:47:53.988Z</time>
      </trkpt>
      <trkpt lat="45.87266" lon="4.65751">
        <ele>310.9</ele>
        <time>2020-07-04T13:47:58.451Z</time>
      </trkpt>
      <trkpt lat="45.87266" lon="4.65758">
        <ele>311.9</ele>
        <time>2020-07-04T13:48:02.917Z</time>
      </trkpt>
      <trkpt lat="45.87267" lon="4.65769">
        <ele>313.4</ele>
        <time>2020-07-04T13:48:07.388Z</time>
      </trkpt>
      <trkpt lat="45.87267" lon="4.65774">
        <ele>314.1</ele>
        <time>2020-07-04T13:48:11.861Z</time>
      </trkpt>
      <trkpt lat="45.87267" lon="4.65785">
        <ele>315.7</ele>
        <time>2020-07-04T13:48:16.339Z</time>
      </trkpt>
      <trkpt lat="45.87267" lon="4.6579">
        <ele>316.1</ele>
        <time>2020-07-04T13:48:20.819Z</time>
      </trkpt>
      <trkpt lat="45.87269" lon="4.65803">
        <ele>316.9</ele>
        <time>2020-07-04T13:48:25.304Z</time>
      </trkpt>
      <trkpt lat="45.87275" lon="4.65812">
        <ele>317.1</ele>
        <time>2020-07-04T13:48:29.795Z</time>
      </trkpt>
      <trkpt lat="45.8728" lon="4.6582">
        <ele>317.3</ele>
        <time>2020-07-04T13:48:34.290Z</time>
      </trkpt>
      <trkpt lat="45.87283" lon="4.65824">
        <ele>317.4</ele>
        <time>2020-07-04T13:48:38.788Z</time>
      </trkpt>
      <trkpt lat="45.87288" lon="4.65829">
        <ele>317.4</ele>
        <time>2020-07-04T13:48:43.289Z</time>
      </trkpt>
      <trkpt lat="45.873" lon="4.65835">
        <ele>317</ele>
        <time>2020-07-04T13:48:47.798Z</time>
      </trkpt>
      <trkpt lat="45.87318" lon="4.65844">
        <ele>316.5</ele>
        <time>2020-07-04T13:48:52.318Z</time>
      </trkpt>
      <trkpt lat="45.87332" lon="4.65859">
        <ele>316.7</ele>
        <time>2020-07-04T13:48:56.849Z</time>
      </trkpt>
      <trkpt lat="45.87341" lon="4.65873">
        <ele>317</ele>
        <time>2020-07-04T13:49:01.388Z</time>
      </trkpt>
      <trkpt lat="45.8735" lon="4.65899">
        <ele>316.7</ele>
        <time>2020-07-04T13:49:05.939Z</time>
      </trkpt>
      <trkpt lat="45.87354" lon="4.65911">
        <ele>316.6</ele>
        <time>2020-07-04T13:49:10.496Z</time>
      </trkpt>
      <trkpt lat="45.87359" lon="4.6593">
        <ele>316.4</ele>
        <time>2020-07-04T13:49:15.061Z</time>
      </trkpt>
      <trkpt lat="45.87367" lon="4.6596">
        <ele>316.2</ele>
        <time>2020-07-04T13:49:19.640Z</time>
      </trkpt>
      <trkpt lat="45.87376" lon="4.65993">
        <ele>317.4</ele>
        <time>2020-07-04T13:49:24.234Z</time>
      </trkpt>
      <trkpt lat="45.87382" lon="4.66018">
        <ele>318.4</ele>
        <time>2020-07-04T13:49:28.839Z</time>
      </trkpt>
      <trkpt lat="45.87392" lon="4.66043">
        <ele>319.8</ele>
        <time>2020-07-04T13:49:33.456Z</time>
      </trkpt>
      <trkpt lat="45.87394" lon="4.66046">
        <ele>320.2</ele>
        <time>2020-07-04T13:49:38.075Z</time>
      </trkpt>
      <trkpt lat="45.87406" lon="4.66067">
        <ele>322.8</ele>
        <time>2020-07-04T13:49:42.705Z</time>
      </trkpt>
      <trkpt lat="45.87409" lon="4.66073">
        <ele>323.5</ele>
        <time>2020-07-04T13:49:47.338Z</time>
      </trkpt>
      <trkpt lat="45.87418" lon="4.66086">
        <ele>325.2</ele>
        <time>2020-07-04T13:49:51.979Z</time>
      </trkpt>
      <trkpt lat="45.87422" lon="4.6609">
        <ele>325.9</ele>
        <time>2020-07-04T13:49:56.623Z</time>
      </trkpt>
      <trkpt lat="45.87428" lon="4.661">
        <ele>327.1</ele>
        <time>2020-07-04T13:50:01.273Z</time>
      </trkpt>
      <trkpt lat="45.87437" lon="4.66113">
        <ele>328.9</ele>
        <time>2020-07-04T13:50:05.930Z</time>
      </trkpt>
      <trkpt lat="45.8744" lon="4.66118">
        <ele>329.5</ele>
        <time>2020-07-04T13:50:10.590Z</time>
      </trkpt>
      <trkpt lat="45.87442" lon="4.6612">
        <ele>329.8</ele>
        <time>2020-07-04T13:50:15.251Z</time>
      </trkpt>
      <trkpt lat="45.87445" lon="4.66125">
        <ele>330.5</ele>
        <time>2020-07-04T13:50:19.915Z</time>
      </trkpt>
      <trkpt lat="45.87452" lon="4.66135">
        <ele>332</ele>
        <time>2020-07-04T13:50:24.585Z</time>
      </trkpt>
      <trkpt lat="45.87454" lon="4.66137">
        <ele>332.3</ele>
        <time>2020-07-04T13:50:29.256Z</time>
      </trkpt>
      <trkpt lat="45.87459" lon="4.66143">
        <ele>333.3</ele>
        <time>2020-07-04T13:50:33.931Z</time>
      </trkpt>
      <trkpt lat="45.87462" lon="4.66149">
        <ele>334.1</ele>
        <time>2020-07-04T13:50:38.610Z</time>
      </trkpt>
      <trkpt lat="45.87464" lon="4.6615">
        <ele>334.3</ele>
        <time>2020-07-04T13:50:43.290Z</time>
      </trkpt>
      <trkpt lat="45.87467" lon="4.66155">
        <ele>335</ele>
        <time>2020-07-04T13:50:47.973Z</time>
      </trkpt>
      <trkpt lat="45.8747" lon="4.66157">
        <ele>335.4</ele>
        <time>2020-07-04T13:50:52.657Z</time>
      </trkpt>
      <trkpt lat="45.87471" lon="4.66157">
        <ele>335.5</ele>
        <time>2020-07-04T13:50:57.342Z</time>
      </trkpt>
      <trkpt lat="45.87474" lon="4.66154">
        <ele>335.4</ele>
        <time>2020-07-04T13:51:02.029Z</time>
      </trkpt>
      <trkpt lat="45.87474" lon="4.66154">
        <ele>335.4</ele>
        <time>2020-07-04T13:51:06.716Z</time>
      </trkpt>
      <trkpt lat="45.87474" lon="4.66152">
        <ele>335.2</ele>
        <time>2020-07-04T13:51:11.404Z</time>
      </trkpt>
      <trkpt lat="45.87475" lon="4.66149">
        <ele>335</ele>
        <time>2020-07-04T13:51:16.094Z</time>
      </trkpt>
      <trkpt lat="45.87475" lon="4.66149">
        <ele>335</ele>
        <time>2020-07-04T13:51:20.784Z</time>
      </trkpt>
      <trkpt lat="45.87475" lon="4.66149">
        <ele>335</ele>
        <time>2020-07-04T13:51:25.474Z</time>
      </trkpt>
      <trkpt lat="45.87475" lon="4.66149">
        <ele>335</ele>
        <time>2020-07-04T13:51:30.164Z</time>
      </trkpt>
      <trkpt lat="45.87476" lon="4.66145">
        <ele>334.8</ele>
        <time>2020-07-04T13:51:34.855Z</time>
      </trkpt>
      <trkpt lat="45.87479" lon="4.66124">
        <ele>333</ele>
        <time>2020-07-04T13:51:39.555Z</time>
      </trkpt>
      <trkpt lat="45.87487" lon="4.66089">
        <ele>330.6</ele>
        <time>2020-07-04T13:51:44.271Z</time>
      </trkpt>
      <trkpt lat="45.87488" lon="4.66081">
        <ele>329.9</ele>
        <time>2020-07-04T13:51:48.990Z</time>
      </trkpt>
      <trkpt lat="45.87493" lon="4.6606">
        <ele>328.5</ele>
        <time>2020-07-04T13:51:53.719Z</time>
      </trkpt>
      <trkpt lat="45.87495" lon="4.66054">
        <ele>327.9</ele>
        <time>2020-07-04T13:51:58.451Z</time>
      </trkpt>
      <trkpt lat="45.875" lon="4.66042">
        <ele>326.5</ele>
        <time>2020-07-04T13:52:03.189Z</time>
      </trkpt>
      <trkpt lat="45.87505" lon="4.6603">
        <ele>325.5</ele>
        <time>2020-07-04T13:52:07.932Z</time>
      </trkpt>
      <trkpt lat="45.87511" lon="4.66013">
        <ele>324.6</ele>
        <time>2020-07-04T13:52:12.683Z</time>
      </trkpt>
      <trkpt lat="45.87515" lon="4.66004">
        <ele>324.2</ele>
        <time>2020-07-04T13:52:17.439Z</time>
      </trkpt>
      <trkpt lat="45.87519" lon="4.65999">
        <ele>324.1</ele>
        <time>2020-07-04T13:52:22.198Z</time>
      </trkpt>
      <trkpt lat="45.87524" lon="4.65998">
        <ele>324.1</ele>
        <time>2020-07-04T13:52:26.960Z</time>
      </trkpt>
      <trkpt lat="45.87529" lon="4.65998">
        <ele>324.2</ele>
        <time>2020-07-04T13:52:31.725Z</time>
      </trkpt>
      <trkpt lat="45.87542" lon="4.65999">
        <ele>324.7</ele>
        <time>2020-07-04T13:52:36.498Z</time>
      </trkpt>
      <trkpt lat="45.87555" lon="4.65999">
        <ele>325</ele>
        <time>2020-07-04T13:52:41.279Z</time>
      </trkpt>
      <trkpt lat="45.87566" lon="4.65997">
        <ele>325.3</ele>
        <time>2020-07-04T13:52:46.067Z</time>
      </trkpt>
      <trkpt lat="45.87577" lon="4.65996">
        <ele>325.7</ele>
        <time>2020-07-04T13:52:50.861Z</time>
      </trkpt>
      <trkpt lat="45.8758" lon="4.65996">
        <ele>325.8</ele>
        <time>2020-07-04T13:52:55.657Z</time>
      </trkpt>
      <trkpt lat="45.87587" lon="4.65996">
        <ele>326.2</ele>
        <time>2020-07-04T13:53:00.457Z</time>
      </trkpt>
      <trkpt lat="45.87601" lon="4.65996">
        <ele>326.8</ele>
        <time>2020-07-04T13:53:05.266Z</time>
      </trkpt>
      <trkpt lat="45.87607" lon="4.65996">
        <ele>327</ele>
        <time>2020-07-04T13:53:10.078Z</time>
      </trkpt>
      <trkpt lat="45.87619" lon="4.65997">
        <ele>327.6</ele>
        <time>2020-07-04T13:53:14.897Z</time>
      </trkpt>
      <trkpt lat="45.87631" lon="4.65995">
        <ele>327.8</ele>
        <time>2020-07-04T13:53:19.724Z</time>
      </trkpt>
      <trkpt lat="45.87642" lon="4.65996">
        <ele>328.2</ele>
        <time>2020-07-04T13:53:24.557Z</time>
      </trkpt>
      <trkpt lat="45.87648" lon="4.65997">
        <ele>328.4</ele>
        <time>2020-07-04T13:53:29.394Z</time>
      </trkpt>
      <trkpt lat="45.87657" lon="4.65996">
        <ele>328.4</ele>
        <time>2020-07-04T13:53:34.236Z</time>
      </trkpt>
      <trkpt lat="45.87671" lon="4.65998">
        <ele>328.8</ele>
        <time>2020-07-04T13:53:39.087Z</time>
      </trkpt>
      <trkpt lat="45.8768" lon="4.65997">
        <ele>328.8</ele>
        <time>2020-07-04T13:53:43.944Z</time>
      </trkpt>
      <trkpt lat="45.87684" lon="4.66001">
        <ele>329.3</ele>
        <time>2020-07-04T13:53:48.803Z</time>
      </trkpt>
      <trkpt lat="45.87686" lon="4.66003">
        <ele>329.6</ele>
        <time>2020-07-04T13:53:53.664Z</time>
      </trkpt>
      <trkpt lat="45.87689" lon="4.66005">
        <ele>329.9</ele>
        <time>2020-07-04T13:53:58.527Z</time>
      </trkpt>
      <trkpt lat="45.87693" lon="4.66005">
        <ele>330</ele>
        <time>2020-07-04T13:54:03.392Z</time>
      </trkpt>
      <trkpt lat="45.87699" lon="4.66004">
        <ele>330.5</ele>
        <time>2020-07-04T13:54:08.261Z</time>
      </trkpt>
      <trkpt lat="45.87707" lon="4.66004">
        <ele>331.3</ele>
        <time>2020-07-04T13:54:13.134Z</time>
      </trkpt>
      <trkpt lat="45.87722" lon="4.66009">
        <ele>332.9</ele>
        <time>2020-07-04T13:54:18.017Z</time>
      </trkpt>
      <trkpt lat="45.87735" lon="4.66015">
        <ele>333.7</ele>
        <time>2020-07-04T13:54:22.908Z</time>
      </trkpt>
      <trkpt lat="45.87737" lon="4.66006">
        <ele>333.4</ele>
        <time>2020-07-04T13:54:27.803Z</time>
      </trkpt>
      <trkpt lat="45.87738" lon="4.66003">
        <ele>333.4</ele>
        <time>2020-07-04T13:54:32.699Z</time>
      </trkpt>
      <trkpt lat="45.87739" lon="4.65983">
        <ele>332.7</ele>
        <time>2020-07-04T13:54:37.604Z</time>
      </trkpt>
      <trkpt lat="45.8774" lon="4.65961">
        <ele>332.2</ele>
        <time>2020-07-04T13:54:42.518Z</time>
      </trkpt>
      <trkpt lat="45.8774" lon="4.65951">
        <ele>332.4</ele>
        <time>2020-07-04T13:54:47.436Z</time>
      </trkpt>
      <trkpt lat="45.87741" lon="4.6594">
        <ele>334</ele>
        <time>2020-07-04T13:54:52.359Z</time>
      </trkpt>
      <trkpt lat="45.87741" lon="4.65912">
        <ele>337.7</ele>
        <time>2020-07-04T13:54:57.294Z</time>
      </trkpt>
      <trkpt lat="45.87742" lon="4.65895">
        <ele>340</ele>
        <time>2020-07-04T13:55:02.236Z</time>
      </trkpt>
      <trkpt lat="45.87741" lon="4.65868">
        <ele>343.3</ele>
        <time>2020-07-04T13:55:07.189Z</time>
      </trkpt>
      <trkpt lat="45.87742" lon="4.65848">
        <ele>346.5</ele>
        <time>2020-07-04T13:55:12.151Z</time>
      </trkpt>
      <trkpt lat="45.87741" lon="4.65844">
        <ele>347</ele>
        <time>2020-07-04T13:55:17.115Z</time>
      </trkpt>
      <trkpt lat="45.8774" lon="4.65832">
        <ele>348.8</ele>
        <time>2020-07-04T13:55:22.084Z</time>
      </trkpt>
      <trkpt lat="45.8774" lon="4.6583">
        <ele>349.2</ele>
        <time>2020-07-04T13:55:27.054Z</time>
      </trkpt>
      <trkpt lat="45.8774" lon="4.65828">
        <ele>349.5</ele>
        <time>2020-07-04T13:55:32.024Z</time>
      </trkpt>
      <trkpt lat="45.87743" lon="4.65823">
        <ele>350.4</ele>
        <time>2020-07-04T13:55:36.997Z</time>
      </trkpt>
      <trkpt lat="45.87747" lon="4.65818">
        <ele>351.4</ele>
        <time>2020-07-04T13:55:41.973Z</time>
      </trkpt>
      <trkpt lat="45.87749" lon="4.65817">
        <ele>351.7</ele>
        <time>2020-07-04T13:55:46.951Z</time>
      </trkpt>
      <trkpt lat="45.87755" lon="4.65814">
        <ele>352.5</ele>
        <time>2020-07-04T13:55:51.932Z</time>
      </trkpt>
      <trkpt lat="45.87757" lon="4.65814">
        <ele>352.6</ele>
        <time>2020-07-04T13:55:56.915Z</time>
      </trkpt>
      <trkpt lat="45.87762" lon="4.65812">
        <ele>353.1</ele>
        <time>2020-07-04T13:56:01.901Z</time>
      </trkpt>
      <trkpt lat="45.87763" lon="4.65811">
        <ele>353.3</ele>
        <time>2020-07-04T13:56:06.888Z</time>
      </trkpt>
      <trkpt lat="45.87772" lon="4.65811">
        <ele>353.7</ele>
        <time>2020-07-04T13:56:11.880Z</time>
      </trkpt>
      <trkpt lat="45.87775" lon="4.65809">
        <ele>354.2</ele>
        <time>2020-07-04T13:56:16.874Z</time>
      </trkpt>
      <trkpt lat="45.87776" lon="4.65804">
        <ele>354.9</ele>
        <time>2020-07-04T13:56:21.870Z</time>
      </trkpt>
      <trkpt lat="45.87774" lon="4.658">
        <ele>355.4</ele>
        <time>2020-07-04T13:56:26.868Z</time>
      </trkpt>
      <trkpt lat="45.87773" lon="4.65799">
        <ele>355.5</ele>
        <time>2020-07-04T13:56:31.867Z</time>
      </trkpt>
      <trkpt lat="45.87772" lon="4.65799">
        <ele>355.5</ele>
        <time>2020-07-04T13:56:36.866Z</time>
      </trkpt>
      <trkpt lat="45.87768" lon="4.65796">
        <ele>355.7</ele>
        <time>2020-07-04T13:56:41.868Z</time>
      </trkpt>
      <trkpt lat="45.87764" lon="4.65793">
        <ele>356</ele>
        <time>2020-07-04T13:56:46.873Z</time>
      </trkpt>
      <trkpt lat="45.87763" lon="4.65791">
        <ele>356.2</ele>
        <time>2020-07-04T13:56:51.879Z</time>
      </trkpt>
      <trkpt lat="45.87757" lon="4.65785">
        <ele>356.6</ele>
        <time>2020-07-04T13:56:56.889Z</time>
      </trkpt>
      <trkpt lat="45.87756" lon="4.65784">
        <ele>356.5</ele>
        <time>2020-07-04T13:57:01.900Z</time>
      </trkpt>
      <trkpt lat="45.87751" lon="4.65779">
        <ele>356</ele>
        <time>2020-07-04T13:57:06.915Z</time>
      </trkpt>
      <trkpt lat="45.8775" lon="4.65777">
        <ele>355.9</ele>
        <time>2020-07-04T13:57:11.930Z</time>
      </trkpt>
      <trkpt lat="45.87746" lon="4.65771">
        <ele>355.4</ele>
        <time>2020-07-04T13:57:16.949Z</time>
      </trkpt>
      <trkpt lat="45.87743" lon="4.65768">
        <ele>355.1</ele>
        <time>2020-07-04T13:57:21.970Z</time>
      </trkpt>
      <trkpt lat="45.87741" lon="4.65764">
        <ele>354.8</ele>
        <time>2020-07-04T13:57:26.993Z</time>
      </trkpt>
      <trkpt lat="45.87735" lon="4.65758">
        <ele>354.2</ele>
        <time>2020-07-04T13:57:32.021Z</time>
      </trkpt>
      <trkpt lat="45.87734" lon="4.65757">
        <ele>354.1</ele>
        <time>2020-07-04T13:57:37.049Z</time>
      </trkpt>
      <trkpt lat="45.87729" lon="4.65751">
        <ele>353.6</ele>
        <time>2020-07-04T13:57:42.082Z</time>
      </trkpt>
      <trkpt lat="45.87726" lon="4.65748">
        <ele>353.3</ele>
        <time>2020-07-04T13:57:47.117Z</time>
      </trkpt>
      <trkpt lat="45.87722" lon="4.6574">
        <ele>352.5</ele>
        <time>2020-07-04T13:57:52.156Z</time>
      </trkpt>
      <trkpt lat="45.87722" lon="4.65738">
        <ele>352.4</ele>
        <time>2020-07-04T13:57:57.196Z</time>
      </trkpt>
      <trkpt lat="45.87719" lon="4.65731">
        <ele>351.2</ele>
        <time>2020-07-04T13:58:02.239Z</time>
      </trkpt>
      <trkpt lat="45.8772" lon="4.65728">
        <ele>351.4</ele>
        <time>2020-07-04T13:58:07.283Z</time>
      </trkpt>
      <trkpt lat="45.87722" lon="4.65725">
        <ele>351.8</ele>
        <time>2020-07-04T13:58:12.329Z</time>
      </trkpt>
      <trkpt lat="45.87722" lon="4.65724">
        <ele>351.7</ele>
        <time>2020-07-04T13:58:17.376Z</time>
      </trkpt>
      <trkpt lat="45.87722" lon="4.6572">
        <ele>351.5</ele>
        <time>2020-07-04T13:58:22.424Z</time>
      </trkpt>
      <trkpt lat="45.87724" lon="4.65718">
        <ele>351.8</ele>
        <time>2020-07-04T13:58:27.474Z</time>
      </trkpt>
      <trkpt lat="45.87724" lon="4.65716">
        <ele>351.7</ele>
        <time>2020-07-04T13:58:32.524Z</time>
      </trkpt>
      <trkpt lat="45.87726" lon="4.65713">
        <ele>351.6</ele>
        <time>2020-07-04T13:58:37.576Z</time>
      </trkpt>
      <trkpt lat="45.8773" lon="4.65706">
        <ele>351.5</ele>
        <time>2020-07-04T13:58:42.632Z</time>
      </trkpt>
      <trkpt lat="45.87732" lon="4.65703">
        <ele>351.3</ele>
        <time>2020-07-04T13:58:47.689Z</time>
      </trkpt>
      <trkpt lat="45.87733" lon="4.65702">
        <ele>351.2</ele>
        <time>2020-07-04T13:58:52.747Z</time>
      </trkpt>
      <trkpt lat="45.87739" lon="4.65694">
        <ele>349.4</ele>
        <time>2020-07-04T13:58:57.810Z</time>
      </trkpt>
      <trkpt lat="45.87747" lon="4.65684">
        <ele>347.2</ele>
        <time>2020-07-04T13:59:02.880Z</time>
      </trkpt>
      <trkpt lat="45.87759" lon="4.65674">
        <ele>345.1</ele>
        <time>2020-07-04T13:59:07.958Z</time>
      </trkpt>
      <trkpt lat="45.87772" lon="4.65671">
        <ele>344.8</ele>
        <time>2020-07-04T13:59:13.044Z</time>
      </trkpt>
      <trkpt lat="45.8778" lon="4.65671">
        <ele>345.1</ele>
        <time>2020-07-04T13:59:18.135Z</time>
      </trkpt>
      <trkpt lat="45.87791" lon="4.65672">
        <ele>345.7</ele>
        <time>2020-07-04T13:59:23.232Z</time>
      </trkpt>
      <trkpt lat="45.87795" lon="4.65672">
        <ele>345.9</ele>
        <time>2020-07-04T13:59:28.332Z</time>
      </trkpt>
      <trkpt lat="45.87805" lon="4.65673">
        <ele>346.5</ele>
        <time>2020-07-04T13:59:33.438Z</time>
      </trkpt>
      <trkpt lat="45.87819" lon="4.65673">
        <ele>346.4</ele>
        <time>2020-07-04T13:59:38.552Z</time>
      </trkpt>
      <trkpt lat="45.87833" lon="4.65675">
        <ele>346.7</ele>
        <time>2020-07-04T13:59:43.675Z</time>
      </trkpt>
      <trkpt lat="45.87846" lon="4.65675">
        <ele>346.6</ele>
        <time>2020-07-04T13:59:48.805Z</time>
      </trkpt>
      <trkpt lat="45.87861" lon="4.65677">
        <ele>346.9</ele>
        <time>2020-07-04T13:59:53.945Z</time>
      </trkpt>
      <trkpt lat="45.87876" lon="4.65679">
        <ele>347.9</ele>
        <time>2020-07-04T13:59:59.094Z</time>
      </trkpt>
      <trkpt lat="45.87891" lon="4.65684">
        <ele>349.6</ele>
        <time>2020-07-04T14:00:04.252Z</time>
      </trkpt>
      <trkpt lat="45.87907" lon="4.65688">
        <ele>349.7</ele>
        <time>2020-07-04T14:00:09.420Z</time>
      </trkpt>
      <trkpt lat="45.87912" lon="4.65689">
        <ele>349.7</ele>
        <time>2020-07-04T14:00:14.591Z</time>
      </trkpt>
      <trkpt lat="45.87916" lon="4.65692">
        <ele>350.1</ele>
        <time>2020-07-04T14:00:19.765Z</time>
      </trkpt>
      <trkpt lat="45.87933" lon="4.65702">
        <ele>351.3</ele>
        <time>2020-07-04T14:00:24.950Z</time>
      </trkpt>
      <trkpt lat="45.87938" lon="4.65707">
        <ele>351.5</ele>
        <time>2020-07-04T14:00:30.138Z</time>
      </trkpt>
      <trkpt lat="45.87952" lon="4.65715">
        <ele>351.4</ele>
        <time>2020-07-04T14:00:35.335Z</time>
      </trkpt>
      <trkpt lat="45.87962" lon="4.65723">
        <ele>351.4</ele>
        <time>2020-07-04T14:00:40.539Z</time>
      </trkpt>
      <trkpt lat="45.8797" lon="4.65728">
        <ele>351.3</ele>
        <time>2020-07-04T14:00:45.748Z</time>
      </trkpt>
      <trkpt lat="45.87973" lon="4.6573">
        <ele>351.3</ele>
        <time>2020-07-04T14:00:50.959Z</time>
      </trkpt>
      <trkpt lat="45.87981" lon="4.6574">
        <ele>350.8</ele>
        <time>2020-07-04T14:00:56.177Z</time>
      </trkpt>
      <trkpt lat="45.87982" lon="4.65754">
        <ele>351.4</ele>
        <time>2020-07-04T14:01:01.401Z</time>
      </trkpt>
      <trkpt lat="45.87988" lon="4.65763">
        <ele>351.1</ele>
        <time>2020-07-04T14:01:06.630Z</time>
      </trkpt>
      <trkpt lat="45.87996" lon="4.65765">
        <ele>350.2</ele>
        <time>2020-07-04T14:01:11.864Z</time>
      </trkpt>
      <trkpt lat="45.87996" lon="4.65766">
        <ele>350.3</ele>
        <time>2020-07-04T14:01:17.098Z</time>
      </trkpt>
      <trkpt lat="45.87996" lon="4.65766">
        <ele>350.3</ele>
        <time>2020-07-04T14:01:22.332Z</time>
      </trkpt>
      <trkpt lat="45.87997" lon="4.65768">
        <ele>350.3</ele>
        <time>2020-07-04T14:01:27.567Z</time>
      </trkpt>
      <trkpt lat="45.87996" lon="4.65769">
        <ele>350.4</ele>
        <time>2020-07-04T14:01:32.803Z</time>
      </trkpt>
      <trkpt lat="45.88" lon="4.65765">
        <ele>349.8</ele>
        <time>2020-07-04T14:01:38.041Z</time>
      </trkpt>
      <trkpt lat="45.88008" lon="4.65758">
        <ele>348.5</ele>
        <time>2020-07-04T14:01:43.285Z</time>
      </trkpt>
      <trkpt lat="45.88009" lon="4.65755">
        <ele>348.2</ele>
        <time>2020-07-04T14:01:48.531Z</time>
      </trkpt>
      <trkpt lat="45.8801" lon="4.65754">
        <ele>348</ele>
        <time>2020-07-04T14:01:53.777Z</time>
      </trkpt>
      <trkpt lat="45.8801" lon="4.65754">
        <ele>348</ele>
        <time>2020-07-04T14:01:59.023Z</time>
      </trkpt>
      <trkpt lat="45.88011" lon="4.65753">
        <ele>347.9</ele>
        <time>2020-07-04T14:02:04.270Z</time>
      </trkpt>
      <trkpt lat="45.88013" lon="4.6575">
        <ele>347.5</ele>
        <time>2020-07-04T14:02:09.519Z</time>
      </trkpt>
      <trkpt lat="45.88014" lon="4.6575">
        <ele>347.4</ele>
        <time>2020-07-04T14:02:14.769Z</time>
      </trkpt>
      <trkpt lat="45.88017" lon="4.65751">
        <ele>347</ele>
        <time>2020-07-04T14:02:20.020Z</time>
      </trkpt>
      <trkpt lat="45.88018" lon="4.6575">
        <ele>346.9</ele>
        <time>2020-07-04T14:02:25.272Z</time>
      </trkpt>
      <trkpt lat="45.88018" lon="4.6575">
        <ele>346.9</ele>
        <time>2020-07-04T14:02:30.524Z</time>
      </trkpt>
      <trkpt lat="45.88018" lon="4.65749">
        <ele>346.8</ele>
        <time>2020-07-04T14:02:35.777Z</time>
      </trkpt>
      <trkpt lat="45.88018" lon="4.65749">
        <ele>346.8</ele>
        <time>2020-07-04T14:02:41.030Z</time>
      </trkpt>
      <trkpt lat="45.88018" lon="4.65749">
        <ele>346.8</ele>
        <time>2020-07-04T14:02:46.283Z</time>
      </trkpt>
      <trkpt lat="45.88018" lon="4.6575">
        <ele>346.9</ele>
        <time>2020-07-04T14:02:51.536Z</time>
      </trkpt>
      <trkpt lat="45.88018" lon="4.65749">
        <ele>346.8</ele>
        <time>2020-07-04T14:02:56.789Z</time>
      </trkpt>
      <trkpt lat="45.88018" lon="4.65749">
        <ele>346.8</ele>
        <time>2020-07-04T14:03:02.042Z</time>
      </trkpt>
      <trkpt lat="45.88019" lon="4.65748">
        <ele>346.7</ele>
        <time>2020-07-04T14:03:07.296Z</time>
      </trkpt>
      <trkpt lat="45.88019" lon="4.65748">
        <ele>346.7</ele>
        <time>2020-07-04T14:03:12.550Z</time>
      </trkpt>
      <trkpt lat="45.88018" lon="4.65748">
        <ele>346.8</ele>
        <time>2020-07-04T14:03:17.804Z</time>
      </trkpt>
      <trkpt lat="45.88018" lon="4.65747">
        <ele>346.7</ele>
        <time>2020-07-04T14:03:23.058Z</time>
      </trkpt>
      <trkpt lat="45.88017" lon="4.65747">
        <ele>346.9</ele>
        <time>2020-07-04T14:03:28.313Z</time>
      </trkpt>
      <trkpt lat="45.88017" lon="4.65747">
        <ele>346.9</ele>
        <time>2020-07-04T14:03:33.568Z</time>
      </trkpt>
      <trkpt lat="45.88016" lon="4.65747">
        <ele>347</ele>
        <time>2020-07-04T14:03:38.824Z</time>
      </trkpt>
      <trkpt lat="45.88016" lon="4.65747">
        <ele>347</ele>
        <time>2020-07-04T14:03:44.080Z</time>
      </trkpt>
      <trkpt lat="45.88015" lon="4.65747">
        <ele>347.1</ele>
        <time>2020-07-04T14:03:49.336Z</time>
      </trkpt>
      <trkpt lat="45.88015" lon="4.65748">
        <ele>347.1</ele>
        <time>2020-07-04T14:03:54.592Z</time>
      </trkpt>
      <trkpt lat="45.88015" lon="4.65748">
        <ele>347.1</ele>
        <time>2020-07-04T14:03:59.849Z</time>
      </trkpt>
      <trkpt lat="45.88015" lon="4.65747">
        <ele>347.1</ele>
        <time>2020-07-04T14:04:05.106Z</time>
      </trkpt>
      <trkpt lat="45.88014" lon="4.65746">
        <ele>347.2</ele>
        <time>2020-07-04T14:04:10.363Z</time>
      </trkpt>
      <trkpt lat="45.88014" lon="4.65745">
        <ele>347.1</ele>
        <time>2020-07-04T14:04:15.621Z</time>
      </trkpt>
      <trkpt lat="45.88014" lon="4.65745">
        <ele>347.1</ele>
        <time>2020-07-04T14:04:20.879Z</time>
      </trkpt>
      <trkpt lat="45.88014" lon="4.65746">
        <ele>347.2</ele>
        <time>2020-07-04T14:04:26.137Z</time>
      </trkpt>
      <trkpt lat="45.88013" lon="4.65745">
        <ele>347.2</ele>
        <time>2020-07-04T14:04:31.396Z</time>
      </trkpt>
      <trkpt lat="45.88013" lon="4.65745">
        <ele>347.2</ele>
        <time>2020-07-04T14:04:36.655Z</time>
      </trkpt>
      <trkpt lat="45.88013" lon="4.65745">
        <ele>347.2</ele>
        <time>2020-07-04T14:04:41.914Z</time>
      </trkpt>
      <trkpt lat="45.88013" lon="4.65745">
        <ele>347.2</ele>
        <time>2020-07-04T14:04:47.173Z</time>
      </trkpt>
      <trkpt lat="45.88013" lon="4.65745">
        <ele>347.2</ele>
        <time>2020-07-04T14:04:52.432Z</time>
      </trkpt>
      <trkpt lat="45.88013" lon="4.65744">
        <ele>347.2</ele>
        <time>2020-07-04T14:04:57.691Z</time>
      </trkpt>
      <trkpt lat="45.88013" lon="4.65743">
        <ele>347.1</ele>
        <time>2020-07-04T14:05:02.951Z</time>
      </trkpt>
      <trkpt lat="45.88012" lon="4.65741">
        <ele>347.2</ele>
        <time>2020-07-04T14:05:08.212Z</time>
      </trkpt>
      <trkpt lat="45.88012" lon="4.65741">
        <ele>347.2</ele>
        <time>2020-07-04T14:05:13.473Z</time>
      </trkpt>
      <trkpt lat="45.88011" lon="4.65741">
        <ele>347.3</ele>
        <time>2020-07-04T14:05:18.734Z</time>
      </trkpt>
      <trkpt lat="45.88012" lon="4.6574">
        <ele>347.2</ele>
        <time>2020-07-04T14:05:23.995Z</time>
      </trkpt>
      <trkpt lat="45.88012" lon="4.6574">
        <ele>347.2</ele>
        <time>2020-07-04T14:05:29.257Z</time>
      </trkpt>
      <trkpt lat="45.88018" lon="4.65731">
        <ele>346.4</ele>
        <time>2020-07-04T14:05:34.524Z</time>
      </trkpt>
      <trkpt lat="45.88028" lon="4.65718">
        <ele>345.1</ele>
        <time>2020-07-04T14:05:39.799Z</time>
      </trkpt>
      <trkpt lat="45.88047" lon="4.65692">
        <ele>341.7</ele>
        <time>2020-07-04T14:05:45.090Z</time>
      </trkpt>
      <trkpt lat="45.8805" lon="4.65685">
        <ele>341.2</ele>
        <time>2020-07-04T14:05:50.384Z</time>
      </trkpt>
      <trkpt lat="45.88053" lon="4.65679">
        <ele>340.7</ele>
        <time>2020-07-04T14:05:55.681Z</time>
      </trkpt>
      <trkpt lat="45.88058" lon="4.65667">
        <ele>339.5</ele>
        <time>2020-07-04T14:06:00.984Z</time>
      </trkpt>
      <trkpt lat="45.88059" lon="4.65659">
        <ele>338.8</ele>
        <time>2020-07-04T14:06:06.291Z</time>
      </trkpt>
      <trkpt lat="45.8806" lon="4.65653">
        <ele>338.3</ele>
        <time>2020-07-04T14:06:11.601Z</time>
      </trkpt>
      <trkpt lat="45.8806" lon="4.65648">
        <ele>338</ele>
        <time>2020-07-04T14:06:16.912Z</time>
      </trkpt>
      <trkpt lat="45.88059" lon="4.65647">
        <ele>338.1</ele>
        <time>2020-07-04T14:06:22.224Z</time>
      </trkpt>
      <trkpt lat="45.88056" lon="4.65645">
        <ele>338.6</ele>
        <time>2020-07-04T14:06:27.538Z</time>
      </trkpt>
      <trkpt lat="45.88053" lon="4.65644">
        <ele>338.6</ele>
        <time>2020-07-04T14:06:32.854Z</time>
      </trkpt>
      <trkpt lat="45.88044" lon="4.6564">
        <ele>338.7</ele>
        <time>2020-07-04T14:06:38.175Z</time>
      </trkpt>
      <trkpt lat="45.88043" lon="4.6564">
        <ele>338.7</ele>
        <time>2020-07-04T14:06:43.497Z</time>
      </trkpt>
      <trkpt lat="45.88039" lon="4.65639">
        <ele>338.8</ele>
        <time>2020-07-04T14:06:48.821Z</time>
      </trkpt>
      <trkpt lat="45.88036" lon="4.65639">
        <ele>338.9</ele>
        <time>2020-07-04T14:06:54.147Z</time>
      </trkpt>
      <trkpt lat="45.88034" lon="4.65638">
        <ele>338.9</ele>
        <time>2020-07-04T14:06:59.475Z</time>
      </trkpt>
      <trkpt lat="45.88026" lon="4.65638">
        <ele>339.2</ele>
        <time>2020-07-04T14:07:04.807Z</time>
      </trkpt>
      <trkpt lat="45.88025" lon="4.65638">
        <ele>339.3</ele>
        <time>2020-07-04T14:07:10.140Z</time>
      </trkpt>
      <trkpt lat="45.88022" lon="4.65637">
        <ele>339.3</ele>
        <time>2020-07-04T14:07:15.475Z</time>
      </trkpt>
      <trkpt lat="45.88019" lon="4.65637">
        <ele>339.4</ele>
        <time>2020-07-04T14:07:20.812Z</time>
      </trkpt>
      <trkpt lat="45.88018" lon="4.65637">
        <ele>339.4</ele>
        <time>2020-07-04T14:07:26.149Z</time>
      </trkpt>
      <trkpt lat="45.88012" lon="4.65636">
        <ele>339.6</ele>
        <time>2020-07-04T14:07:31.490Z</time>
      </trkpt>
      <trkpt lat="45.88008" lon="4.65636">
        <ele>339.7</ele>
        <time>2020-07-04T14:07:36.833Z</time>
      </trkpt>
      <trkpt lat="45.88002" lon="4.65636">
        <ele>340</ele>
        <time>2020-07-04T14:07:42.180Z</time>
      </trkpt>
      <trkpt lat="45.87998" lon="4.65636">
        <ele>340.1</ele>
        <time>2020-07-04T14:07:47.530Z</time>
      </trkpt>
      <trkpt lat="45.87985" lon="4.65636">
        <ele>340.9</ele>
        <time>2020-07-04T14:07:52.887Z</time>
      </trkpt>
      <trkpt lat="45.87983" lon="4.65636">
        <ele>341.1</ele>
        <time>2020-07-04T14:07:58.245Z</time>
      </trkpt>
      <trkpt lat="45.87976" lon="4.65634">
        <ele>341.5</ele>
        <time>2020-07-04T14:08:03.608Z</time>
      </trkpt>
      <trkpt lat="45.87961" lon="4.65635">
        <ele>341.6</ele>
        <time>2020-07-04T14:08:08.980Z</time>
      </trkpt>
      <trkpt lat="45.87959" lon="4.65635">
        <ele>341.6</ele>
        <time>2020-07-04T14:08:14.353Z</time>
      </trkpt>
      <trkpt lat="45.87953" lon="4.65636">
        <ele>341.5</ele>
        <time>2020-07-04T14:08:19.730Z</time>
      </trkpt>
      <trkpt lat="45.87943" lon="4.65634">
        <ele>341</ele>
        <time>2020-07-04T14:08:25.113Z</time>
      </trkpt>
      <trkpt lat="45.8793" lon="4.65634">
        <ele>340.7</ele>
        <time>2020-07-04T14:08:30.504Z</time>
      </trkpt>
      <trkpt lat="45.87928" lon="4.65634">
        <ele>340.7</ele>
        <time>2020-07-04T14:08:35.896Z</time>
      </trkpt>
      <trkpt lat="45.87911" lon="4.65634">
        <ele>340.3</ele>
        <time>2020-07-04T14:08:41.298Z</time>
      </trkpt>
      <trkpt lat="45.87897" lon="4.65634">
        <ele>340.4</ele>
        <time>2020-07-04T14:08:46.709Z</time>
      </trkpt>
      <trkpt lat="45.87895" lon="4.65635">
        <ele>340.6</ele>
        <time>2020-07-04T14:08:52.121Z</time>
      </trkpt>
      <trkpt lat="45.87881" lon="4.65635">
        <ele>340.3</ele>
        <time>2020-07-04T14:08:57.541Z</time>
      </trkpt>
      <trkpt lat="45.87862" lon="4.65637">
        <ele>339.5</ele>
        <time>2020-07-04T14:09:02.973Z</time>
      </trkpt>
      <trkpt lat="45.87856" lon="4.65637">
        <ele>339.2</ele>
        <time>2020-07-04T14:09:08.409Z</time>
      </trkpt>
      <trkpt lat="45.87852" lon="4.65636">
        <ele>338.8</ele>
        <time>2020-07-04T14:09:13.847Z</time>
      </trkpt>
      <trkpt lat="45.87839" lon="4.65636">
        <ele>338</ele>
        <time>2020-07-04T14:09:19.293Z</time>
      </trkpt>
      <trkpt lat="45.87824" lon="4.65636">
        <ele>337.1</ele>
        <time>2020-07-04T14:09:24.747Z</time>
      </trkpt>
      <trkpt lat="45.87809" lon="4.65636">
        <ele>337.2</ele>
        <time>2020-07-04T14:09:30.211Z</time>
      </trkpt>
      <trkpt lat="45.878" lon="4.65637">
        <ele>337.2</ele>
        <time>2020-07-04T14:09:35.680Z</time>
      </trkpt>
      <trkpt lat="45.87792" lon="4.65637">
        <ele>337</ele>
        <time>2020-07-04T14:09:41.154Z</time>
      </trkpt>
      <trkpt lat="45.87786" lon="4.65638">
        <ele>337</ele>
        <time>2020-07-04T14:09:46.632Z</time>
      </trkpt>
      <trkpt lat="45.87772" lon="4.65638">
        <ele>336.5</ele>
        <time>2020-07-04T14:09:52.118Z</time>
      </trkpt>
      <trkpt lat="45.87758" lon="4.65637">
        <ele>335.7</ele>
        <time>2020-07-04T14:09:57.612Z</time>
      </trkpt>
      <trkpt lat="45.87752" lon="4.65636">
        <ele>335.3</ele>
        <time>2020-07-04T14:10:03.110Z</time>
      </trkpt>
      <trkpt lat="45.87747" lon="4.65636">
        <ele>335.1</ele>
        <time>2020-07-04T14:10:08.611Z</time>
      </trkpt>
      <trkpt lat="45.87744" lon="4.65638">
        <ele>335.5</ele>
        <time>2020-07-04T14:10:14.114Z</time>
      </trkpt>
      <trkpt lat="45.87744" lon="4.6564">
        <ele>336</ele>
        <time>2020-07-04T14:10:19.618Z</time>
      </trkpt>
      <trkpt lat="45.87745" lon="4.6564">
        <ele>336</ele>
        <time>2020-07-04T14:10:25.122Z</time>
      </trkpt>
      <trkpt lat="45.87745" lon="4.6564">
        <ele>336</ele>
        <time>2020-07-04T14:10:30.626Z</time>
      </trkpt>
      <trkpt lat="45.87744" lon="4.6564">
        <ele>336</ele>
        <time>2020-07-04T14:10:36.130Z</time>
      </trkpt>
      <trkpt lat="45.87744" lon="4.65641">
        <ele>336.2</ele>
        <time>2020-07-04T14:10:41.635Z</time>
      </trkpt>
      <trkpt lat="45.87744" lon="4.65641">
        <ele>336.2</ele>
        <time>2020-07-04T14:10:47.140Z</time>
      </trkpt>
      <trkpt lat="45.87744" lon="4.65641">
        <ele>336.2</ele>
        <time>2020-07-04T14:10:52.645Z</time>
      </trkpt>
      <trkpt lat="45.87744" lon="4.65641">
        <ele>336.2</ele>
        <time>2020-07-04T14:10:58.150Z</time>
      </trkpt>
      <trkpt lat="45.87744" lon="4.65641">
        <ele>336.2</ele>
        <time>2020-07-04T14:11:03.655Z</time>
      </trkpt>
      <trkpt lat="45.87744" lon="4.65641">
        <ele>336.2</ele>
        <time>2020-07-04T14:11:09.160Z</time>
      </trkpt>
      <trkpt lat="45.87744" lon="4.6564">
        <ele>336</ele>
        <time>2020-07-04T14:11:14.665Z</time>
      </trkpt>
      <trkpt lat="45.87744" lon="4.6564">
        <ele>336</ele>
        <time>2020-07-04T14:11:20.170Z</time>
      </trkpt>
      <trkpt lat="45.87743" lon="4.6564">
        <ele>335.9</ele>
        <time>2020-07-04T14:11:25.675Z</time>
      </trkpt>
      <trkpt lat="45.87743" lon="4.6564">
        <ele>335.9</ele>
        <time>2020-07-04T14:11:31.180Z</time>
      </trkpt>
      <trkpt lat="45.87743" lon="4.6564">
        <ele>335.9</ele>
        <time>2020-07-04T14:11:36.685Z</time>
      </trkpt>
      <trkpt lat="45.87743" lon="4.6564">
        <ele>335.9</ele>
        <time>2020-07-04T14:11:42.191Z</time>
      </trkpt>
      <trkpt lat="45.87743" lon="4.6564">
        <ele>335.9</ele>
        <time>2020-07-04T14:11:47.697Z</time>
      </trkpt>
      <trkpt lat="45.87743" lon="4.6564">
        <ele>335.9</ele>
        <time>2020-07-04T14:11:53.203Z</time>
      </trkpt>
      <trkpt lat="45.87744" lon="4.6564">
        <ele>336</ele>
        <time>2020-07-04T14:11:58.709Z</time>
      </trkpt>
      <trkpt lat="45.87744" lon="4.6564">
        <ele>336</ele>
        <time>2020-07-04T14:12:04.215Z</time>
      </trkpt>
      <trkpt lat="45.87744" lon="4.6564">
        <ele>336</ele>
        <time>2020-07-04T14:12:09.721Z</time>
      </trkpt>
      <trkpt lat="45.87743" lon="4.6564">
        <ele>335.9</ele>
        <time>2020-07-04T14:12:15.227Z</time>
      </trkpt>
      <trkpt lat="45.87743" lon="4.6564">
        <ele>335.9</ele>
        <time>2020-07-04T14:12:20.733Z</time>
      </trkpt>
      <trkpt lat="45.87743" lon="4.6564">
        <ele>335.9</ele>
        <time>2020-07-04T14:12:26.239Z</time>
      </trkpt>
      <trkpt lat="45.87743" lon="4.6564">
        <ele>335.9</ele>
        <time>2020-07-04T14:12:31.745Z</time>
      </trkpt>
      <trkpt lat="45.87743" lon="4.6564">
        <ele>335.9</ele>
        <time>2020-07-04T14:12:37.252Z</time>
      </trkpt>
      <trkpt lat="45.87743" lon="4.65641">
        <ele>336.2</ele>
        <time>2020-07-04T14:12:42.759Z</time>
      </trkpt>
      <trkpt lat="45.87743" lon="4.65641">
        <ele>336.2</ele>
        <time>2020-07-04T14:12:48.266Z</time>
      </trkpt>
      <trkpt lat="45.87743" lon="4.65641">
        <ele>336.2</ele>
        <time>2020-07-04T14:12:53.773Z</time>
      </trkpt>
      <trkpt lat="45.87743" lon="4.65641">
        <ele>336.2</ele>
        <time>2020-07-04T14:12:59.280Z</time>
      </trkpt>
      <trkpt lat="45.87742" lon="4.65641">
        <ele>336.2</ele>
        <time>2020-07-04T14:13:04.787Z</time>
      </trkpt>
      <trkpt lat="45.87742" lon="4.65641">
        <ele>336.2</ele>
        <time>2020-07-04T14:13:10.294Z</time>
      </trkpt>
      <trkpt lat="45.87742" lon="4.65641">
        <ele>336.2</ele>
        <time>2020-07-04T14:13:15.801Z</time>
      </trkpt>
      <trkpt lat="45.87742" lon="4.65641">
        <ele>336.2</ele>
        <time>2020-07-04T14:13:21.308Z</time>
      </trkpt>
      <trkpt lat="45.87742" lon="4.65641">
        <ele>336.2</ele>
        <time>2020-07-04T14:13:26.816Z</time>
      </trkpt>
      <trkpt lat="45.87741" lon="4.65641">
        <ele>336.1</ele>
        <time>2020-07-04T14:13:32.324Z</time>
      </trkpt>
      <trkpt lat="45.87741" lon="4.65642">
        <ele>336.4</ele>
        <time>2020-07-04T14:13:37.832Z</time>
      </trkpt>
      <trkpt lat="45.8774" lon="4.65642">
        <ele>336.3</ele>
        <time>2020-07-04T14:13:43.341Z</time>
      </trkpt>
      <trkpt lat="45.87739" lon="4.65642">
        <ele>336.3</ele>
        <time>2020-07-04T14:13:48.850Z</time>
      </trkpt>
      <trkpt lat="45.87739" lon="4.65642">
        <ele>336.3</ele>
        <time>2020-07-04T14:13:54.359Z</time>
      </trkpt>
      <trkpt lat="45.87739" lon="4.65642">
        <ele>336.3</ele>
        <time>2020-07-04T14:13:59.868Z</time>
      </trkpt>
      <trkpt lat="45.87739" lon="4.65642">
        <ele>336.3</ele>
        <time>2020-07-04T14:14:05.377Z</time>
      </trkpt>
      <trkpt lat="45.87739" lon="4.65642">
        <ele>336.3</ele>
        <time>2020-07-04T14:14:10.886Z</time>
      </trkpt>
      <trkpt lat="45.87739" lon="4.65642">
        <ele>336.3</ele>
        <time>2020-07-04T14:14:16.396Z</time>
      </trkpt>
      <trkpt lat="45.87739" lon="4.65642">
        <ele>336.3</ele>
        <time>2020-07-04T14:14:21.906Z</time>
      </trkpt>
      <trkpt lat="45.87739" lon="4.65642">
        <ele>336.3</ele>
        <time>2020-07-04T14:14:27.416Z</time>
      </trkpt>
      <trkpt lat="45.8774" lon="4.65642">
        <ele>336.3</ele>
        <time>2020-07-04T14:14:32.926Z</time>
      </trkpt>
      <trkpt lat="45.87737" lon="4.65649">
        <ele>338</ele>
        <time>2020-07-04T14:14:38.440Z</time>
      </trkpt>
      <trkpt lat="45.87736" lon="4.65652">
        <ele>338.7</ele>
        <time>2020-07-04T14:14:43.955Z</time>
      </trkpt>
      <trkpt lat="45.8773" lon="4.65665">
        <ele>341.8</ele>
        <time>2020-07-04T14:14:49.477Z</time>
      </trkpt>
      <trkpt lat="45.87729" lon="4.65667">
        <ele>342.2</ele>
        <time>2020-07-04T14:14:55.000Z</time>
      </trkpt>
      <trkpt lat="45.87725" lon="4.65675">
        <ele>344.1</ele>
        <time>2020-07-04T14:15:00.527Z</time>
      </trkpt>
      <trkpt lat="45.87723" lon="4.6568">
        <ele>345.3</ele>
        <time>2020-07-04T14:15:06.057Z</time>
      </trkpt>
      <trkpt lat="45.87722" lon="4.65683">
        <ele>345.9</ele>
        <time>2020-07-04T14:15:11.588Z</time>
      </trkpt>
      <trkpt lat="45.87717" lon="4.65694">
        <ele>348</ele>
        <time>2020-07-04T14:15:17.124Z</time>
      </trkpt>
      <trkpt lat="45.87714" lon="4.65708">
        <ele>348.7</ele>
        <time>2020-07-04T14:15:22.667Z</time>
      </trkpt>
      <trkpt lat="45.87714" lon="4.65717">
        <ele>349.1</ele>
        <time>2020-07-04T14:15:28.213Z</time>
      </trkpt>
      <trkpt lat="45.87715" lon="4.65724">
        <ele>349.7</ele>
        <time>2020-07-04T14:15:33.762Z</time>
      </trkpt>
      <trkpt lat="45.87717" lon="4.65735">
        <ele>350.8</ele>
        <time>2020-07-04T14:15:39.316Z</time>
      </trkpt>
      <trkpt lat="45.8772" lon="4.6574">
        <ele>351.9</ele>
        <time>2020-07-04T14:15:44.873Z</time>
      </trkpt>
      <trkpt lat="45.87733" lon="4.65757">
        <ele>354.1</ele>
        <time>2020-07-04T14:15:50.441Z</time>
      </trkpt>
      <trkpt lat="45.87737" lon="4.65761">
        <ele>354.5</ele>
        <time>2020-07-04T14:15:56.011Z</time>
      </trkpt>
      <trkpt lat="45.8775" lon="4.65778">
        <ele>355.9</ele>
        <time>2020-07-04T14:16:01.592Z</time>
      </trkpt>
      <trkpt lat="45.87757" lon="4.65785">
        <ele>356.6</ele>
        <time>2020-07-04T14:16:07.178Z</time>
      </trkpt>
      <trkpt lat="45.87765" lon="4.6579">
        <ele>356.4</ele>
        <time>2020-07-04T14:16:12.769Z</time>
      </trkpt>
      <trkpt lat="45.87769" lon="4.65793">
        <ele>356.2</ele>
        <time>2020-07-04T14:16:18.363Z</time>
      </trkpt>
      <trkpt lat="45.87772" lon="4.65796">
        <ele>355.9</ele>
        <time>2020-07-04T14:16:23.959Z</time>
      </trkpt>
      <trkpt lat="45.87777" lon="4.65801">
        <ele>355.4</ele>
        <time>2020-07-04T14:16:29.559Z</time>
      </trkpt>
      <trkpt lat="45.8778" lon="4.65802">
        <ele>355.4</ele>
        <time>2020-07-04T14:16:35.161Z</time>
      </trkpt>
      <trkpt lat="45.87782" lon="4.65803">
        <ele>355.4</ele>
        <time>2020-07-04T14:16:40.764Z</time>
      </trkpt>
      <trkpt lat="45.87785" lon="4.65804">
        <ele>355.4</ele>
        <time>2020-07-04T14:16:46.369Z</time>
      </trkpt>
      <trkpt lat="45.87788" lon="4.65806">
        <ele>355.2</ele>
        <time>2020-07-04T14:16:51.976Z</time>
      </trkpt>
      <trkpt lat="45.878" lon="4.65809">
        <ele>355.4</ele>
        <time>2020-07-04T14:16:57.590Z</time>
      </trkpt>
      <trkpt lat="45.87806" lon="4.6581">
        <ele>355.5</ele>
        <time>2020-07-04T14:17:03.208Z</time>
      </trkpt>
      <trkpt lat="45.87813" lon="4.65813">
        <ele>355.5</ele>
        <time>2020-07-04T14:17:08.830Z</time>
      </trkpt>
      <trkpt lat="45.87828" lon="4.65817">
        <ele>355.8</ele>
        <time>2020-07-04T14:17:14.461Z</time>
      </trkpt>
      <trkpt lat="45.87839" lon="4.65819">
        <ele>356.2</ele>
        <time>2020-07-04T14:17:20.099Z</time>
      </trkpt>
      <trkpt lat="45.87843" lon="4.6582">
        <ele>356.1</ele>
        <time>2020-07-04T14:17:25.740Z</time>
      </trkpt>
      <trkpt lat="45.87849" lon="4.65821">
        <ele>356.1</ele>
        <time>2020-07-04T14:17:31.384Z</time>
      </trkpt>
      <trkpt lat="45.87864" lon="4.65822">
        <ele>356</ele>
        <time>2020-07-04T14:17:37.037Z</time>
      </trkpt>
      <trkpt lat="45.87866" lon="4.65821">
        <ele>356.1</ele>
        <time>2020-07-04T14:17:42.692Z</time>
      </trkpt>
      <trkpt lat="45.87877" lon="4.65818">
        <ele>356.3</ele>
        <time>2020-07-04T14:17:48.353Z</time>
      </trkpt>
      <trkpt lat="45.87883" lon="4.65816">
        <ele>356.5</ele>
        <time>2020-07-04T14:17:54.018Z</time>
      </trkpt>
      <trkpt lat="45.87889" lon="4.65815">
        <ele>356.6</ele>
        <time>2020-07-04T14:17:59.687Z</time>
      </trkpt>
      <trkpt lat="45.87899" lon="4.65812">
        <ele>356</ele>
        <time>2020-07-04T14:18:05.362Z</time>
      </trkpt>
      <trkpt lat="45.87903" lon="4.65812">
        <ele>355.7</ele>
        <time>2020-07-04T14:18:11.039Z</time>
      </trkpt>
      <trkpt lat="45.87916" lon="4.65811">
        <ele>354.7</ele>
        <time>2020-07-04T14:18:16.724Z</time>
      </trkpt>
      <trkpt lat="45.87924" lon="4.6581">
        <ele>354.3</ele>
        <time>2020-07-04T14:18:22.414Z</time>
      </trkpt>
      <trkpt lat="45.87926" lon="4.65809">
        <ele>354.3</ele>
        <time>2020-07-04T14:18:28.105Z</time>
      </trkpt>
      <trkpt lat="45.87936" lon="4.65802">
        <ele>354.5</ele>
        <time>2020-07-04T14:18:33.803Z</time>
      </trkpt>
      <trkpt lat="45.87941" lon="4.65798">
        <ele>354.6</ele>
        <time>2020-07-04T14:18:39.504Z</time>
      </trkpt>
      <trkpt lat="45.87944" lon="4.65795">
        <ele>354.8</ele>
        <time>2020-07-04T14:18:45.208Z</time>
      </trkpt>
      <trkpt lat="45.87945" lon="4.65791">
        <ele>355.1</ele>
        <time>2020-07-04T14:18:50.913Z</time>
      </trkpt>
      <trkpt lat="45.87945" lon="4.65791">
        <ele>355.1</ele>
        <time>2020-07-04T14:18:56.619Z</time>
      </trkpt>
      <trkpt lat="45.87946" lon="4.65791">
        <ele>355.1</ele>
        <time>2020-07-04T14:19:02.325Z</time>
      </trkpt>
      <trkpt lat="45.87946" lon="4.65789">
        <ele>355.3</ele>
        <time>2020-07-04T14:19:08.031Z</time>
      </trkpt>
      <trkpt lat="45.87945" lon="4.65789">
        <ele>355.4</ele>
        <time>2020-07-04T14:19:13.738Z</time>
      </trkpt>
      <trkpt lat="45.87938" lon="4.65785">
        <ele>356</ele>
        <time>2020-07-04T14:19:19.449Z</time>
      </trkpt>
      <trkpt lat="45.87937" lon="4.65783">
        <ele>355.9</ele>
        <time>2020-07-04T14:19:25.161Z</time>
      </trkpt>
      <trkpt lat="45.87936" lon="4.65782">
        <ele>355.9</ele>
        <time>2020-07-04T14:19:30.874Z</time>
      </trkpt>
      <trkpt lat="45.8793" lon="4.65778">
        <ele>356</ele>
        <time>2020-07-04T14:19:36.591Z</time>
      </trkpt>
      <trkpt lat="45.87927" lon="4.65776">
        <ele>356</ele>
        <time>2020-07-04T14:19:42.310Z</time>
      </trkpt>
      <trkpt lat="45.87921" lon="4.65773">
        <ele>356.2</ele>
        <time>2020-07-04T14:19:48.033Z</time>
      </trkpt>
      <trkpt lat="45.8792" lon="4.65772">
        <ele>356.2</ele>
        <time>2020-07-04T14:19:53.757Z</time>
      </trkpt>
      <trkpt lat="45.87918" lon="4.65771">
        <ele>356.2</ele>
        <time>2020-07-04T14:19:59.482Z</time>
      </trkpt>
      <trkpt lat="45.87913" lon="4.6577">
        <ele>356.5</ele>
        <time>2020-07-04T14:20:05.210Z</time>
      </trkpt>
      <trkpt lat="45.87912" lon="4.6577">
        <ele>356.5</ele>
        <time>2020-07-04T14:20:10.938Z</time>
      </trkpt>
      <trkpt lat="45.8791" lon="4.65769">
        <ele>356.6</ele>
        <time>2020-07-04T14:20:16.668Z</time>
      </trkpt>
      <trkpt lat="45.87908" lon="4.65769">
        <ele>356.7</ele>
        <time>2020-07-04T14:20:22.399Z</time>
      </trkpt>
      <trkpt lat="45.87906" lon="4.65769">
        <ele>356.8</ele>
        <time>2020-07-04T14:20:28.131Z</time>
      </trkpt>
      <trkpt lat="45.87897" lon="4.65769">
        <ele>357.3</ele>
        <time>2020-07-04T14:20:33.869Z</time>
      </trkpt>
      <trkpt lat="45.87893" lon="4.6577">
        <ele>357.7</ele>
        <time>2020-07-04T14:20:39.609Z</time>
      </trkpt>
      <trkpt lat="45.87893" lon="4.6577">
        <ele>357.7</ele>
        <time>2020-07-04T14:20:45.349Z</time>
      </trkpt>
      <trkpt lat="45.87893" lon="4.6577">
        <ele>357.7</ele>
        <time>2020-07-04T14:20:51.089Z</time>
      </trkpt>
      <trkpt lat="45.87893" lon="4.6577">
        <ele>357.7</ele>
        <time>2020-07-04T14:20:56.829Z</time>
      </trkpt>
      <trkpt lat="45.87888" lon="4.6577">
        <ele>357.9</ele>
        <time>2020-07-04T14:21:02.572Z</time>
      </trkpt>
      <trkpt lat="45.87878" lon="4.6577">
        <ele>358</ele>
        <time>2020-07-04T14:21:08.321Z</time>
      </trkpt>
      <trkpt lat="45.87869" lon="4.6577">
        <ele>358</ele>
        <time>2020-07-04T14:21:14.076Z</time>
      </trkpt>
      <trkpt lat="45.87859" lon="4.65764">
        <ele>357.7</ele>
        <time>2020-07-04T14:21:19.837Z</time>
      </trkpt>
      <trkpt lat="45.87848" lon="4.65758">
        <ele>357.3</ele>
        <time>2020-07-04T14:21:25.605Z</time>
      </trkpt>
      <trkpt lat="45.87847" lon="4.65757">
        <ele>357.3</ele>
        <time>2020-07-04T14:21:31.374Z</time>
      </trkpt>
      <trkpt lat="45.87839" lon="4.65753">
        <ele>357</ele>
        <time>2020-07-04T14:21:37.148Z</time>
      </trkpt>
      <trkpt lat="45.87838" lon="4.65752">
        <ele>357</ele>
        <time>2020-07-04T14:21:42.923Z</time>
      </trkpt>
      <trkpt lat="45.87833" lon="4.6575">
        <ele>356.8</ele>
        <time>2020-07-04T14:21:48.701Z</time>
      </trkpt>
      <trkpt lat="45.87831" lon="4.65749">
        <ele>356.8</ele>
        <time>2020-07-04T14:21:54.480Z</time>
      </trkpt>
      <trkpt lat="45.8783" lon="4.65748">
        <ele>356.7</ele>
        <time>2020-07-04T14:22:00.260Z</time>
      </trkpt>
      <trkpt lat="45.87818" lon="4.65742">
        <ele>356.4</ele>
        <time>2020-07-04T14:22:06.048Z</time>
      </trkpt>
      <trkpt lat="45.87809" lon="4.65737">
        <ele>356.1</ele>
        <time>2020-07-04T14:22:11.842Z</time>
      </trkpt>
      <trkpt lat="45.87804" lon="4.65734">
        <ele>355.8</ele>
        <time>2020-07-04T14:22:17.639Z</time>
      </trkpt>
      <trkpt lat="45.87797" lon="4.65731">
        <ele>355.4</ele>
        <time>2020-07-04T14:22:23.440Z</time>
      </trkpt>
      <trkpt lat="45.87787" lon="4.65729">
        <ele>354.9</ele>
        <time>2020-07-04T14:22:29.247Z</time>
      </trkpt>
      <trkpt lat="45.87772" lon="4.65726">
        <ele>354.2</ele>
        <time>2020-07-04T14:22:35.064Z</time>
      </trkpt>
      <trkpt lat="45.87758" lon="4.65723">
        <ele>353.5</ele>
        <time>2020-07-04T14:22:40.889Z</time>
      </trkpt>
      <trkpt lat="45.87746" lon="4.65726">
        <ele>353.2</ele>
        <time>2020-07-04T14:22:46.721Z</time>
      </trkpt>
      <trkpt lat="45.87741" lon="4.65727">
        <ele>353</ele>
        <time>2020-07-04T14:22:52.557Z</time>
      </trkpt>
      <trkpt lat="45.87739" lon="4.65728">
        <ele>353</ele>
        <time>2020-07-04T14:22:58.394Z</time>
      </trkpt>
      <trkpt lat="45.87734" lon="4.65731">
        <ele>352.9</ele>
        <time>2020-07-04T14:23:04.234Z</time>
      </trkpt>
      <trkpt lat="45.87728" lon="4.65734">
        <ele>352.7</ele>
        <time>2020-07-04T14:23:10.078Z</time>
      </trkpt>
      <trkpt lat="45.87725" lon="4.65735">
        <ele>352.7</ele>
        <time>2020-07-04T14:23:15.924Z</time>
      </trkpt>
      <trkpt lat="45.87723" lon="4.65736">
        <ele>352.6</ele>
        <time>2020-07-04T14:23:21.771Z</time>
      </trkpt>
      <trkpt lat="45.8772" lon="4.65737">
        <ele>351.8</ele>
        <time>2020-07-04T14:23:27.620Z</time>
      </trkpt>
      <trkpt lat="45.8772" lon="4.65741">
        <ele>352</ele>
        <time>2020-07-04T14:23:33.470Z</time>
      </trkpt>
      <trkpt lat="45.8772" lon="4.65742">
        <ele>352</ele>
        <time>2020-07-04T14:23:39.321Z</time>
      </trkpt>
      <trkpt lat="45.87721" lon="4.65744">
        <ele>352.4</ele>
        <time>2020-07-04T14:23:45.172Z</time>
      </trkpt>
      <trkpt lat="45.87723" lon="4.65748">
        <ele>353.2</ele>
        <time>2020-07-04T14:23:51.025Z</time>
      </trkpt>
      <trkpt lat="45.87723" lon="4.65749">
        <ele>353.2</ele>
        <time>2020-07-04T14:23:56.879Z</time>
      </trkpt>
      <trkpt lat="45.87726" lon="4.65753">
        <ele>353.6</ele>
        <time>2020-07-04T14:24:02.736Z</time>
      </trkpt>
      <trkpt lat="45.8773" lon="4.65759">
        <ele>354</ele>
        <time>2020-07-04T14:24:08.596Z</time>
      </trkpt>
      <trkpt lat="45.87737" lon="4.65769">
        <ele>354.9</ele>
        <time>2020-07-04T14:24:14.462Z</time>
      </trkpt>
      <trkpt lat="45.87739" lon="4.65771">
        <ele>355.1</ele>
        <time>2020-07-04T14:24:20.330Z</time>
      </trkpt>
      <trkpt lat="45.87745" lon="4.65777">
        <ele>355.6</ele>
        <time>2020-07-04T14:24:26.202Z</time>
      </trkpt>
      <trkpt lat="45.87749" lon="4.65783">
        <ele>356.1</ele>
        <time>2020-07-04T14:24:32.077Z</time>
      </trkpt>
      <trkpt lat="45.87755" lon="4.65788">
        <ele>356.2</ele>
        <time>2020-07-04T14:24:37.956Z</time>
      </trkpt>
      <trkpt lat="45.87765" lon="4.65795">
        <ele>355.7</ele>
        <time>2020-07-04T14:24:43.842Z</time>
      </trkpt>
      <trkpt lat="45.87767" lon="4.65796">
        <ele>355.7</ele>
        <time>2020-07-04T14:24:49.730Z</time>
      </trkpt>
      <trkpt lat="45.87771" lon="4.658">
        <ele>355.3</ele>
        <time>2020-07-04T14:24:55.621Z</time>
      </trkpt>
      <trkpt lat="45.87773" lon="4.65803">
        <ele>354.9</ele>
        <time>2020-07-04T14:25:01.513Z</time>
      </trkpt>
      <trkpt lat="45.87776" lon="4.65805">
        <ele>354.8</ele>
        <time>2020-07-04T14:25:07.407Z</time>
      </trkpt>
      <trkpt lat="45.87781" lon="4.65807">
        <ele>354.8</ele>
        <time>2020-07-04T14:25:13.304Z</time>
      </trkpt>
      <trkpt lat="45.87783" lon="4.65807">
        <ele>354.9</ele>
        <time>2020-07-04T14:25:19.202Z</time>
      </trkpt>
      <trkpt lat="45.87791" lon="4.65809">
        <ele>354.9</ele>
        <time>2020-07-04T14:25:25.105Z</time>
      </trkpt>
      <trkpt lat="45.87797" lon="4.6581">
        <ele>355.1</ele>
        <time>2020-07-04T14:25:31.012Z</time>
      </trkpt>
      <trkpt lat="45.87809" lon="4.65813">
        <ele>355.3</ele>
        <time>2020-07-04T14:25:36.926Z</time>
      </trkpt>
      <trkpt lat="45.87822" lon="4.65817">
        <ele>355.5</ele>
        <time>2020-07-04T14:25:42.848Z</time>
      </trkpt>
      <trkpt lat="45.87831" lon="4.65819">
        <ele>355.7</ele>
        <time>2020-07-04T14:25:48.776Z</time>
      </trkpt>
      <trkpt lat="45.87837" lon="4.6582">
        <ele>355.9</ele>
        <time>2020-07-04T14:25:54.708Z</time>
      </trkpt>
      <trkpt lat="45.87847" lon="4.6582">
        <ele>356.1</ele>
        <time>2020-07-04T14:26:00.646Z</time>
      </trkpt>
      <trkpt lat="45.87856" lon="4.65819">
        <ele>356.2</ele>
        <time>2020-07-04T14:26:06.589Z</time>
      </trkpt>
      <trkpt lat="45.87858" lon="4.6582">
        <ele>356.1</ele>
        <time>2020-07-04T14:26:12.533Z</time>
      </trkpt>
      <trkpt lat="45.8787" lon="4.65819">
        <ele>356.2</ele>
        <time>2020-07-04T14:26:18.485Z</time>
      </trkpt>
      <trkpt lat="45.87877" lon="4.65818">
        <ele>356.3</ele>
        <time>2020-07-04T14:26:24.441Z</time>
      </trkpt>
      <trkpt lat="45.87883" lon="4.65816">
        <ele>356.5</ele>
        <time>2020-07-04T14:26:30.400Z</time>
      </trkpt>
      <trkpt lat="45.87896" lon="4.65813">
        <ele>356.2</ele>
        <time>2020-07-04T14:26:36.367Z</time>
      </trkpt>
      <trkpt lat="45.87898" lon="4.65812">
        <ele>356.1</ele>
        <time>2020-07-04T14:26:42.336Z</time>
      </trkpt>
      <trkpt lat="45.87903" lon="4.65812">
        <ele>355.7</ele>
        <time>2020-07-04T14:26:48.307Z</time>
      </trkpt>
      <trkpt lat="45.87909" lon="4.65811">
        <ele>355.3</ele>
        <time>2020-07-04T14:26:54.282Z</time>
      </trkpt>
      <trkpt lat="45.87918" lon="4.65811">
        <ele>354.6</ele>
        <time>2020-07-04T14:27:00.263Z</time>
      </trkpt>
      <trkpt lat="45.8792" lon="4.65811">
        <ele>354.5</ele>
        <time>2020-07-04T14:27:06.245Z</time>
      </trkpt>
      <trkpt lat="45.8793" lon="4.65807">
        <ele>354.3</ele>
        <time>2020-07-04T14:27:12.233Z</time>
      </trkpt>
      <trkpt lat="45.87931" lon="4.65806">
        <ele>354.4</ele>
        <time>2020-07-04T14:27:18.222Z</time>
      </trkpt>
      <trkpt lat="45.87938" lon="4.658">
        <ele>354.6</ele>
        <time>2020-07-04T14:27:24.216Z</time>
      </trkpt>
      <trkpt lat="45.87942" lon="4.65798">
        <ele>354.6</ele>
        <time>2020-07-04T14:27:30.212Z</time>
      </trkpt>
      <trkpt lat="45.87949" lon="4.65793">
        <ele>354.7</ele>
        <time>2020-07-04T14:27:36.213Z</time>
      </trkpt>
      <trkpt lat="45.87964" lon="4.65785">
        <ele>354.5</ele>
        <time>2020-07-04T14:27:42.224Z</time>
      </trkpt>
      <trkpt lat="45.8798" lon="4.65778">
        <ele>352.8</ele>
        <time>2020-07-04T14:27:48.245Z</time>
      </trkpt>
      <trkpt lat="45.87983" lon="4.65778">
        <ele>352.4</ele>
        <time>2020-07-04T14:27:54.267Z</time>
      </trkpt>
      <trkpt lat="45.87988" lon="4.6578">
        <ele>351.9</ele>
        <time>2020-07-04T14:28:00.293Z</time>
      </trkpt>
      <trkpt lat="45.87991" lon="4.65778">
        <ele>351.5</ele>
        <time>2020-07-04T14:28:06.321Z</time>
      </trkpt>
      <trkpt lat="45.87995" lon="4.65779">
        <ele>351</ele>
        <time>2020-07-04T14:28:12.351Z</time>
      </trkpt>
      <trkpt lat="45.88002" lon="4.65781">
        <ele>350.3</ele>
        <time>2020-07-04T14:28:18.385Z</time>
      </trkpt>
      <trkpt lat="45.88011" lon="4.65783">
        <ele>349.3</ele>
        <time>2020-07-04T14:28:24.425Z</time>
      </trkpt>
      <trkpt lat="45.88012" lon="4.65782">
        <ele>349.1</ele>
        <time>2020-07-04T14:28:30.466Z</time>
      </trkpt>
      <trkpt lat="45.88014" lon="4.6578">
        <ele>348.8</ele>
        <time>2020-07-04T14:28:36.508Z</time>
      </trkpt>
      <trkpt lat="45.88016" lon="4.65777">
        <ele>348.4</ele>
        <time>2020-07-04T14:28:42.552Z</time>
      </trkpt>
      <trkpt lat="45.88017" lon="4.65775">
        <ele>348.2</ele>
        <time>2020-07-04T14:28:48.597Z</time>
      </trkpt>
      <trkpt lat="45.88023" lon="4.65773">
        <ele>347.4</ele>
        <time>2020-07-04T14:28:54.646Z</time>
      </trkpt>
      <trkpt lat="45.88028" lon="4.65778">
        <ele>347</ele>
        <time>2020-07-04T14:29:00.698Z</time>
      </trkpt>
      <trkpt lat="45.88032" lon="4.65781">
        <ele>346.7</ele>
        <time>2020-07-04T14:29:06.753Z</time>
      </trkpt>
      <trkpt lat="45.88033" lon="4.65783">
        <ele>346.7</ele>
        <time>2020-07-04T14:29:12.809Z</time>
      </trkpt>
      <trkpt lat="45.88036" lon="4.65786">
        <ele>346.4</ele>
        <time>2020-07-04T14:29:18.867Z</time>
      </trkpt>
      <trkpt lat="45.88042" lon="4.65793">
        <ele>344.9</ele>
        <time>2020-07-04T14:29:24.930Z</time>
      </trkpt>
      <trkpt lat="45.88044" lon="4.65794">
        <ele>344.5</ele>
        <time>2020-07-04T14:29:30.994Z</time>
      </trkpt>
      <trkpt lat="45.88054" lon="4.65803">
        <ele>342.2</ele>
        <time>2020-07-04T14:29:37.065Z</time>
      </trkpt>
      <trkpt lat="45.88055" lon="4.65804">
        <ele>342</ele>
        <time>2020-07-04T14:29:43.137Z</time>
      </trkpt>
      <trkpt lat="45.88056" lon="4.65805">
        <ele>341.8</ele>
        <time>2020-07-04T14:29:49.209Z</time>
      </trkpt>
      <trkpt lat="45.88057" lon="4.65805">
        <ele>341.6</ele>
        <time>2020-07-04T14:29:55.282Z</time>
      </trkpt>
      <trkpt lat="45.88057" lon="4.65806">
        <ele>341.5</ele>
        <time>2020-07-04T14:30:01.355Z</time>
      </trkpt>
      <trkpt lat="45.88057" lon="4.65806">
        <ele>341.5</ele>
        <time>2020-07-04T14:30:07.428Z</time>
      </trkpt>
      <trkpt lat="45.88058" lon="4.65806">
        <ele>341.4</ele>
        <time>2020-07-04T14:30:13.502Z</time>
      </trkpt>
      <trkpt lat="45.8806" lon="4.65805">
        <ele>341.3</ele>
        <time>2020-07-04T14:30:19.577Z</time>
      </trkpt>
      <trkpt lat="45.88061" lon="4.65804">
        <ele>341.3</ele>
        <time>2020-07-04T14:30:25.653Z</time>
      </trkpt>
      <trkpt lat="45.88063" lon="4.65807">
        <ele>340.8</ele>
        <time>2020-07-04T14:30:31.730Z</time>
      </trkpt>
      <trkpt lat="45.88133" lon="4.65597">
        <ele>331.4</ele>
      </trkpt>
      <trkpt lat="45.88222" lon="4.65376">
        <ele>310.6</ele>
      </trkpt>
    </trkseg>
  </trk>
  <trk>
    <name><![CDATA[StGN_Chatillon_le_pigeonnier_2]]></name>
    <trkseg>
      <trkpt lat="45.88261" lon="4.65406">
        <ele>307.5</ele>
        <time>2020-07-04T14:36:01.399Z</time>
      </trkpt>
      <trkpt lat="45.88263" lon="4.65408">
        <ele>307.5</ele>
        <time>2020-07-04T14:36:07.719Z</time>
      </trkpt>
      <trkpt lat="45.88269" lon="4.65408">
        <ele>307.3</ele>
        <time>2020-07-04T14:36:14.043Z</time>
      </trkpt>
      <trkpt lat="45.88275" lon="4.654">
        <ele>306.9</ele>
        <time>2020-07-04T14:36:20.372Z</time>
      </trkpt>
      <trkpt lat="45.88277" lon="4.65396">
        <ele>306.7</ele>
        <time>2020-07-04T14:36:26.703Z</time>
      </trkpt>
      <trkpt lat="45.88279" lon="4.6539">
        <ele>306.5</ele>
        <time>2020-07-04T14:36:33.036Z</time>
      </trkpt>
      <trkpt lat="45.88283" lon="4.65379">
        <ele>306.1</ele>
        <time>2020-07-04T14:36:39.375Z</time>
      </trkpt>
      <trkpt lat="45.88289" lon="4.65361">
        <ele>305.3</ele>
        <time>2020-07-04T14:36:45.722Z</time>
      </trkpt>
      <trkpt lat="45.88293" lon="4.65349">
        <ele>304.7</ele>
        <time>2020-07-04T14:36:52.075Z</time>
      </trkpt>
      <trkpt lat="45.88306" lon="4.6532">
        <ele>302.7</ele>
        <time>2020-07-04T14:36:58.442Z</time>
      </trkpt>
      <trkpt lat="45.88317" lon="4.65301">
        <ele>301.2</ele>
        <time>2020-07-04T14:37:04.820Z</time>
      </trkpt>
      <trkpt lat="45.88326" lon="4.65289">
        <ele>300.6</ele>
        <time>2020-07-04T14:37:11.205Z</time>
      </trkpt>
      <trkpt lat="45.88347" lon="4.65266">
        <ele>299.8</ele>
        <time>2020-07-04T14:37:17.606Z</time>
      </trkpt>
      <trkpt lat="45.88357" lon="4.65253">
        <ele>299.4</ele>
        <time>2020-07-04T14:37:24.015Z</time>
      </trkpt>
      <trkpt lat="45.88364" lon="4.65246">
        <ele>299.3</ele>
        <time>2020-07-04T14:37:30.429Z</time>
      </trkpt>
      <trkpt lat="45.88372" lon="4.65237">
        <ele>299.2</ele>
        <time>2020-07-04T14:37:36.850Z</time>
      </trkpt>
      <trkpt lat="45.88385" lon="4.65224">
        <ele>299.1</ele>
        <time>2020-07-04T14:37:43.280Z</time>
      </trkpt>
      <trkpt lat="45.88389" lon="4.6522">
        <ele>299</ele>
        <time>2020-07-04T14:37:49.713Z</time>
      </trkpt>
      <trkpt lat="45.88401" lon="4.65208">
        <ele>298.3</ele>
        <time>2020-07-04T14:37:56.155Z</time>
      </trkpt>
      <trkpt lat="45.88418" lon="4.6519">
        <ele>296.2</ele>
        <time>2020-07-04T14:38:02.609Z</time>
      </trkpt>
      <trkpt lat="45.88421" lon="4.65186">
        <ele>295.8</ele>
        <time>2020-07-04T14:38:09.066Z</time>
      </trkpt>
      <trkpt lat="45.88429" lon="4.65178">
        <ele>294.7</ele>
        <time>2020-07-04T14:38:15.529Z</time>
      </trkpt>
      <trkpt lat="45.88431" lon="4.65176">
        <ele>294.4</ele>
        <time>2020-07-04T14:38:21.993Z</time>
      </trkpt>
      <trkpt lat="45.88438" lon="4.65167">
        <ele>293.4</ele>
        <time>2020-07-04T14:38:28.463Z</time>
      </trkpt>
      <trkpt lat="45.8844" lon="4.65151">
        <ele>292.7</ele>
        <time>2020-07-04T14:38:34.940Z</time>
      </trkpt>
      <trkpt lat="45.88443" lon="4.65136">
        <ele>292.1</ele>
        <time>2020-07-04T14:38:41.423Z</time>
      </trkpt>
      <trkpt lat="45.88446" lon="4.65119">
        <ele>291.3</ele>
        <time>2020-07-04T14:38:47.914Z</time>
      </trkpt>
      <trkpt lat="45.88447" lon="4.65102">
        <ele>290</ele>
        <time>2020-07-04T14:38:54.412Z</time>
      </trkpt>
      <trkpt lat="45.88448" lon="4.65075">
        <ele>289.2</ele>
        <time>2020-07-04T14:39:00.921Z</time>
      </trkpt>
      <trkpt lat="45.88448" lon="4.65057">
        <ele>289</ele>
        <time>2020-07-04T14:39:07.438Z</time>
      </trkpt>
      <trkpt lat="45.88448" lon="4.65044">
        <ele>288.8</ele>
        <time>2020-07-04T14:39:13.961Z</time>
      </trkpt>
      <trkpt lat="45.88448" lon="4.65024">
        <ele>288.6</ele>
        <time>2020-07-04T14:39:20.492Z</time>
      </trkpt>
      <trkpt lat="45.88449" lon="4.65015">
        <ele>288.5</ele>
        <time>2020-07-04T14:39:27.027Z</time>
      </trkpt>
      <trkpt lat="45.8845" lon="4.64997">
        <ele>287.9</ele>
        <time>2020-07-04T14:39:33.569Z</time>
      </trkpt>
      <trkpt lat="45.88451" lon="4.64986">
        <ele>287.5</ele>
        <time>2020-07-04T14:39:40.116Z</time>
      </trkpt>
      <trkpt lat="45.88454" lon="4.64969">
        <ele>286.8</ele>
        <time>2020-07-04T14:39:46.670Z</time>
      </trkpt>
      <trkpt lat="45.88457" lon="4.64961">
        <ele>286.5</ele>
        <time>2020-07-04T14:39:53.228Z</time>
      </trkpt>
      <trkpt lat="45.88463" lon="4.64941">
        <ele>284.9</ele>
        <time>2020-07-04T14:39:59.795Z</time>
      </trkpt>
      <trkpt lat="45.88465" lon="4.64938">
        <ele>284.8</ele>
        <time>2020-07-04T14:40:06.364Z</time>
      </trkpt>
      <trkpt lat="45.88467" lon="4.64927">
        <ele>284.3</ele>
        <time>2020-07-04T14:40:12.938Z</time>
      </trkpt>
      <trkpt lat="45.88465" lon="4.64923">
        <ele>283.9</ele>
        <time>2020-07-04T14:40:19.513Z</time>
      </trkpt>
      <trkpt lat="45.88457" lon="4.64914">
        <ele>283.1</ele>
        <time>2020-07-04T14:40:26.095Z</time>
      </trkpt>
      <trkpt lat="45.8845" lon="4.64908">
        <ele>282.5</ele>
        <time>2020-07-04T14:40:32.682Z</time>
      </trkpt>
      <trkpt lat="45.88438" lon="4.64896">
        <ele>281.3</ele>
        <time>2020-07-04T14:40:39.277Z</time>
      </trkpt>
      <trkpt lat="45.88426" lon="4.64884">
        <ele>280.2</ele>
        <time>2020-07-04T14:40:45.881Z</time>
      </trkpt>
      <trkpt lat="45.88419" lon="4.64879">
        <ele>279.6</ele>
        <time>2020-07-04T14:40:52.490Z</time>
      </trkpt>
      <trkpt lat="45.88413" lon="4.64877">
        <ele>279.3</ele>
        <time>2020-07-04T14:40:59.103Z</time>
      </trkpt>
      <trkpt lat="45.88409" lon="4.64878">
        <ele>279.2</ele>
        <time>2020-07-04T14:41:05.718Z</time>
      </trkpt>
      <trkpt lat="45.88404" lon="4.64881">
        <ele>279.2</ele>
        <time>2020-07-04T14:41:12.336Z</time>
      </trkpt>
      <trkpt lat="45.88396" lon="4.64886">
        <ele>279.7</ele>
        <time>2020-07-04T14:41:18.960Z</time>
      </trkpt>
      <trkpt lat="45.88394" lon="4.64888">
        <ele>280</ele>
        <time>2020-07-04T14:41:25.585Z</time>
      </trkpt>
      <trkpt lat="45.88372" lon="4.64907">
        <ele>281</ele>
        <time>2020-07-04T14:41:32.226Z</time>
      </trkpt>
      <trkpt lat="45.8837" lon="4.64909">
        <ele>281.1</ele>
        <time>2020-07-04T14:41:38.868Z</time>
      </trkpt>
      <trkpt lat="45.88368" lon="4.6491">
        <ele>281.1</ele>
        <time>2020-07-04T14:41:45.511Z</time>
      </trkpt>
      <trkpt lat="45.88365" lon="4.64909">
        <ele>280.8</ele>
        <time>2020-07-04T14:41:52.156Z</time>
      </trkpt>
      <trkpt lat="45.88357" lon="4.64908">
        <ele>280.2</ele>
        <time>2020-07-04T14:41:58.806Z</time>
      </trkpt>
      <trkpt lat="45.88355" lon="4.64908">
        <ele>280.1</ele>
        <time>2020-07-04T14:42:05.458Z</time>
      </trkpt>
      <trkpt lat="45.88352" lon="4.64906">
        <ele>279.7</ele>
        <time>2020-07-04T14:42:12.112Z</time>
      </trkpt>
      <trkpt lat="45.88349" lon="4.64904">
        <ele>279.3</ele>
        <time>2020-07-04T14:42:18.767Z</time>
      </trkpt>
      <trkpt lat="45.88348" lon="4.64903">
        <ele>279.1</ele>
        <time>2020-07-04T14:42:25.423Z</time>
      </trkpt>
      <trkpt lat="45.88345" lon="4.64904">
        <ele>279.1</ele>
        <time>2020-07-04T14:42:32.081Z</time>
      </trkpt>
      <trkpt lat="45.88344" lon="4.64907">
        <ele>279.3</ele>
        <time>2020-07-04T14:42:38.740Z</time>
      </trkpt>
      <trkpt lat="45.88343" lon="4.64907">
        <ele>279.3</ele>
        <time>2020-07-04T14:42:45.399Z</time>
      </trkpt>
      <trkpt lat="45.8834" lon="4.6491">
        <ele>279.5</ele>
        <time>2020-07-04T14:42:52.061Z</time>
      </trkpt>
      <trkpt lat="45.88339" lon="4.64911">
        <ele>279.6</ele>
        <time>2020-07-04T14:42:58.724Z</time>
      </trkpt>
      <trkpt lat="45.88329" lon="4.6492">
        <ele>280.2</ele>
        <time>2020-07-04T14:43:05.393Z</time>
      </trkpt>
      <trkpt lat="45.88318" lon="4.64919">
        <ele>279.5</ele>
        <time>2020-07-04T14:43:12.069Z</time>
      </trkpt>
      <trkpt lat="45.88308" lon="4.6492">
        <ele>279.2</ele>
        <time>2020-07-04T14:43:18.751Z</time>
      </trkpt>
      <trkpt lat="45.88304" lon="4.6492">
        <ele>278.6</ele>
        <time>2020-07-04T14:43:25.436Z</time>
      </trkpt>
      <trkpt lat="45.88298" lon="4.64916">
        <ele>277</ele>
        <time>2020-07-04T14:43:32.125Z</time>
      </trkpt>
      <trkpt lat="45.88293" lon="4.6491">
        <ele>275.3</ele>
        <time>2020-07-04T14:43:38.818Z</time>
      </trkpt>
      <trkpt lat="45.88289" lon="4.64905">
        <ele>274</ele>
        <time>2020-07-04T14:43:45.514Z</time>
      </trkpt>
      <trkpt lat="45.88288" lon="4.64902">
        <ele>273.4</ele>
        <time>2020-07-04T14:43:52.211Z</time>
      </trkpt>
      <trkpt lat="45.88284" lon="4.64893">
        <ele>271.6</ele>
        <time>2020-07-04T14:43:58.913Z</time>
      </trkpt>
      <trkpt lat="45.88283" lon="4.6489">
        <ele>271</ele>
        <time>2020-07-04T14:44:05.616Z</time>
      </trkpt>
      <trkpt lat="45.8828" lon="4.64882">
        <ele>269.5</ele>
        <time>2020-07-04T14:44:12.323Z</time>
      </trkpt>
      <trkpt lat="45.88276" lon="4.6487">
        <ele>267.3</ele>
        <time>2020-07-04T14:44:19.035Z</time>
      </trkpt>
      <trkpt lat="45.88275" lon="4.64868">
        <ele>266.8</ele>
        <time>2020-07-04T14:44:25.749Z</time>
      </trkpt>
      <trkpt lat="45.88275" lon="4.64865">
        <ele>266.3</ele>
        <time>2020-07-04T14:44:32.464Z</time>
      </trkpt>
      <trkpt lat="45.88273" lon="4.6486">
        <ele>265</ele>
        <time>2020-07-04T14:44:39.181Z</time>
      </trkpt>
      <trkpt lat="45.88272" lon="4.64853">
        <ele>263.7</ele>
        <time>2020-07-04T14:44:45.901Z</time>
      </trkpt>
      <trkpt lat="45.88272" lon="4.64849">
        <ele>263</ele>
        <time>2020-07-04T14:44:52.623Z</time>
      </trkpt>
      <trkpt lat="45.88273" lon="4.64843">
        <ele>262.2</ele>
        <time>2020-07-04T14:44:59.347Z</time>
      </trkpt>
      <trkpt lat="45.88274" lon="4.64835">
        <ele>261</ele>
        <time>2020-07-04T14:45:06.075Z</time>
      </trkpt>
      <trkpt lat="45.88275" lon="4.64832">
        <ele>260.5</ele>
        <time>2020-07-04T14:45:12.804Z</time>
      </trkpt>
      <trkpt lat="45.88276" lon="4.64829">
        <ele>260.1</ele>
        <time>2020-07-04T14:45:19.535Z</time>
      </trkpt>
      <trkpt lat="45.88277" lon="4.64826">
        <ele>259.6</ele>
        <time>2020-07-04T14:45:26.267Z</time>
      </trkpt>
      <trkpt lat="45.88278" lon="4.64819">
        <ele>258.3</ele>
        <time>2020-07-04T14:45:33.002Z</time>
      </trkpt>
      <trkpt lat="45.88278" lon="4.64812">
        <ele>256.9</ele>
        <time>2020-07-04T14:45:39.740Z</time>
      </trkpt>
      <trkpt lat="45.88279" lon="4.64805">
        <ele>255.6</ele>
        <time>2020-07-04T14:45:46.481Z</time>
      </trkpt>
      <trkpt lat="45.88279" lon="4.64796">
        <ele>253.8</ele>
        <time>2020-07-04T14:45:53.226Z</time>
      </trkpt>
      <trkpt lat="45.88278" lon="4.64794">
        <ele>253.2</ele>
        <time>2020-07-04T14:45:59.971Z</time>
      </trkpt>
      <trkpt lat="45.88275" lon="4.6479">
        <ele>252</ele>
        <time>2020-07-04T14:46:06.719Z</time>
      </trkpt>
      <trkpt lat="45.88275" lon="4.6479">
        <ele>252</ele>
        <time>2020-07-04T14:46:13.467Z</time>
      </trkpt>
      <trkpt lat="45.88274" lon="4.64789">
        <ele>251.6</ele>
        <time>2020-07-04T14:46:20.216Z</time>
      </trkpt>
      <trkpt lat="45.88271" lon="4.64787">
        <ele>250.7</ele>
        <time>2020-07-04T14:46:26.967Z</time>
      </trkpt>
      <trkpt lat="45.88267" lon="4.64786">
        <ele>249.9</ele>
        <time>2020-07-04T14:46:33.720Z</time>
      </trkpt>
      <trkpt lat="45.8826" lon="4.64785">
        <ele>248.6</ele>
        <time>2020-07-04T14:46:40.477Z</time>
      </trkpt>
      <trkpt lat="45.88259" lon="4.64785">
        <ele>248.4</ele>
        <time>2020-07-04T14:46:47.235Z</time>
      </trkpt>
      <trkpt lat="45.88253" lon="4.64785">
        <ele>247.5</ele>
        <time>2020-07-04T14:46:53.997Z</time>
      </trkpt>
      <trkpt lat="45.88248" lon="4.64787">
        <ele>247.1</ele>
        <time>2020-07-04T14:47:00.762Z</time>
      </trkpt>
      <trkpt lat="45.88242" lon="4.64789">
        <ele>246.6</ele>
        <time>2020-07-04T14:47:07.530Z</time>
      </trkpt>
      <trkpt lat="45.88239" lon="4.64789">
        <ele>246.1</ele>
        <time>2020-07-04T14:47:14.300Z</time>
      </trkpt>
      <trkpt lat="45.88235" lon="4.64789">
        <ele>245.5</ele>
        <time>2020-07-04T14:47:21.073Z</time>
      </trkpt>
      <trkpt lat="45.88233" lon="4.64789">
        <ele>245.2</ele>
        <time>2020-07-04T14:47:27.847Z</time>
      </trkpt>
      <trkpt lat="45.88233" lon="4.64788">
        <ele>245</ele>
        <time>2020-07-04T14:47:34.621Z</time>
      </trkpt>
      <trkpt lat="45.88231" lon="4.64788">
        <ele>244.7</ele>
        <time>2020-07-04T14:47:41.396Z</time>
      </trkpt>
      <trkpt lat="45.88231" lon="4.64789">
        <ele>244.9</ele>
        <time>2020-07-04T14:47:48.172Z</time>
      </trkpt>
      <trkpt lat="45.88226" lon="4.64789">
        <ele>244.1</ele>
        <time>2020-07-04T14:47:54.950Z</time>
      </trkpt>
      <trkpt lat="45.88222" lon="4.64789">
        <ele>243.3</ele>
        <time>2020-07-04T14:48:01.731Z</time>
      </trkpt>
      <trkpt lat="45.88222" lon="4.64789">
        <ele>243.3</ele>
        <time>2020-07-04T14:48:08.512Z</time>
      </trkpt>
      <trkpt lat="45.88222" lon="4.64789">
        <ele>243.3</ele>
        <time>2020-07-04T14:48:15.293Z</time>
      </trkpt>
      <trkpt lat="45.88215" lon="4.64791">
        <ele>242.4</ele>
        <time>2020-07-04T14:48:22.078Z</time>
      </trkpt>
      <trkpt lat="45.88212" lon="4.64793">
        <ele>242.2</ele>
        <time>2020-07-04T14:48:28.865Z</time>
      </trkpt>
      <trkpt lat="45.88211" lon="4.64793">
        <ele>242</ele>
        <time>2020-07-04T14:48:35.653Z</time>
      </trkpt>
      <trkpt lat="45.88203" lon="4.64791">
        <ele>240.3</ele>
        <time>2020-07-04T14:48:42.445Z</time>
      </trkpt>
      <trkpt lat="45.88202" lon="4.6479">
        <ele>239.9</ele>
        <time>2020-07-04T14:48:49.238Z</time>
      </trkpt>
      <trkpt lat="45.88198" lon="4.64788">
        <ele>238.9</ele>
        <time>2020-07-04T14:48:56.034Z</time>
      </trkpt>
      <trkpt lat="45.88196" lon="4.64787">
        <ele>238.3</ele>
        <time>2020-07-04T14:49:02.831Z</time>
      </trkpt>
      <trkpt lat="45.88195" lon="4.64787">
        <ele>238.1</ele>
        <time>2020-07-04T14:49:09.629Z</time>
      </trkpt>
      <trkpt lat="45.88194" lon="4.64786">
        <ele>237.8</ele>
        <time>2020-07-04T14:49:16.427Z</time>
      </trkpt>
      <trkpt lat="45.88193" lon="4.64786">
        <ele>237.6</ele>
        <time>2020-07-04T14:49:23.226Z</time>
      </trkpt>
      <trkpt lat="45.88192" lon="4.64785">
        <ele>237.4</ele>
        <time>2020-07-04T14:49:30.026Z</time>
      </trkpt>
      <trkpt lat="45.88186" lon="4.64783">
        <ele>236.2</ele>
        <time>2020-07-04T14:49:36.829Z</time>
      </trkpt>
      <trkpt lat="45.88184" lon="4.64782">
        <ele>235.7</ele>
        <time>2020-07-04T14:49:43.634Z</time>
      </trkpt>
      <trkpt lat="45.88181" lon="4.64779">
        <ele>235</ele>
        <time>2020-07-04T14:49:50.441Z</time>
      </trkpt>
      <trkpt lat="45.88178" lon="4.64776">
        <ele>234.3</ele>
        <time>2020-07-04T14:49:57.250Z</time>
      </trkpt>
      <trkpt lat="45.88177" lon="4.64775">
        <ele>234.1</ele>
        <time>2020-07-04T14:50:04.060Z</time>
      </trkpt>
      <trkpt lat="45.88173" lon="4.64771">
        <ele>233.1</ele>
        <time>2020-07-04T14:50:10.873Z</time>
      </trkpt>
      <trkpt lat="45.88172" lon="4.6477">
        <ele>232.9</ele>
        <time>2020-07-04T14:50:17.687Z</time>
      </trkpt>
      <trkpt lat="45.88169" lon="4.64767">
        <ele>232.1</ele>
        <time>2020-07-04T14:50:24.503Z</time>
      </trkpt>
      <trkpt lat="45.88165" lon="4.64764">
        <ele>231.2</ele>
        <time>2020-07-04T14:50:31.321Z</time>
      </trkpt>
      <trkpt lat="45.88164" lon="4.64764">
        <ele>231.1</ele>
        <time>2020-07-04T14:50:38.140Z</time>
      </trkpt>
      <trkpt lat="45.88162" lon="4.64764">
        <ele>230.7</ele>
        <time>2020-07-04T14:50:44.960Z</time>
      </trkpt>
      <trkpt lat="45.88161" lon="4.64762">
        <ele>230.4</ele>
        <time>2020-07-04T14:50:51.781Z</time>
      </trkpt>
      <trkpt lat="45.8816" lon="4.64761">
        <ele>230.2</ele>
        <time>2020-07-04T14:50:58.603Z</time>
      </trkpt>
      <trkpt lat="45.88154" lon="4.64757">
        <ele>228.8</ele>
        <time>2020-07-04T14:51:05.429Z</time>
      </trkpt>
      <trkpt lat="45.88152" lon="4.64755">
        <ele>228.4</ele>
        <time>2020-07-04T14:51:12.256Z</time>
      </trkpt>
      <trkpt lat="45.8815" lon="4.64753">
        <ele>227.9</ele>
        <time>2020-07-04T14:51:19.085Z</time>
      </trkpt>
      <trkpt lat="45.88148" lon="4.64751">
        <ele>227.4</ele>
        <time>2020-07-04T14:51:25.915Z</time>
      </trkpt>
      <trkpt lat="45.88147" lon="4.6475">
        <ele>227.2</ele>
        <time>2020-07-04T14:51:32.746Z</time>
      </trkpt>
      <trkpt lat="45.8814" lon="4.64745">
        <ele>225.6</ele>
        <time>2020-07-04T14:51:39.582Z</time>
      </trkpt>
      <trkpt lat="45.88136" lon="4.64744">
        <ele>225.6</ele>
        <time>2020-07-04T14:51:46.420Z</time>
      </trkpt>
      <trkpt lat="45.88135" lon="4.64744">
        <ele>225.6</ele>
        <time>2020-07-04T14:51:53.258Z</time>
      </trkpt>
      <trkpt lat="45.88133" lon="4.6474">
        <ele>225.4</ele>
        <time>2020-07-04T14:52:00.099Z</time>
      </trkpt>
      <trkpt lat="45.8813" lon="4.64737">
        <ele>225.3</ele>
        <time>2020-07-04T14:52:06.942Z</time>
      </trkpt>
      <trkpt lat="45.88128" lon="4.64732">
        <ele>225.1</ele>
        <time>2020-07-04T14:52:13.787Z</time>
      </trkpt>
      <trkpt lat="45.88123" lon="4.64728">
        <ele>224.9</ele>
        <time>2020-07-04T14:52:20.636Z</time>
      </trkpt>
      <trkpt lat="45.88118" lon="4.64722">
        <ele>224.7</ele>
        <time>2020-07-04T14:52:27.489Z</time>
      </trkpt>
      <trkpt lat="45.88114" lon="4.64719">
        <ele>224.6</ele>
        <time>2020-07-04T14:52:34.344Z</time>
      </trkpt>
      <trkpt lat="45.88111" lon="4.64717">
        <ele>224.6</ele>
        <time>2020-07-04T14:52:41.201Z</time>
      </trkpt>
      <trkpt lat="45.88109" lon="4.64715">
        <ele>224.5</ele>
        <time>2020-07-04T14:52:48.060Z</time>
      </trkpt>
      <trkpt lat="45.88106" lon="4.64714">
        <ele>224.5</ele>
        <time>2020-07-04T14:52:54.920Z</time>
      </trkpt>
      <trkpt lat="45.88101" lon="4.64709">
        <ele>224.3</ele>
        <time>2020-07-04T14:53:01.784Z</time>
      </trkpt>
      <trkpt lat="45.88091" lon="4.64699">
        <ele>224.8</ele>
        <time>2020-07-04T14:53:08.656Z</time>
      </trkpt>
      <trkpt lat="45.88089" lon="4.64697">
        <ele>225.2</ele>
        <time>2020-07-04T14:53:15.529Z</time>
      </trkpt>
      <trkpt lat="45.88088" lon="4.64696">
        <ele>225.4</ele>
        <time>2020-07-04T14:53:22.403Z</time>
      </trkpt>
      <trkpt lat="45.88087" lon="4.64696">
        <ele>225.4</ele>
        <time>2020-07-04T14:53:29.277Z</time>
      </trkpt>
      <trkpt lat="45.88087" lon="4.64695">
        <ele>225.6</ele>
        <time>2020-07-04T14:53:36.151Z</time>
      </trkpt>
      <trkpt lat="45.88087" lon="4.64696">
        <ele>225.4</ele>
        <time>2020-07-04T14:53:43.026Z</time>
      </trkpt>
      <trkpt lat="45.88087" lon="4.64696">
        <ele>225.4</ele>
        <time>2020-07-04T14:53:49.901Z</time>
      </trkpt>
      <trkpt lat="45.88087" lon="4.64696">
        <ele>225.4</ele>
        <time>2020-07-04T14:53:56.776Z</time>
      </trkpt>
      <trkpt lat="45.88087" lon="4.64696">
        <ele>225.4</ele>
        <time>2020-07-04T14:54:03.651Z</time>
      </trkpt>
      <trkpt lat="45.88087" lon="4.64696">
        <ele>225.4</ele>
        <time>2020-07-04T14:54:10.526Z</time>
      </trkpt>
      <trkpt lat="45.88087" lon="4.64696">
        <ele>225.4</ele>
        <time>2020-07-04T14:54:17.401Z</time>
      </trkpt>
      <trkpt lat="45.88087" lon="4.64696">
        <ele>225.4</ele>
        <time>2020-07-04T14:54:24.276Z</time>
      </trkpt>
      <trkpt lat="45.88087" lon="4.64696">
        <ele>225.4</ele>
        <time>2020-07-04T14:54:31.151Z</time>
      </trkpt>
      <trkpt lat="45.88087" lon="4.64696">
        <ele>225.4</ele>
        <time>2020-07-04T14:54:38.026Z</time>
      </trkpt>
      <trkpt lat="45.88087" lon="4.64695">
        <ele>225.6</ele>
        <time>2020-07-04T14:54:44.901Z</time>
      </trkpt>
      <trkpt lat="45.88087" lon="4.64695">
        <ele>225.6</ele>
        <time>2020-07-04T14:54:51.776Z</time>
      </trkpt>
      <trkpt lat="45.88087" lon="4.64696">
        <ele>225.4</ele>
        <time>2020-07-04T14:54:58.651Z</time>
      </trkpt>
      <trkpt lat="45.88087" lon="4.64696">
        <ele>225.4</ele>
        <time>2020-07-04T14:55:05.526Z</time>
      </trkpt>
      <trkpt lat="45.88087" lon="4.64696">
        <ele>225.4</ele>
        <time>2020-07-04T14:55:12.401Z</time>
      </trkpt>
      <trkpt lat="45.88088" lon="4.64696">
        <ele>225.4</ele>
        <time>2020-07-04T14:55:19.276Z</time>
      </trkpt>
      <trkpt lat="45.88088" lon="4.64696">
        <ele>225.4</ele>
        <time>2020-07-04T14:55:26.151Z</time>
      </trkpt>
      <trkpt lat="45.88088" lon="4.64696">
        <ele>225.4</ele>
        <time>2020-07-04T14:55:33.026Z</time>
      </trkpt>
      <trkpt lat="45.88088" lon="4.64696">
        <ele>225.4</ele>
        <time>2020-07-04T14:55:39.901Z</time>
      </trkpt>
      <trkpt lat="45.88088" lon="4.64695">
        <ele>225.6</ele>
        <time>2020-07-04T14:55:46.776Z</time>
      </trkpt>
      <trkpt lat="45.88088" lon="4.64695">
        <ele>225.6</ele>
        <time>2020-07-04T14:55:53.651Z</time>
      </trkpt>
      <trkpt lat="45.88088" lon="4.64695">
        <ele>225.6</ele>
        <time>2020-07-04T14:56:00.527Z</time>
      </trkpt>
      <trkpt lat="45.88088" lon="4.64696">
        <ele>225.4</ele>
        <time>2020-07-04T14:56:07.403Z</time>
      </trkpt>
      <trkpt lat="45.88088" lon="4.64696">
        <ele>225.4</ele>
        <time>2020-07-04T14:56:14.279Z</time>
      </trkpt>
      <trkpt lat="45.88088" lon="4.64696">
        <ele>225.4</ele>
        <time>2020-07-04T14:56:21.155Z</time>
      </trkpt>
      <trkpt lat="45.88088" lon="4.64696">
        <ele>225.4</ele>
        <time>2020-07-04T14:56:28.031Z</time>
      </trkpt>
      <trkpt lat="45.88088" lon="4.64696">
        <ele>225.4</ele>
        <time>2020-07-04T14:56:34.907Z</time>
      </trkpt>
      <trkpt lat="45.88088" lon="4.64696">
        <ele>225.4</ele>
        <time>2020-07-04T14:56:41.783Z</time>
      </trkpt>
      <trkpt lat="45.88088" lon="4.64696">
        <ele>225.4</ele>
        <time>2020-07-04T14:56:48.659Z</time>
      </trkpt>
      <trkpt lat="45.88088" lon="4.64696">
        <ele>225.4</ele>
        <time>2020-07-04T14:56:55.535Z</time>
      </trkpt>
      <trkpt lat="45.88088" lon="4.64696">
        <ele>225.4</ele>
        <time>2020-07-04T14:57:02.411Z</time>
      </trkpt>
      <trkpt lat="45.88087" lon="4.64692">
        <ele>226.1</ele>
        <time>2020-07-04T14:57:09.288Z</time>
      </trkpt>
      <trkpt lat="45.88087" lon="4.64691">
        <ele>226.3</ele>
        <time>2020-07-04T14:57:16.166Z</time>
      </trkpt>
      <trkpt lat="45.88087" lon="4.64691">
        <ele>226.3</ele>
        <time>2020-07-04T14:57:23.044Z</time>
      </trkpt>
      <trkpt lat="45.88087" lon="4.64691">
        <ele>226.3</ele>
        <time>2020-07-04T14:57:29.922Z</time>
      </trkpt>
      <trkpt lat="45.88086" lon="4.6469">
        <ele>226.5</ele>
        <time>2020-07-04T14:57:36.801Z</time>
      </trkpt>
      <trkpt lat="45.88085" lon="4.64688">
        <ele>226.9</ele>
        <time>2020-07-04T14:57:43.681Z</time>
      </trkpt>
      <trkpt lat="45.88075" lon="4.64686">
        <ele>227.5</ele>
        <time>2020-07-04T14:57:50.567Z</time>
      </trkpt>
      <trkpt lat="45.88056" lon="4.64691">
        <ele>227.1</ele>
        <time>2020-07-04T14:57:57.465Z</time>
      </trkpt>
      <trkpt lat="45.88029" lon="4.647">
        <ele>225.4</ele>
        <time>2020-07-04T14:58:04.379Z</time>
      </trkpt>
      <trkpt lat="45.8801" lon="4.64706">
        <ele>224.3</ele>
        <time>2020-07-04T14:58:11.305Z</time>
      </trkpt>
      <trkpt lat="45.87998" lon="4.64709">
        <ele>224</ele>
        <time>2020-07-04T14:58:18.238Z</time>
      </trkpt>
      <trkpt lat="45.87995" lon="4.64705">
        <ele>224.1</ele>
        <time>2020-07-04T14:58:25.174Z</time>
      </trkpt>
      <trkpt lat="45.87993" lon="4.64694">
        <ele>226.7</ele>
        <time>2020-07-04T14:58:32.115Z</time>
      </trkpt>
      <trkpt lat="45.87991" lon="4.64686">
        <ele>229</ele>
        <time>2020-07-04T14:58:39.059Z</time>
      </trkpt>
      <trkpt lat="45.87983" lon="4.6467">
        <ele>233.5</ele>
        <time>2020-07-04T14:58:46.012Z</time>
      </trkpt>
      <trkpt lat="45.87974" lon="4.64664">
        <ele>235.1</ele>
        <time>2020-07-04T14:58:52.971Z</time>
      </trkpt>
      <trkpt lat="45.87963" lon="4.64663">
        <ele>235.7</ele>
        <time>2020-07-04T14:58:59.936Z</time>
      </trkpt>
      <trkpt lat="45.87957" lon="4.64664">
        <ele>235.6</ele>
        <time>2020-07-04T14:59:06.905Z</time>
      </trkpt>
      <trkpt lat="45.87941" lon="4.64671">
        <ele>234.2</ele>
        <time>2020-07-04T14:59:13.884Z</time>
      </trkpt>
      <trkpt lat="45.87919" lon="4.64682">
        <ele>231</ele>
        <time>2020-07-04T14:59:20.877Z</time>
      </trkpt>
      <trkpt lat="45.87898" lon="4.64685">
        <ele>230.3</ele>
        <time>2020-07-04T14:59:27.882Z</time>
      </trkpt>
      <trkpt lat="45.8788" lon="4.64685">
        <ele>229</ele>
        <time>2020-07-04T14:59:34.899Z</time>
      </trkpt>
      <trkpt lat="45.87868" lon="4.64684">
        <ele>227.9</ele>
        <time>2020-07-04T14:59:41.923Z</time>
      </trkpt>
      <trkpt lat="45.87861" lon="4.64681">
        <ele>228.2</ele>
        <time>2020-07-04T14:59:48.951Z</time>
      </trkpt>
      <trkpt lat="45.87842" lon="4.64663">
        <ele>231.1</ele>
        <time>2020-07-04T14:59:55.993Z</time>
      </trkpt>
      <trkpt lat="45.87831" lon="4.64648">
        <ele>233.9</ele>
        <time>2020-07-04T15:00:03.044Z</time>
      </trkpt>
      <trkpt lat="45.87818" lon="4.64636">
        <ele>235.8</ele>
        <time>2020-07-04T15:00:10.105Z</time>
      </trkpt>
      <trkpt lat="45.87808" lon="4.64628">
        <ele>237.1</ele>
        <time>2020-07-04T15:00:17.172Z</time>
      </trkpt>
      <trkpt lat="45.87801" lon="4.64624">
        <ele>236.7</ele>
        <time>2020-07-04T15:00:24.244Z</time>
      </trkpt>
      <trkpt lat="45.87795" lon="4.64619">
        <ele>236.4</ele>
        <time>2020-07-04T15:00:31.320Z</time>
      </trkpt>
      <trkpt lat="45.87788" lon="4.6461">
        <ele>234.4</ele>
        <time>2020-07-04T15:00:38.402Z</time>
      </trkpt>
      <trkpt lat="45.87782" lon="4.646">
        <ele>232.5</ele>
        <time>2020-07-04T15:00:45.489Z</time>
      </trkpt>
      <trkpt lat="45.87778" lon="4.64586">
        <ele>230.9</ele>
        <time>2020-07-04T15:00:52.583Z</time>
      </trkpt>
      <trkpt lat="45.87778" lon="4.64577">
        <ele>230.4</ele>
        <time>2020-07-04T15:00:59.680Z</time>
      </trkpt>
      <trkpt lat="45.87778" lon="4.64569">
        <ele>229.9</ele>
        <time>2020-07-04T15:01:06.781Z</time>
      </trkpt>
      <trkpt lat="45.87775" lon="4.64569">
        <ele>229.2</ele>
        <time>2020-07-04T15:01:13.883Z</time>
      </trkpt>
      <trkpt lat="45.87774" lon="4.64569">
        <ele>229</ele>
        <time>2020-07-04T15:01:20.986Z</time>
      </trkpt>
      <trkpt lat="45.87772" lon="4.64576">
        <ele>229</ele>
        <time>2020-07-04T15:01:28.092Z</time>
      </trkpt>
      <trkpt lat="45.87771" lon="4.64577">
        <ele>228.8</ele>
        <time>2020-07-04T15:01:35.199Z</time>
      </trkpt>
      <trkpt lat="45.87767" lon="4.64576">
        <ele>227.9</ele>
        <time>2020-07-04T15:01:42.309Z</time>
      </trkpt>
      <trkpt lat="45.8776" lon="4.64569">
        <ele>226</ele>
        <time>2020-07-04T15:01:49.424Z</time>
      </trkpt>
      <trkpt lat="45.87756" lon="4.64566">
        <ele>224.9</ele>
        <time>2020-07-04T15:01:56.541Z</time>
      </trkpt>
      <trkpt lat="45.87751" lon="4.6457">
        <ele>224</ele>
        <time>2020-07-04T15:02:03.662Z</time>
      </trkpt>
      <trkpt lat="45.8775" lon="4.64573">
        <ele>223.9</ele>
        <time>2020-07-04T15:02:10.784Z</time>
      </trkpt>
      <trkpt lat="45.87749" lon="4.64573">
        <ele>223.7</ele>
        <time>2020-07-04T15:02:17.907Z</time>
      </trkpt>
      <trkpt lat="45.87744" lon="4.64573">
        <ele>222.6</ele>
        <time>2020-07-04T15:02:25.032Z</time>
      </trkpt>
      <trkpt lat="45.87742" lon="4.64572">
        <ele>222.1</ele>
        <time>2020-07-04T15:02:32.159Z</time>
      </trkpt>
      <trkpt lat="45.87741" lon="4.64573">
        <ele>221.9</ele>
        <time>2020-07-04T15:02:39.287Z</time>
      </trkpt>
      <trkpt lat="45.8774" lon="4.64571">
        <ele>221.6</ele>
        <time>2020-07-04T15:02:46.416Z</time>
      </trkpt>
      <trkpt lat="45.8774" lon="4.64569">
        <ele>221.5</ele>
        <time>2020-07-04T15:02:53.545Z</time>
      </trkpt>
      <trkpt lat="45.87742" lon="4.64559">
        <ele>221.4</ele>
        <time>2020-07-04T15:03:00.679Z</time>
      </trkpt>
      <trkpt lat="45.87742" lon="4.64555">
        <ele>221.3</ele>
        <time>2020-07-04T15:03:07.814Z</time>
      </trkpt>
      <trkpt lat="45.87745" lon="4.64537">
        <ele>220.8</ele>
        <time>2020-07-04T15:03:14.957Z</time>
      </trkpt>
      <trkpt lat="45.87753" lon="4.64519">
        <ele>222.3</ele>
        <time>2020-07-04T15:03:22.109Z</time>
      </trkpt>
      <trkpt lat="45.87761" lon="4.64504">
        <ele>223.8</ele>
        <time>2020-07-04T15:03:29.269Z</time>
      </trkpt>
      <trkpt lat="45.87769" lon="4.64492">
        <ele>224.4</ele>
        <time>2020-07-04T15:03:36.436Z</time>
      </trkpt>
      <trkpt lat="45.87774" lon="4.64486">
        <ele>223.7</ele>
        <time>2020-07-04T15:03:43.607Z</time>
      </trkpt>
      <trkpt lat="45.87773" lon="4.64484">
        <ele>223.3</ele>
        <time>2020-07-04T15:03:50.779Z</time>
      </trkpt>
      <trkpt lat="45.87769" lon="4.64478">
        <ele>222.1</ele>
        <time>2020-07-04T15:03:57.954Z</time>
      </trkpt>
      <trkpt lat="45.87758" lon="4.64462">
        <ele>218.7</ele>
        <time>2020-07-04T15:04:05.138Z</time>
      </trkpt>
      <trkpt lat="45.87744" lon="4.64449">
        <ele>216.1</ele>
        <time>2020-07-04T15:04:12.333Z</time>
      </trkpt>
      <trkpt lat="45.87735" lon="4.64443">
        <ele>215.4</ele>
        <time>2020-07-04T15:04:19.534Z</time>
      </trkpt>
      <trkpt lat="45.87729" lon="4.64439">
        <ele>214.9</ele>
        <time>2020-07-04T15:04:26.739Z</time>
      </trkpt>
      <trkpt lat="45.87729" lon="4.64439">
        <ele>214.9</ele>
        <time>2020-07-04T15:04:33.944Z</time>
      </trkpt>
      <trkpt lat="45.87727" lon="4.64441">
        <ele>214.8</ele>
        <time>2020-07-04T15:04:41.151Z</time>
      </trkpt>
      <trkpt lat="45.87716" lon="4.6444">
        <ele>214.3</ele>
        <time>2020-07-04T15:04:48.364Z</time>
      </trkpt>
      <trkpt lat="45.87693" lon="4.6443">
        <ele>213.2</ele>
        <time>2020-07-04T15:04:55.592Z</time>
      </trkpt>
      <trkpt lat="45.87669" lon="4.64419">
        <ele>212.1</ele>
        <time>2020-07-04T15:05:02.835Z</time>
      </trkpt>
      <trkpt lat="45.87649" lon="4.64412">
        <ele>211.3</ele>
        <time>2020-07-04T15:05:10.090Z</time>
      </trkpt>
      <trkpt lat="45.87635" lon="4.64411">
        <ele>211.1</ele>
        <time>2020-07-04T15:05:17.354Z</time>
      </trkpt>
      <trkpt lat="45.87622" lon="4.64411">
        <ele>211.4</ele>
        <time>2020-07-04T15:05:24.625Z</time>
      </trkpt>
      <trkpt lat="45.87619" lon="4.64411">
        <ele>211.5</ele>
        <time>2020-07-04T15:05:31.898Z</time>
      </trkpt>
      <trkpt lat="45.87619" lon="4.64411">
        <ele>211.5</ele>
        <time>2020-07-04T15:05:39.171Z</time>
      </trkpt>
      <trkpt lat="45.87617" lon="4.64411">
        <ele>211.6</ele>
        <time>2020-07-04T15:05:46.446Z</time>
      </trkpt>
      <trkpt lat="45.87615" lon="4.64411">
        <ele>211.6</ele>
        <time>2020-07-04T15:05:53.722Z</time>
      </trkpt>
      <trkpt lat="45.87606" lon="4.64408">
        <ele>211.7</ele>
        <time>2020-07-04T15:06:01.003Z</time>
      </trkpt>
      <trkpt lat="45.87589" lon="4.64399">
        <ele>211.7</ele>
        <time>2020-07-04T15:06:08.296Z</time>
      </trkpt>
      <trkpt lat="45.87575" lon="4.64386">
        <ele>211.4</ele>
        <time>2020-07-04T15:06:15.599Z</time>
      </trkpt>
      <trkpt lat="45.87556" lon="4.64374">
        <ele>211.1</ele>
        <time>2020-07-04T15:06:22.914Z</time>
      </trkpt>
      <trkpt lat="45.87525" lon="4.64363">
        <ele>211.3</ele>
        <time>2020-07-04T15:06:30.248Z</time>
      </trkpt>
      <trkpt lat="45.87502" lon="4.64355">
        <ele>211.5</ele>
        <time>2020-07-04T15:06:37.596Z</time>
      </trkpt>
      <trkpt lat="45.87489" lon="4.64351">
        <ele>211.6</ele>
        <time>2020-07-04T15:06:44.953Z</time>
      </trkpt>
      <trkpt lat="45.87463" lon="4.64342">
        <ele>211.8</ele>
        <time>2020-07-04T15:06:52.326Z</time>
      </trkpt>
      <trkpt lat="45.87438" lon="4.64336">
        <ele>212</ele>
        <time>2020-07-04T15:06:59.714Z</time>
      </trkpt>
      <trkpt lat="45.87425" lon="4.64336">
        <ele>212</ele>
        <time>2020-07-04T15:07:07.110Z</time>
      </trkpt>
      <trkpt lat="45.8741" lon="4.64336">
        <ele>212</ele>
        <time>2020-07-04T15:07:14.515Z</time>
      </trkpt>
      <trkpt lat="45.87384" lon="4.64339">
        <ele>211.7</ele>
        <time>2020-07-04T15:07:21.936Z</time>
      </trkpt>
      <trkpt lat="45.87359" lon="4.64341">
        <ele>210.6</ele>
        <time>2020-07-04T15:07:29.372Z</time>
      </trkpt>
      <trkpt lat="45.87347" lon="4.6434">
        <ele>210.3</ele>
        <time>2020-07-04T15:07:36.815Z</time>
      </trkpt>
      <trkpt lat="45.87329" lon="4.64336">
        <ele>209.8</ele>
        <time>2020-07-04T15:07:44.269Z</time>
      </trkpt>
      <trkpt lat="45.87313" lon="4.64332">
        <ele>209.3</ele>
        <time>2020-07-04T15:07:51.733Z</time>
      </trkpt>
      <trkpt lat="45.87308" lon="4.64331">
        <ele>209.1</ele>
        <time>2020-07-04T15:07:59.200Z</time>
      </trkpt>
      <trkpt lat="45.87268" lon="4.64319">
        <ele>209.3</ele>
        <time>2020-07-04T15:08:06.692Z</time>
      </trkpt>
      <trkpt lat="45.87232" lon="4.64309">
        <ele>209.1</ele>
        <time>2020-07-04T15:08:14.205Z</time>
      </trkpt>
      <trkpt lat="45.87212" lon="4.64299">
        <ele>210.2</ele>
        <time>2020-07-04T15:08:21.732Z</time>
      </trkpt>
      <trkpt lat="45.87205" lon="4.64285">
        <ele>211</ele>
        <time>2020-07-04T15:08:29.265Z</time>
      </trkpt>
      <trkpt lat="45.87202" lon="4.64275">
        <ele>211.9</ele>
        <time>2020-07-04T15:08:36.803Z</time>
      </trkpt>
      <trkpt lat="45.87199" lon="4.64265">
        <ele>212.8</ele>
        <time>2020-07-04T15:08:44.346Z</time>
      </trkpt>
      <trkpt lat="45.87195" lon="4.64243">
        <ele>214.4</ele>
        <time>2020-07-04T15:08:51.898Z</time>
      </trkpt>
      <trkpt lat="45.87191" lon="4.64226">
        <ele>215.7</ele>
        <time>2020-07-04T15:08:59.458Z</time>
      </trkpt>
      <trkpt lat="45.8719" lon="4.64216">
        <ele>216.3</ele>
        <time>2020-07-04T15:09:07.022Z</time>
      </trkpt>
      <trkpt lat="45.87188" lon="4.64209">
        <ele>216.9</ele>
        <time>2020-07-04T15:09:14.589Z</time>
      </trkpt>
      <trkpt lat="45.87186" lon="4.64192">
        <ele>218.1</ele>
        <time>2020-07-04T15:09:22.163Z</time>
      </trkpt>
      <trkpt lat="45.87185" lon="4.64179">
        <ele>219</ele>
        <time>2020-07-04T15:09:29.743Z</time>
      </trkpt>
      <trkpt lat="45.87185" lon="4.64172">
        <ele>219.4</ele>
        <time>2020-07-04T15:09:37.326Z</time>
      </trkpt>
      <trkpt lat="45.87183" lon="4.64159">
        <ele>220.2</ele>
        <time>2020-07-04T15:09:44.914Z</time>
      </trkpt>
      <trkpt lat="45.87183" lon="4.64153">
        <ele>220.3</ele>
        <time>2020-07-04T15:09:52.505Z</time>
      </trkpt>
      <trkpt lat="45.87181" lon="4.64144">
        <ele>220.7</ele>
        <time>2020-07-04T15:10:00.100Z</time>
      </trkpt>
      <trkpt lat="45.87179" lon="4.64129">
        <ele>221.3</ele>
        <time>2020-07-04T15:10:07.701Z</time>
      </trkpt>
      <trkpt lat="45.87178" lon="4.64127">
        <ele>221.4</ele>
        <time>2020-07-04T15:10:15.303Z</time>
      </trkpt>
      <trkpt lat="45.87176" lon="4.64112">
        <ele>222.3</ele>
        <time>2020-07-04T15:10:22.912Z</time>
      </trkpt>
      <trkpt lat="45.87175" lon="4.64104">
        <ele>222.9</ele>
        <time>2020-07-04T15:10:30.524Z</time>
      </trkpt>
      <trkpt lat="45.87174" lon="4.64099">
        <ele>223.4</ele>
        <time>2020-07-04T15:10:38.138Z</time>
      </trkpt>
      <trkpt lat="45.87173" lon="4.64088">
        <ele>224.2</ele>
        <time>2020-07-04T15:10:45.757Z</time>
      </trkpt>
      <trkpt lat="45.87173" lon="4.64085">
        <ele>224.4</ele>
        <time>2020-07-04T15:10:53.377Z</time>
      </trkpt>
      <trkpt lat="45.87172" lon="4.64068">
        <ele>225.6</ele>
        <time>2020-07-04T15:11:01.004Z</time>
      </trkpt>
      <trkpt lat="45.87174" lon="4.64055">
        <ele>226.1</ele>
        <time>2020-07-04T15:11:08.637Z</time>
      </trkpt>
      <trkpt lat="45.87173" lon="4.64052">
        <ele>226.4</ele>
        <time>2020-07-04T15:11:16.271Z</time>
      </trkpt>
      <trkpt lat="45.87166" lon="4.64047">
        <ele>227.9</ele>
        <time>2020-07-04T15:11:23.910Z</time>
      </trkpt>
      <trkpt lat="45.87161" lon="4.64046">
        <ele>228.8</ele>
        <time>2020-07-04T15:11:31.552Z</time>
      </trkpt>
      <trkpt lat="45.87148" lon="4.64047">
        <ele>230.9</ele>
        <time>2020-07-04T15:11:39.202Z</time>
      </trkpt>
      <trkpt lat="45.87139" lon="4.64049">
        <ele>232.2</ele>
        <time>2020-07-04T15:11:46.857Z</time>
      </trkpt>
      <trkpt lat="45.87135" lon="4.64048">
        <ele>232.5</ele>
        <time>2020-07-04T15:11:54.514Z</time>
      </trkpt>
      <trkpt lat="45.87132" lon="4.64044">
        <ele>232.9</ele>
        <time>2020-07-04T15:12:02.174Z</time>
      </trkpt>
      <trkpt lat="45.87126" lon="4.64043">
        <ele>233.2</ele>
        <time>2020-07-04T15:12:09.838Z</time>
      </trkpt>
      <trkpt lat="45.87128" lon="4.64051">
        <ele>232.6</ele>
        <time>2020-07-04T15:12:17.505Z</time>
      </trkpt>
      <trkpt lat="45.87138" lon="4.64051">
        <ele>232.2</ele>
        <time>2020-07-04T15:12:25.179Z</time>
      </trkpt>
      <trkpt lat="45.87142" lon="4.64051">
        <ele>231.7</ele>
        <time>2020-07-04T15:12:32.855Z</time>
      </trkpt>
      <trkpt lat="45.87144" lon="4.6405">
        <ele>231.4</ele>
        <time>2020-07-04T15:12:40.532Z</time>
      </trkpt>
      <trkpt lat="45.87145" lon="4.64044">
        <ele>231.6</ele>
        <time>2020-07-04T15:12:48.212Z</time>
      </trkpt>
      <trkpt lat="45.87145" lon="4.64042">
        <ele>231.7</ele>
        <time>2020-07-04T15:12:55.893Z</time>
      </trkpt>
      <trkpt lat="45.87141" lon="4.6404">
        <ele>232.5</ele>
        <time>2020-07-04T15:13:03.576Z</time>
      </trkpt>
      <trkpt lat="45.87139" lon="4.64041">
        <ele>232.7</ele>
        <time>2020-07-04T15:13:11.260Z</time>
      </trkpt>
      <trkpt lat="45.8714" lon="4.64041">
        <ele>232.6</ele>
        <time>2020-07-04T15:13:18.944Z</time>
      </trkpt>
      <trkpt lat="45.8714" lon="4.64042">
        <ele>232.5</ele>
        <time>2020-07-04T15:13:26.628Z</time>
      </trkpt>
      <trkpt lat="45.87139" lon="4.64042">
        <ele>232.6</ele>
        <time>2020-07-04T15:13:34.313Z</time>
      </trkpt>
      <trkpt lat="45.87133" lon="4.64041">
        <ele>233</ele>
        <time>2020-07-04T15:13:42.001Z</time>
      </trkpt>
      <trkpt lat="45.8713" lon="4.64035">
        <ele>233.5</ele>
        <time>2020-07-04T15:13:49.692Z</time>
      </trkpt>
      <trkpt lat="45.87125" lon="4.64029">
        <ele>234.1</ele>
        <time>2020-07-04T15:13:57.387Z</time>
      </trkpt>
      <trkpt lat="45.87124" lon="4.64028">
        <ele>234.2</ele>
        <time>2020-07-04T15:14:05.083Z</time>
      </trkpt>
      <trkpt lat="45.87116" lon="4.64019">
        <ele>235.1</ele>
        <time>2020-07-04T15:14:12.785Z</time>
      </trkpt>
      <trkpt lat="45.87103" lon="4.64007">
        <ele>236.5</ele>
        <time>2020-07-04T15:14:20.497Z</time>
      </trkpt>
      <trkpt lat="45.87099" lon="4.64004">
        <ele>236.8</ele>
        <time>2020-07-04T15:14:28.211Z</time>
      </trkpt>
      <trkpt lat="45.87088" lon="4.63995">
        <ele>237.9</ele>
        <time>2020-07-04T15:14:35.933Z</time>
      </trkpt>
      <trkpt lat="45.87082" lon="4.6399">
        <ele>238.5</ele>
        <time>2020-07-04T15:14:43.659Z</time>
      </trkpt>
      <trkpt lat="45.87074" lon="4.63983">
        <ele>239.3</ele>
        <time>2020-07-04T15:14:51.390Z</time>
      </trkpt>
      <trkpt lat="45.87067" lon="4.63974">
        <ele>240.2</ele>
        <time>2020-07-04T15:14:59.128Z</time>
      </trkpt>
      <trkpt lat="45.87051" lon="4.63958">
        <ele>241.7</ele>
        <time>2020-07-04T15:15:06.877Z</time>
      </trkpt>
      <trkpt lat="45.87036" lon="4.63941">
        <ele>243.3</ele>
        <time>2020-07-04T15:15:14.638Z</time>
      </trkpt>
      <trkpt lat="45.87033" lon="4.63938">
        <ele>243.7</ele>
        <time>2020-07-04T15:15:22.400Z</time>
      </trkpt>
      <trkpt lat="45.87024" lon="4.63932">
        <ele>244.3</ele>
        <time>2020-07-04T15:15:30.169Z</time>
      </trkpt>
      <trkpt lat="45.8702" lon="4.63928">
        <ele>244.8</ele>
        <time>2020-07-04T15:15:37.940Z</time>
      </trkpt>
      <trkpt lat="45.87012" lon="4.63919">
        <ele>245.7</ele>
        <time>2020-07-04T15:15:45.718Z</time>
      </trkpt>
      <trkpt lat="45.87009" lon="4.63916">
        <ele>246.1</ele>
        <time>2020-07-04T15:15:53.498Z</time>
      </trkpt>
      <trkpt lat="45.87002" lon="4.63907">
        <ele>247</ele>
        <time>2020-07-04T15:16:01.284Z</time>
      </trkpt>
      <trkpt lat="45.86998" lon="4.63905">
        <ele>247.2</ele>
        <time>2020-07-04T15:16:09.072Z</time>
      </trkpt>
      <trkpt lat="45.86998" lon="4.63905">
        <ele>247.2</ele>
        <time>2020-07-04T15:16:16.860Z</time>
      </trkpt>
      <trkpt lat="45.86995" lon="4.63903">
        <ele>247.5</ele>
        <time>2020-07-04T15:16:24.650Z</time>
      </trkpt>
      <trkpt lat="45.86984" lon="4.63894">
        <ele>248.5</ele>
        <time>2020-07-04T15:16:32.448Z</time>
      </trkpt>
      <trkpt lat="45.86972" lon="4.63881">
        <ele>249.8</ele>
        <time>2020-07-04T15:16:40.255Z</time>
      </trkpt>
      <trkpt lat="45.86966" lon="4.63875">
        <ele>250.3</ele>
        <time>2020-07-04T15:16:48.066Z</time>
      </trkpt>
      <trkpt lat="45.86959" lon="4.63868">
        <ele>250.8</ele>
        <time>2020-07-04T15:16:55.883Z</time>
      </trkpt>
      <trkpt lat="45.86957" lon="4.63866">
        <ele>251.1</ele>
        <time>2020-07-04T15:17:03.701Z</time>
      </trkpt>
      <trkpt lat="45.8695" lon="4.63859">
        <ele>252</ele>
        <time>2020-07-04T15:17:11.524Z</time>
      </trkpt>
      <trkpt lat="45.86943" lon="4.63853">
        <ele>252.8</ele>
        <time>2020-07-04T15:17:19.352Z</time>
      </trkpt>
      <trkpt lat="45.8694" lon="4.6385">
        <ele>253.2</ele>
        <time>2020-07-04T15:17:27.182Z</time>
      </trkpt>
      <trkpt lat="45.86931" lon="4.63842">
        <ele>254.2</ele>
        <time>2020-07-04T15:17:35.018Z</time>
      </trkpt>
      <trkpt lat="45.86928" lon="4.63839">
        <ele>254.6</ele>
        <time>2020-07-04T15:17:42.857Z</time>
      </trkpt>
      <trkpt lat="45.86917" lon="4.63829">
        <ele>255.9</ele>
        <time>2020-07-04T15:17:50.704Z</time>
      </trkpt>
      <trkpt lat="45.86915" lon="4.63827">
        <ele>256.2</ele>
        <time>2020-07-04T15:17:58.552Z</time>
      </trkpt>
      <trkpt lat="45.86903" lon="4.63815">
        <ele>257.7</ele>
        <time>2020-07-04T15:18:06.409Z</time>
      </trkpt>
      <trkpt lat="45.8689" lon="4.63804">
        <ele>259.1</ele>
        <time>2020-07-04T15:18:14.275Z</time>
      </trkpt>
      <trkpt lat="45.86887" lon="4.63801">
        <ele>259.5</ele>
        <time>2020-07-04T15:18:22.143Z</time>
      </trkpt>
      <trkpt lat="45.86879" lon="4.63794">
        <ele>260.2</ele>
        <time>2020-07-04T15:18:30.017Z</time>
      </trkpt>
      <trkpt lat="45.86877" lon="4.63793">
        <ele>260.2</ele>
        <time>2020-07-04T15:18:37.892Z</time>
      </trkpt>
      <trkpt lat="45.86872" lon="4.63788">
        <ele>260.8</ele>
        <time>2020-07-04T15:18:45.771Z</time>
      </trkpt>
      <trkpt lat="45.86868" lon="4.63785">
        <ele>261.1</ele>
        <time>2020-07-04T15:18:53.653Z</time>
      </trkpt>
      <trkpt lat="45.86862" lon="4.6378">
        <ele>261.8</ele>
        <time>2020-07-04T15:19:01.539Z</time>
      </trkpt>
      <trkpt lat="45.86851" lon="4.63769">
        <ele>263.3</ele>
        <time>2020-07-04T15:19:09.433Z</time>
      </trkpt>
      <trkpt lat="45.86848" lon="4.63767">
        <ele>263.6</ele>
        <time>2020-07-04T15:19:17.329Z</time>
      </trkpt>
      <trkpt lat="45.86839" lon="4.63759">
        <ele>264.7</ele>
        <time>2020-07-04T15:19:25.232Z</time>
      </trkpt>
      <trkpt lat="45.86834" lon="4.63754">
        <ele>265.4</ele>
        <time>2020-07-04T15:19:33.138Z</time>
      </trkpt>
      <trkpt lat="45.8683" lon="4.6375">
        <ele>266</ele>
        <time>2020-07-04T15:19:41.047Z</time>
      </trkpt>
      <trkpt lat="45.86823" lon="4.63746">
        <ele>266.4</ele>
        <time>2020-07-04T15:19:48.960Z</time>
      </trkpt>
      <trkpt lat="45.86814" lon="4.63738">
        <ele>267.5</ele>
        <time>2020-07-04T15:19:56.880Z</time>
      </trkpt>
      <trkpt lat="45.86813" lon="4.63737">
        <ele>267.7</ele>
        <time>2020-07-04T15:20:04.801Z</time>
      </trkpt>
      <trkpt lat="45.86804" lon="4.63729">
        <ele>268.9</ele>
        <time>2020-07-04T15:20:12.728Z</time>
      </trkpt>
      <trkpt lat="45.86801" lon="4.63727">
        <ele>269.3</ele>
        <time>2020-07-04T15:20:20.657Z</time>
      </trkpt>
      <trkpt lat="45.86797" lon="4.63724">
        <ele>269.8</ele>
        <time>2020-07-04T15:20:28.588Z</time>
      </trkpt>
      <trkpt lat="45.86796" lon="4.63723">
        <ele>270</ele>
        <time>2020-07-04T15:20:36.521Z</time>
      </trkpt>
      <trkpt lat="45.86793" lon="4.6372">
        <ele>270.6</ele>
        <time>2020-07-04T15:20:44.455Z</time>
      </trkpt>
      <trkpt lat="45.8679" lon="4.63717">
        <ele>271.2</ele>
        <time>2020-07-04T15:20:52.392Z</time>
      </trkpt>
      <trkpt lat="45.86789" lon="4.63716">
        <ele>271.4</ele>
        <time>2020-07-04T15:21:00.330Z</time>
      </trkpt>
      <trkpt lat="45.86786" lon="4.63714">
        <ele>271.8</ele>
        <time>2020-07-04T15:21:08.270Z</time>
      </trkpt>
      <trkpt lat="45.86784" lon="4.63712">
        <ele>272.1</ele>
        <time>2020-07-04T15:21:16.211Z</time>
      </trkpt>
      <trkpt lat="45.8678" lon="4.63707">
        <ele>273.1</ele>
        <time>2020-07-04T15:21:24.155Z</time>
      </trkpt>
      <trkpt lat="45.86776" lon="4.637">
        <ele>274.1</ele>
        <time>2020-07-04T15:21:32.103Z</time>
      </trkpt>
      <trkpt lat="45.86773" lon="4.63699">
        <ele>274.2</ele>
        <time>2020-07-04T15:21:40.053Z</time>
      </trkpt>
      <trkpt lat="45.86767" lon="4.63695">
        <ele>274.3</ele>
        <time>2020-07-04T15:21:48.007Z</time>
      </trkpt>
      <trkpt lat="45.86766" lon="4.63695">
        <ele>274.3</ele>
        <time>2020-07-04T15:21:55.961Z</time>
      </trkpt>
      <trkpt lat="45.86764" lon="4.63695">
        <ele>274.3</ele>
        <time>2020-07-04T15:22:03.916Z</time>
      </trkpt>
      <trkpt lat="45.86763" lon="4.63695">
        <ele>274.3</ele>
        <time>2020-07-04T15:22:11.872Z</time>
      </trkpt>
      <trkpt lat="45.86764" lon="4.63695">
        <ele>274.3</ele>
        <time>2020-07-04T15:22:19.828Z</time>
      </trkpt>
      <trkpt lat="45.86767" lon="4.63697">
        <ele>274.3</ele>
        <time>2020-07-04T15:22:27.786Z</time>
      </trkpt>
      <trkpt lat="45.86768" lon="4.63698">
        <ele>274.2</ele>
        <time>2020-07-04T15:22:35.745Z</time>
      </trkpt>
      <trkpt lat="45.86768" lon="4.63698">
        <ele>274.2</ele>
        <time>2020-07-04T15:22:43.704Z</time>
      </trkpt>
      <trkpt lat="45.86767" lon="4.63695">
        <ele>274.3</ele>
        <time>2020-07-04T15:22:51.665Z</time>
      </trkpt>
      <trkpt lat="45.86761" lon="4.6369">
        <ele>274.6</ele>
        <time>2020-07-04T15:22:59.630Z</time>
      </trkpt>
      <trkpt lat="45.86759" lon="4.63689">
        <ele>274.6</ele>
        <time>2020-07-04T15:23:07.596Z</time>
      </trkpt>
      <trkpt lat="45.86753" lon="4.6369">
        <ele>274.6</ele>
        <time>2020-07-04T15:23:15.566Z</time>
      </trkpt>
      <trkpt lat="45.86749" lon="4.63683">
        <ele>274.9</ele>
        <time>2020-07-04T15:23:23.539Z</time>
      </trkpt>
      <trkpt lat="45.86749" lon="4.63683">
        <ele>274.9</ele>
        <time>2020-07-04T15:23:31.513Z</time>
      </trkpt>
      <trkpt lat="45.86749" lon="4.63682">
        <ele>275</ele>
        <time>2020-07-04T15:23:39.487Z</time>
      </trkpt>
      <trkpt lat="45.86749" lon="4.63682">
        <ele>275</ele>
        <time>2020-07-04T15:23:47.461Z</time>
      </trkpt>
      <trkpt lat="45.86749" lon="4.63682">
        <ele>275</ele>
        <time>2020-07-04T15:23:55.435Z</time>
      </trkpt>
      <trkpt lat="45.86749" lon="4.63682">
        <ele>275</ele>
        <time>2020-07-04T15:24:03.409Z</time>
      </trkpt>
      <trkpt lat="45.86749" lon="4.63682">
        <ele>275</ele>
        <time>2020-07-04T15:24:11.383Z</time>
      </trkpt>
      <trkpt lat="45.86749" lon="4.63682">
        <ele>275</ele>
        <time>2020-07-04T15:24:19.357Z</time>
      </trkpt>
      <trkpt lat="45.86751" lon="4.63682">
        <ele>275</ele>
        <time>2020-07-04T15:24:27.332Z</time>
      </trkpt>
      <trkpt lat="45.86751" lon="4.63682">
        <ele>275</ele>
        <time>2020-07-04T15:24:35.307Z</time>
      </trkpt>
      <trkpt lat="45.86751" lon="4.63685">
        <ele>274.8</ele>
        <time>2020-07-04T15:24:43.284Z</time>
      </trkpt>
      <trkpt lat="45.86751" lon="4.63685">
        <ele>274.8</ele>
        <time>2020-07-04T15:24:51.261Z</time>
      </trkpt>
      <trkpt lat="45.86751" lon="4.63686">
        <ele>274.8</ele>
        <time>2020-07-04T15:24:59.238Z</time>
      </trkpt>
      <trkpt lat="45.86749" lon="4.63687">
        <ele>274.7</ele>
        <time>2020-07-04T15:25:07.216Z</time>
      </trkpt>
      <trkpt lat="45.86746" lon="4.63689">
        <ele>274.6</ele>
        <time>2020-07-04T15:25:15.196Z</time>
      </trkpt>
      <trkpt lat="45.86736" lon="4.63689">
        <ele>274.6</ele>
        <time>2020-07-04T15:25:23.182Z</time>
      </trkpt>
      <trkpt lat="45.86736" lon="4.63686">
        <ele>274.8</ele>
        <time>2020-07-04T15:25:31.169Z</time>
      </trkpt>
      <trkpt lat="45.86735" lon="4.63675">
        <ele>275.3</ele>
        <time>2020-07-04T15:25:39.161Z</time>
      </trkpt>
      <trkpt lat="45.86735" lon="4.63667">
        <ele>275.7</ele>
        <time>2020-07-04T15:25:47.156Z</time>
      </trkpt>
      <trkpt lat="45.86736" lon="4.63647">
        <ele>276.7</ele>
        <time>2020-07-04T15:25:55.160Z</time>
      </trkpt>
      <trkpt lat="45.86736" lon="4.63641">
        <ele>276.9</ele>
        <time>2020-07-04T15:26:03.166Z</time>
      </trkpt>
      <trkpt lat="45.86736" lon="4.63627">
        <ele>277.8</ele>
        <time>2020-07-04T15:26:11.178Z</time>
      </trkpt>
      <trkpt lat="45.86736" lon="4.63621">
        <ele>278.3</ele>
        <time>2020-07-04T15:26:19.192Z</time>
      </trkpt>
      <trkpt lat="45.86736" lon="4.63612">
        <ele>278.5</ele>
        <time>2020-07-04T15:26:27.210Z</time>
      </trkpt>
      <trkpt lat="45.86737" lon="4.63597">
        <ele>278.5</ele>
        <time>2020-07-04T15:26:35.235Z</time>
      </trkpt>
      <trkpt lat="45.86738" lon="4.63595">
        <ele>278.5</ele>
        <time>2020-07-04T15:26:43.261Z</time>
      </trkpt>
      <trkpt lat="45.86739" lon="4.63576">
        <ele>278.6</ele>
        <time>2020-07-04T15:26:51.295Z</time>
      </trkpt>
      <trkpt lat="45.86741" lon="4.63562">
        <ele>278.7</ele>
        <time>2020-07-04T15:26:59.335Z</time>
      </trkpt>
      <trkpt lat="45.86742" lon="4.6356">
        <ele>278.7</ele>
        <time>2020-07-04T15:27:07.376Z</time>
      </trkpt>
      <trkpt lat="45.86743" lon="4.6354">
        <ele>278.9</ele>
        <time>2020-07-04T15:27:15.425Z</time>
      </trkpt>
      <trkpt lat="45.86744" lon="4.63534">
        <ele>279.1</ele>
        <time>2020-07-04T15:27:23.476Z</time>
      </trkpt>
      <trkpt lat="45.86744" lon="4.63523">
        <ele>279.3</ele>
        <time>2020-07-04T15:27:31.532Z</time>
      </trkpt>
      <trkpt lat="45.86746" lon="4.63502">
        <ele>279.9</ele>
        <time>2020-07-04T15:27:39.597Z</time>
      </trkpt>
      <trkpt lat="45.86746" lon="4.635">
        <ele>280</ele>
        <time>2020-07-04T15:27:47.663Z</time>
      </trkpt>
      <trkpt lat="45.86747" lon="4.6349">
        <ele>280.3</ele>
        <time>2020-07-04T15:27:55.733Z</time>
      </trkpt>
      <trkpt lat="45.86748" lon="4.63475">
        <ele>280.6</ele>
        <time>2020-07-04T15:28:03.810Z</time>
      </trkpt>
      <trkpt lat="45.86751" lon="4.63463">
        <ele>280.7</ele>
        <time>2020-07-04T15:28:11.892Z</time>
      </trkpt>
      <trkpt lat="45.86752" lon="4.63458">
        <ele>280.7</ele>
        <time>2020-07-04T15:28:19.976Z</time>
      </trkpt>
      <trkpt lat="45.86756" lon="4.63447">
        <ele>281.1</ele>
        <time>2020-07-04T15:28:28.065Z</time>
      </trkpt>
      <trkpt lat="45.86761" lon="4.63438">
        <ele>281.8</ele>
        <time>2020-07-04T15:28:36.159Z</time>
      </trkpt>
      <trkpt lat="45.8676" lon="4.63436">
        <ele>281.9</ele>
        <time>2020-07-04T15:28:44.254Z</time>
      </trkpt>
      <trkpt lat="45.8676" lon="4.63434">
        <ele>282</ele>
        <time>2020-07-04T15:28:52.350Z</time>
      </trkpt>
      <trkpt lat="45.86758" lon="4.63428">
        <ele>282.3</ele>
        <time>2020-07-04T15:29:00.449Z</time>
      </trkpt>
      <trkpt lat="45.86753" lon="4.63415">
        <ele>283</ele>
        <time>2020-07-04T15:29:08.554Z</time>
      </trkpt>
      <trkpt lat="45.86752" lon="4.63412">
        <ele>283.1</ele>
        <time>2020-07-04T15:29:16.661Z</time>
      </trkpt>
      <trkpt lat="45.86749" lon="4.63405">
        <ele>283.5</ele>
        <time>2020-07-04T15:29:24.771Z</time>
      </trkpt>
      <trkpt lat="45.86748" lon="4.63399">
        <ele>283.8</ele>
        <time>2020-07-04T15:29:32.883Z</time>
      </trkpt>
      <trkpt lat="45.86748" lon="4.63397">
        <ele>283.9</ele>
        <time>2020-07-04T15:29:40.996Z</time>
      </trkpt>
      <trkpt lat="45.86747" lon="4.63391">
        <ele>284.3</ele>
        <time>2020-07-04T15:29:49.112Z</time>
      </trkpt>
      <trkpt lat="45.86744" lon="4.63381">
        <ele>284.9</ele>
        <time>2020-07-04T15:29:57.232Z</time>
      </trkpt>
      <trkpt lat="45.86741" lon="4.63372">
        <ele>285.4</ele>
        <time>2020-07-04T15:30:05.356Z</time>
      </trkpt>
      <trkpt lat="45.86737" lon="4.63361">
        <ele>286</ele>
        <time>2020-07-04T15:30:13.486Z</time>
      </trkpt>
      <trkpt lat="45.86736" lon="4.63357">
        <ele>286.2</ele>
        <time>2020-07-04T15:30:21.618Z</time>
      </trkpt>
      <trkpt lat="45.86733" lon="4.63341">
        <ele>287</ele>
        <time>2020-07-04T15:30:29.757Z</time>
      </trkpt>
      <trkpt lat="45.8673" lon="4.63332">
        <ele>287.5</ele>
        <time>2020-07-04T15:30:37.900Z</time>
      </trkpt>
      <trkpt lat="45.86729" lon="4.63327">
        <ele>287.7</ele>
        <time>2020-07-04T15:30:46.045Z</time>
      </trkpt>
      <trkpt lat="45.86728" lon="4.63324">
        <ele>287.9</ele>
        <time>2020-07-04T15:30:54.191Z</time>
      </trkpt>
      <trkpt lat="45.86726" lon="4.63315">
        <ele>288.3</ele>
        <time>2020-07-04T15:31:02.341Z</time>
      </trkpt>
      <trkpt lat="45.86721" lon="4.63304">
        <ele>288.9</ele>
        <time>2020-07-04T15:31:10.497Z</time>
      </trkpt>
      <trkpt lat="45.8672" lon="4.63301">
        <ele>289.1</ele>
        <time>2020-07-04T15:31:18.654Z</time>
      </trkpt>
      <trkpt lat="45.86711" lon="4.63278">
        <ele>290.1</ele>
        <time>2020-07-04T15:31:26.822Z</time>
      </trkpt>
      <trkpt lat="45.8671" lon="4.63275">
        <ele>290.1</ele>
        <time>2020-07-04T15:31:34.992Z</time>
      </trkpt>
      <trkpt lat="45.86706" lon="4.63257">
        <ele>290.6</ele>
        <time>2020-07-04T15:31:43.170Z</time>
      </trkpt>
      <trkpt lat="45.86705" lon="4.63254">
        <ele>290.7</ele>
        <time>2020-07-04T15:31:51.349Z</time>
      </trkpt>
      <trkpt lat="45.86701" lon="4.63233">
        <ele>291.4</ele>
        <time>2020-07-04T15:31:59.537Z</time>
      </trkpt>
      <trkpt lat="45.86698" lon="4.63209">
        <ele>292.2</ele>
        <time>2020-07-04T15:32:07.735Z</time>
      </trkpt>
      <trkpt lat="45.86697" lon="4.63202">
        <ele>292.4</ele>
        <time>2020-07-04T15:32:15.937Z</time>
      </trkpt>
      <trkpt lat="45.86694" lon="4.6319">
        <ele>292.3</ele>
        <time>2020-07-04T15:32:24.144Z</time>
      </trkpt>
      <trkpt lat="45.86692" lon="4.63167">
        <ele>292.6</ele>
        <time>2020-07-04T15:32:32.360Z</time>
      </trkpt>
      <trkpt lat="45.86693" lon="4.63161">
        <ele>293.1</ele>
        <time>2020-07-04T15:32:40.579Z</time>
      </trkpt>
      <trkpt lat="45.86694" lon="4.63143">
        <ele>294.5</ele>
        <time>2020-07-04T15:32:48.806Z</time>
      </trkpt>
      <trkpt lat="45.86696" lon="4.63122">
        <ele>296.2</ele>
        <time>2020-07-04T15:32:57.042Z</time>
      </trkpt>
      <trkpt lat="45.86696" lon="4.63116">
        <ele>296.5</ele>
        <time>2020-07-04T15:33:05.280Z</time>
      </trkpt>
      <trkpt lat="45.86695" lon="4.631">
        <ele>296.6</ele>
        <time>2020-07-04T15:33:13.525Z</time>
      </trkpt>
      <trkpt lat="45.86695" lon="4.631">
        <ele>296.6</ele>
        <time>2020-07-04T15:33:21.770Z</time>
      </trkpt>
      <trkpt lat="45.86695" lon="4.63099">
        <ele>296.6</ele>
        <time>2020-07-04T15:33:30.015Z</time>
      </trkpt>
      <trkpt lat="45.86695" lon="4.63098">
        <ele>296.6</ele>
        <time>2020-07-04T15:33:38.261Z</time>
      </trkpt>
      <trkpt lat="45.86696" lon="4.63092">
        <ele>296.7</ele>
        <time>2020-07-04T15:33:46.509Z</time>
      </trkpt>
      <trkpt lat="45.86702" lon="4.63093">
        <ele>297.4</ele>
        <time>2020-07-04T15:33:54.761Z</time>
      </trkpt>
      <trkpt lat="45.86703" lon="4.63095">
        <ele>297.4</ele>
        <time>2020-07-04T15:34:03.014Z</time>
      </trkpt>
      <trkpt lat="45.86712" lon="4.63102">
        <ele>298.2</ele>
        <time>2020-07-04T15:34:11.273Z</time>
      </trkpt>
      <trkpt lat="45.86714" lon="4.63103">
        <ele>298.4</ele>
        <time>2020-07-04T15:34:19.534Z</time>
      </trkpt>
      <trkpt lat="45.86729" lon="4.63114">
        <ele>299.7</ele>
        <time>2020-07-04T15:34:27.805Z</time>
      </trkpt>
      <trkpt lat="45.86742" lon="4.63119">
        <ele>300.8</ele>
        <time>2020-07-04T15:34:36.084Z</time>
      </trkpt>
      <trkpt lat="45.86744" lon="4.63119">
        <ele>301</ele>
        <time>2020-07-04T15:34:44.364Z</time>
      </trkpt>
      <trkpt lat="45.86757" lon="4.63119">
        <ele>302.3</ele>
        <time>2020-07-04T15:34:52.652Z</time>
      </trkpt>
      <trkpt lat="45.86762" lon="4.63116">
        <ele>302.8</ele>
        <time>2020-07-04T15:35:00.943Z</time>
      </trkpt>
      <trkpt lat="45.86768" lon="4.63111">
        <ele>303.5</ele>
        <time>2020-07-04T15:35:09.239Z</time>
      </trkpt>
      <trkpt lat="45.86776" lon="4.631">
        <ele>304.6</ele>
        <time>2020-07-04T15:35:17.541Z</time>
      </trkpt>
      <trkpt lat="45.8678" lon="4.63095">
        <ele>305.1</ele>
        <time>2020-07-04T15:35:25.846Z</time>
      </trkpt>
      <trkpt lat="45.86781" lon="4.63093">
        <ele>305.2</ele>
        <time>2020-07-04T15:35:34.152Z</time>
      </trkpt>
      <trkpt lat="45.86787" lon="4.63083">
        <ele>307</ele>
        <time>2020-07-04T15:35:42.464Z</time>
      </trkpt>
      <trkpt lat="45.86796" lon="4.63071">
        <ele>309.4</ele>
        <time>2020-07-04T15:35:50.783Z</time>
      </trkpt>
      <trkpt lat="45.86797" lon="4.63069">
        <ele>309.8</ele>
        <time>2020-07-04T15:35:59.103Z</time>
      </trkpt>
      <trkpt lat="45.86806" lon="4.63059">
        <ele>312</ele>
        <time>2020-07-04T15:36:07.431Z</time>
      </trkpt>
      <trkpt lat="45.86816" lon="4.6305">
        <ele>314.2</ele>
        <time>2020-07-04T15:36:15.765Z</time>
      </trkpt>
      <trkpt lat="45.86822" lon="4.63046">
        <ele>315.1</ele>
        <time>2020-07-04T15:36:24.103Z</time>
      </trkpt>
      <trkpt lat="45.86827" lon="4.63043">
        <ele>315.7</ele>
        <time>2020-07-04T15:36:32.444Z</time>
      </trkpt>
      <trkpt lat="45.86832" lon="4.63038">
        <ele>316.4</ele>
        <time>2020-07-04T15:36:40.789Z</time>
      </trkpt>
      <trkpt lat="45.86834" lon="4.63036">
        <ele>316.7</ele>
        <time>2020-07-04T15:36:49.136Z</time>
      </trkpt>
      <trkpt lat="45.86841" lon="4.63031">
        <ele>317.6</ele>
        <time>2020-07-04T15:36:57.488Z</time>
      </trkpt>
      <trkpt lat="45.86853" lon="4.63028">
        <ele>318.9</ele>
        <time>2020-07-04T15:37:05.846Z</time>
      </trkpt>
      <trkpt lat="45.86861" lon="4.63028">
        <ele>319.6</ele>
        <time>2020-07-04T15:37:14.210Z</time>
      </trkpt>
      <trkpt lat="45.86863" lon="4.63028">
        <ele>319.8</ele>
        <time>2020-07-04T15:37:22.574Z</time>
      </trkpt>
      <trkpt lat="45.86867" lon="4.63029">
        <ele>320.2</ele>
        <time>2020-07-04T15:37:30.941Z</time>
      </trkpt>
      <trkpt lat="45.86874" lon="4.63028">
        <ele>320.9</ele>
        <time>2020-07-04T15:37:39.313Z</time>
      </trkpt>
      <trkpt lat="45.86876" lon="4.63027">
        <ele>321.1</ele>
        <time>2020-07-04T15:37:47.686Z</time>
      </trkpt>
      <trkpt lat="45.86882" lon="4.63025">
        <ele>321.7</ele>
        <time>2020-07-04T15:37:56.062Z</time>
      </trkpt>
      <trkpt lat="45.86887" lon="4.63023">
        <ele>322.2</ele>
        <time>2020-07-04T15:38:04.442Z</time>
      </trkpt>
      <trkpt lat="45.86891" lon="4.63023">
        <ele>322.4</ele>
        <time>2020-07-04T15:38:12.824Z</time>
      </trkpt>
      <trkpt lat="45.86893" lon="4.63024">
        <ele>322.2</ele>
        <time>2020-07-04T15:38:21.207Z</time>
      </trkpt>
      <trkpt lat="45.86902" lon="4.63025">
        <ele>321.8</ele>
        <time>2020-07-04T15:38:29.595Z</time>
      </trkpt>
      <trkpt lat="45.86906" lon="4.63025">
        <ele>321.6</ele>
        <time>2020-07-04T15:38:37.986Z</time>
      </trkpt>
      <trkpt lat="45.86908" lon="4.63025">
        <ele>321.5</ele>
        <time>2020-07-04T15:38:46.378Z</time>
      </trkpt>
      <trkpt lat="45.86914" lon="4.63024">
        <ele>321.2</ele>
        <time>2020-07-04T15:38:54.774Z</time>
      </trkpt>
      <trkpt lat="45.8692" lon="4.63026">
        <ele>320.9</ele>
        <time>2020-07-04T15:39:03.174Z</time>
      </trkpt>
      <trkpt lat="45.86922" lon="4.63027">
        <ele>320.7</ele>
        <time>2020-07-04T15:39:11.575Z</time>
      </trkpt>
      <trkpt lat="45.86928" lon="4.63033">
        <ele>320.2</ele>
        <time>2020-07-04T15:39:19.980Z</time>
      </trkpt>
      <trkpt lat="45.86931" lon="4.63037">
        <ele>320</ele>
        <time>2020-07-04T15:39:28.388Z</time>
      </trkpt>
      <trkpt lat="45.8694" lon="4.63058">
        <ele>319.8</ele>
        <time>2020-07-04T15:39:36.806Z</time>
      </trkpt>
      <trkpt lat="45.86946" lon="4.63076">
        <ele>319.8</ele>
        <time>2020-07-04T15:39:45.232Z</time>
      </trkpt>
      <trkpt lat="45.86947" lon="4.63081">
        <ele>319.8</ele>
        <time>2020-07-04T15:39:53.661Z</time>
      </trkpt>
      <trkpt lat="45.86951" lon="4.63091">
        <ele>319.7</ele>
        <time>2020-07-04T15:40:02.095Z</time>
      </trkpt>
      <trkpt lat="45.86966" lon="4.63113">
        <ele>319.2</ele>
        <time>2020-07-04T15:40:10.542Z</time>
      </trkpt>
      <trkpt lat="45.86981" lon="4.63119">
        <ele>320.1</ele>
        <time>2020-07-04T15:40:18.998Z</time>
      </trkpt>
      <trkpt lat="45.86995" lon="4.63135">
        <ele>321.9</ele>
        <time>2020-07-04T15:40:27.465Z</time>
      </trkpt>
      <trkpt lat="45.87004" lon="4.63165">
        <ele>323.1</ele>
        <time>2020-07-04T15:40:35.945Z</time>
      </trkpt>
      <trkpt lat="45.87016" lon="4.63184">
        <ele>324.7</ele>
        <time>2020-07-04T15:40:44.436Z</time>
      </trkpt>
      <trkpt lat="45.87028" lon="4.63196">
        <ele>326.3</ele>
        <time>2020-07-04T15:40:52.936Z</time>
      </trkpt>
      <trkpt lat="45.87042" lon="4.6321">
        <ele>327.8</ele>
        <time>2020-07-04T15:41:01.446Z</time>
      </trkpt>
      <trkpt lat="45.87054" lon="4.63216">
        <ele>329.2</ele>
        <time>2020-07-04T15:41:09.964Z</time>
      </trkpt>
      <trkpt lat="45.87066" lon="4.63219">
        <ele>329.9</ele>
        <time>2020-07-04T15:41:18.489Z</time>
      </trkpt>
      <trkpt lat="45.87078" lon="4.63222">
        <ele>330.4</ele>
        <time>2020-07-04T15:41:27.022Z</time>
      </trkpt>
      <trkpt lat="45.87082" lon="4.63223">
        <ele>330.5</ele>
        <time>2020-07-04T15:41:35.557Z</time>
      </trkpt>
      <trkpt lat="45.8709" lon="4.63227">
        <ele>330.8</ele>
        <time>2020-07-04T15:41:44.097Z</time>
      </trkpt>
      <trkpt lat="45.871" lon="4.63229">
        <ele>331.3</ele>
        <time>2020-07-04T15:41:52.643Z</time>
      </trkpt>
      <trkpt lat="45.87102" lon="4.63228">
        <ele>331.5</ele>
        <time>2020-07-04T15:42:01.191Z</time>
      </trkpt>
      <trkpt lat="45.87107" lon="4.63222">
        <ele>332.1</ele>
        <time>2020-07-04T15:42:09.743Z</time>
      </trkpt>
      <trkpt lat="45.8711" lon="4.63209">
        <ele>332.9</ele>
        <time>2020-07-04T15:42:18.300Z</time>
      </trkpt>
      <trkpt lat="45.87111" lon="4.63207">
        <ele>333.1</ele>
        <time>2020-07-04T15:42:26.858Z</time>
      </trkpt>
      <trkpt lat="45.87112" lon="4.63205">
        <ele>333.2</ele>
        <time>2020-07-04T15:42:35.417Z</time>
      </trkpt>
      <trkpt lat="45.87114" lon="4.63194">
        <ele>333.5</ele>
        <time>2020-07-04T15:42:43.981Z</time>
      </trkpt>
      <trkpt lat="45.87114" lon="4.63186">
        <ele>333.5</ele>
        <time>2020-07-04T15:42:52.548Z</time>
      </trkpt>
      <trkpt lat="45.87115" lon="4.63178">
        <ele>333.5</ele>
        <time>2020-07-04T15:43:01.119Z</time>
      </trkpt>
      <trkpt lat="45.87116" lon="4.63165">
        <ele>334.2</ele>
        <time>2020-07-04T15:43:09.695Z</time>
      </trkpt>
      <trkpt lat="45.87116" lon="4.63158">
        <ele>334.6</ele>
        <time>2020-07-04T15:43:18.274Z</time>
      </trkpt>
      <trkpt lat="45.87118" lon="4.63142">
        <ele>335.6</ele>
        <time>2020-07-04T15:43:26.860Z</time>
      </trkpt>
      <trkpt lat="45.87118" lon="4.63139">
        <ele>335.7</ele>
        <time>2020-07-04T15:43:35.448Z</time>
      </trkpt>
      <trkpt lat="45.87122" lon="4.63122">
        <ele>337</ele>
        <time>2020-07-04T15:43:44.043Z</time>
      </trkpt>
      <trkpt lat="45.87125" lon="4.63102">
        <ele>336.6</ele>
        <time>2020-07-04T15:43:52.647Z</time>
      </trkpt>
      <trkpt lat="45.87127" lon="4.63093">
        <ele>336.6</ele>
        <time>2020-07-04T15:44:01.254Z</time>
      </trkpt>
      <trkpt lat="45.87128" lon="4.63086">
        <ele>336.4</ele>
        <time>2020-07-04T15:44:09.864Z</time>
      </trkpt>
      <trkpt lat="45.87132" lon="4.63074">
        <ele>336.5</ele>
        <time>2020-07-04T15:44:18.480Z</time>
      </trkpt>
      <trkpt lat="45.87133" lon="4.63071">
        <ele>336.5</ele>
        <time>2020-07-04T15:44:27.098Z</time>
      </trkpt>
      <trkpt lat="45.87139" lon="4.63059">
        <ele>336.8</ele>
        <time>2020-07-04T15:44:35.722Z</time>
      </trkpt>
      <trkpt lat="45.87141" lon="4.63057">
        <ele>336.8</ele>
        <time>2020-07-04T15:44:44.347Z</time>
      </trkpt>
      <trkpt lat="45.8715" lon="4.63047">
        <ele>336.5</ele>
        <time>2020-07-04T15:44:52.979Z</time>
      </trkpt>
      <trkpt lat="45.87161" lon="4.63043">
        <ele>336.5</ele>
        <time>2020-07-04T15:45:01.618Z</time>
      </trkpt>
      <trkpt lat="45.87162" lon="4.63043">
        <ele>336.5</ele>
        <time>2020-07-04T15:45:10.258Z</time>
      </trkpt>
      <trkpt lat="45.87171" lon="4.6304">
        <ele>336.5</ele>
        <time>2020-07-04T15:45:18.903Z</time>
      </trkpt>
      <trkpt lat="45.87176" lon="4.63038">
        <ele>336.5</ele>
        <time>2020-07-04T15:45:27.552Z</time>
      </trkpt>
      <trkpt lat="45.87178" lon="4.63037">
        <ele>336.5</ele>
        <time>2020-07-04T15:45:36.202Z</time>
      </trkpt>
      <trkpt lat="45.87179" lon="4.63036">
        <ele>336.5</ele>
        <time>2020-07-04T15:45:44.853Z</time>
      </trkpt>
      <trkpt lat="45.87188" lon="4.63027">
        <ele>335.8</ele>
        <time>2020-07-04T15:45:53.510Z</time>
      </trkpt>
      <trkpt lat="45.87189" lon="4.63026">
        <ele>335.7</ele>
        <time>2020-07-04T15:46:02.168Z</time>
      </trkpt>
      <trkpt lat="45.87191" lon="4.63024">
        <ele>335.5</ele>
        <time>2020-07-04T15:46:10.827Z</time>
      </trkpt>
      <trkpt lat="45.87191" lon="4.63023">
        <ele>335.4</ele>
        <time>2020-07-04T15:46:19.487Z</time>
      </trkpt>
      <trkpt lat="45.87191" lon="4.63023">
        <ele>335.4</ele>
        <time>2020-07-04T15:46:28.147Z</time>
      </trkpt>
      <trkpt lat="45.87191" lon="4.63023">
        <ele>335.4</ele>
        <time>2020-07-04T15:46:36.807Z</time>
      </trkpt>
      <trkpt lat="45.87191" lon="4.63023">
        <ele>335.4</ele>
        <time>2020-07-04T15:46:45.467Z</time>
      </trkpt>
      <trkpt lat="45.87192" lon="4.63023">
        <ele>335.4</ele>
        <time>2020-07-04T15:46:54.127Z</time>
      </trkpt>
      <trkpt lat="45.87192" lon="4.63023">
        <ele>335.4</ele>
        <time>2020-07-04T15:47:02.787Z</time>
      </trkpt>
      <trkpt lat="45.87194" lon="4.63022">
        <ele>335.4</ele>
        <time>2020-07-04T15:47:11.449Z</time>
      </trkpt>
      <trkpt lat="45.87203" lon="4.63017">
        <ele>335</ele>
        <time>2020-07-04T15:47:20.116Z</time>
      </trkpt>
      <trkpt lat="45.87215" lon="4.6301">
        <ele>334</ele>
        <time>2020-07-04T15:47:28.791Z</time>
      </trkpt>
      <trkpt lat="45.87225" lon="4.62997">
        <ele>332.3</ele>
        <time>2020-07-04T15:47:37.474Z</time>
      </trkpt>
      <trkpt lat="45.87231" lon="4.6299">
        <ele>331.2</ele>
        <time>2020-07-04T15:47:46.162Z</time>
      </trkpt>
      <trkpt lat="45.87238" lon="4.62985">
        <ele>330.4</ele>
        <time>2020-07-04T15:47:54.855Z</time>
      </trkpt>
      <trkpt lat="45.8725" lon="4.62979">
        <ele>329.2</ele>
        <time>2020-07-04T15:48:03.556Z</time>
      </trkpt>
      <trkpt lat="45.87255" lon="4.62978">
        <ele>328.9</ele>
        <time>2020-07-04T15:48:12.259Z</time>
      </trkpt>
      <trkpt lat="45.87263" lon="4.62971">
        <ele>327.8</ele>
        <time>2020-07-04T15:48:20.968Z</time>
      </trkpt>
      <trkpt lat="45.87265" lon="4.62956">
        <ele>325.9</ele>
        <time>2020-07-04T15:48:29.684Z</time>
      </trkpt>
      <trkpt lat="45.87265" lon="4.62922">
        <ele>324.4</ele>
        <time>2020-07-04T15:48:38.414Z</time>
      </trkpt>
      <trkpt lat="45.87265" lon="4.62913">
        <ele>324.1</ele>
        <time>2020-07-04T15:48:47.147Z</time>
      </trkpt>
      <trkpt lat="45.87266" lon="4.62879">
        <ele>321.6</ele>
        <time>2020-07-04T15:48:55.895Z</time>
      </trkpt>
      <trkpt lat="45.87267" lon="4.62863">
        <ele>320.7</ele>
        <time>2020-07-04T15:49:04.650Z</time>
      </trkpt>
      <trkpt lat="45.87267" lon="4.62855">
        <ele>320.5</ele>
        <time>2020-07-04T15:49:13.408Z</time>
      </trkpt>
      <trkpt lat="45.87268" lon="4.62848">
        <ele>320.3</ele>
        <time>2020-07-04T15:49:22.169Z</time>
      </trkpt>
      <trkpt lat="45.8727" lon="4.6284">
        <ele>319.9</ele>
        <time>2020-07-04T15:49:30.933Z</time>
      </trkpt>
      <trkpt lat="45.87275" lon="4.62826">
        <ele>318.9</ele>
        <time>2020-07-04T15:49:39.704Z</time>
      </trkpt>
      <trkpt lat="45.8728" lon="4.62813">
        <ele>317.8</ele>
        <time>2020-07-04T15:49:48.481Z</time>
      </trkpt>
      <trkpt lat="45.87286" lon="4.62797">
        <ele>316.5</ele>
        <time>2020-07-04T15:49:57.266Z</time>
      </trkpt>
      <trkpt lat="45.87287" lon="4.62793">
        <ele>316.2</ele>
        <time>2020-07-04T15:50:06.053Z</time>
      </trkpt>
      <trkpt lat="45.87288" lon="4.62785">
        <ele>315.7</ele>
        <time>2020-07-04T15:50:14.843Z</time>
      </trkpt>
      <trkpt lat="45.87285" lon="4.62781">
        <ele>315.6</ele>
        <time>2020-07-04T15:50:23.636Z</time>
      </trkpt>
      <trkpt lat="45.87278" lon="4.62777">
        <ele>315.8</ele>
        <time>2020-07-04T15:50:32.433Z</time>
      </trkpt>
      <trkpt lat="45.87276" lon="4.62776">
        <ele>315.9</ele>
        <time>2020-07-04T15:50:41.232Z</time>
      </trkpt>
      <trkpt lat="45.87272" lon="4.62775">
        <ele>316.2</ele>
        <time>2020-07-04T15:50:50.033Z</time>
      </trkpt>
      <trkpt lat="45.87258" lon="4.62767">
        <ele>316.6</ele>
        <time>2020-07-04T15:50:58.843Z</time>
      </trkpt>
      <trkpt lat="45.87248" lon="4.62762">
        <ele>317.1</ele>
        <time>2020-07-04T15:51:07.659Z</time>
      </trkpt>
      <trkpt lat="45.87246" lon="4.62761">
        <ele>317.1</ele>
        <time>2020-07-04T15:51:16.477Z</time>
      </trkpt>
      <trkpt lat="45.87244" lon="4.62762">
        <ele>317.4</ele>
        <time>2020-07-04T15:51:25.296Z</time>
      </trkpt>
      <trkpt lat="45.87241" lon="4.62767">
        <ele>318.3</ele>
        <time>2020-07-04T15:51:34.118Z</time>
      </trkpt>
      <trkpt lat="45.8724" lon="4.6277">
        <ele>318.7</ele>
        <time>2020-07-04T15:51:42.941Z</time>
      </trkpt>
      <trkpt lat="45.87239" lon="4.62772">
        <ele>319</ele>
        <time>2020-07-04T15:51:51.765Z</time>
      </trkpt>
      <trkpt lat="45.87236" lon="4.62779">
        <ele>320</ele>
        <time>2020-07-04T15:52:00.593Z</time>
      </trkpt>
      <trkpt lat="45.87234" lon="4.62781">
        <ele>320.5</ele>
        <time>2020-07-04T15:52:09.422Z</time>
      </trkpt>
      <trkpt lat="45.87229" lon="4.62782">
        <ele>321</ele>
        <time>2020-07-04T15:52:18.254Z</time>
      </trkpt>
      <trkpt lat="45.87221" lon="4.62778">
        <ele>321.3</ele>
        <time>2020-07-04T15:52:27.091Z</time>
      </trkpt>
      <trkpt lat="45.87208" lon="4.62771">
        <ele>321</ele>
        <time>2020-07-04T15:52:35.937Z</time>
      </trkpt>
      <trkpt lat="45.87202" lon="4.6277">
        <ele>320.8</ele>
        <time>2020-07-04T15:52:44.786Z</time>
      </trkpt>
      <trkpt lat="45.87199" lon="4.62769">
        <ele>320.7</ele>
        <time>2020-07-04T15:52:53.637Z</time>
      </trkpt>
      <trkpt lat="45.87196" lon="4.62763">
        <ele>320.3</ele>
        <time>2020-07-04T15:53:02.491Z</time>
      </trkpt>
      <trkpt lat="45.87196" lon="4.6275">
        <ele>319.1</ele>
        <time>2020-07-04T15:53:11.351Z</time>
      </trkpt>
      <trkpt lat="45.87196" lon="4.62745">
        <ele>318.6</ele>
        <time>2020-07-04T15:53:20.213Z</time>
      </trkpt>
      <trkpt lat="45.87197" lon="4.62724">
        <ele>316.3</ele>
        <time>2020-07-04T15:53:29.084Z</time>
      </trkpt>
      <trkpt lat="45.87196" lon="4.62713">
        <ele>315.1</ele>
        <time>2020-07-04T15:53:37.960Z</time>
      </trkpt>
      <trkpt lat="45.87187" lon="4.627">
        <ele>314.2</ele>
        <time>2020-07-04T15:53:46.843Z</time>
      </trkpt>
      <trkpt lat="45.87183" lon="4.62696">
        <ele>314.2</ele>
        <time>2020-07-04T15:53:55.729Z</time>
      </trkpt>
      <trkpt lat="45.87175" lon="4.62689">
        <ele>314.3</ele>
        <time>2020-07-04T15:54:04.621Z</time>
      </trkpt>
      <trkpt lat="45.87163" lon="4.62678">
        <ele>314.3</ele>
        <time>2020-07-04T15:54:13.522Z</time>
      </trkpt>
      <trkpt lat="45.87151" lon="4.62667">
        <ele>314.3</ele>
        <time>2020-07-04T15:54:22.432Z</time>
      </trkpt>
      <trkpt lat="45.87146" lon="4.62664">
        <ele>314.4</ele>
        <time>2020-07-04T15:54:31.345Z</time>
      </trkpt>
      <trkpt lat="45.87123" lon="4.62643">
        <ele>314.5</ele>
        <time>2020-07-04T15:54:40.274Z</time>
      </trkpt>
      <trkpt lat="45.87119" lon="4.6264">
        <ele>314.5</ele>
        <time>2020-07-04T15:54:49.206Z</time>
      </trkpt>
      <trkpt lat="45.87101" lon="4.62623">
        <ele>314.5</ele>
        <time>2020-07-04T15:54:58.151Z</time>
      </trkpt>
      <trkpt lat="45.87097" lon="4.62608">
        <ele>314.1</ele>
        <time>2020-07-04T15:55:07.102Z</time>
      </trkpt>
      <trkpt lat="45.87099" lon="4.62593">
        <ele>313.5</ele>
        <time>2020-07-04T15:55:16.060Z</time>
      </trkpt>
      <trkpt lat="45.87103" lon="4.62576">
        <ele>312.9</ele>
        <time>2020-07-04T15:55:25.025Z</time>
      </trkpt>
      <trkpt lat="45.87111" lon="4.62534">
        <ele>312.4</ele>
        <time>2020-07-04T15:55:34.008Z</time>
      </trkpt>
      <trkpt lat="45.87112" lon="4.62529">
        <ele>312.6</ele>
        <time>2020-07-04T15:55:42.994Z</time>
      </trkpt>
      <trkpt lat="45.87116" lon="4.62509">
        <ele>313.2</ele>
        <time>2020-07-04T15:55:51.989Z</time>
      </trkpt>
      <trkpt lat="45.87118" lon="4.62498">
        <ele>313.6</ele>
        <time>2020-07-04T15:56:00.988Z</time>
      </trkpt>
      <trkpt lat="45.87124" lon="4.6246">
        <ele>314.9</ele>
        <time>2020-07-04T15:56:10.004Z</time>
      </trkpt>
      <trkpt lat="45.87129" lon="4.62418">
        <ele>316.3</ele>
        <time>2020-07-04T15:56:19.038Z</time>
      </trkpt>
      <trkpt lat="45.87138" lon="4.62369">
        <ele>318.9</ele>
        <time>2020-07-04T15:56:28.093Z</time>
      </trkpt>
      <trkpt lat="45.87143" lon="4.62354">
        <ele>319.7</ele>
        <time>2020-07-04T15:56:37.155Z</time>
      </trkpt>
      <trkpt lat="45.87147" lon="4.62342">
        <ele>320.3</ele>
        <time>2020-07-04T15:56:46.223Z</time>
      </trkpt>
      <trkpt lat="45.87149" lon="4.62337">
        <ele>320.5</ele>
        <time>2020-07-04T15:56:55.293Z</time>
      </trkpt>
      <trkpt lat="45.87148" lon="4.62336">
        <ele>320.6</ele>
        <time>2020-07-04T15:57:04.364Z</time>
      </trkpt>
      <trkpt lat="45.87147" lon="4.62336">
        <ele>320.6</ele>
        <time>2020-07-04T15:57:13.435Z</time>
      </trkpt>
      <trkpt lat="45.87142" lon="4.6234">
        <ele>320.4</ele>
        <time>2020-07-04T15:57:22.510Z</time>
      </trkpt>
      <trkpt lat="45.87124" lon="4.62357">
        <ele>319</ele>
        <time>2020-07-04T15:57:31.598Z</time>
      </trkpt>
      <trkpt lat="45.87098" lon="4.62378">
        <ele>317.1</ele>
        <time>2020-07-04T15:57:40.704Z</time>
      </trkpt>
      <trkpt lat="45.87077" lon="4.62391">
        <ele>315.8</ele>
        <time>2020-07-04T15:57:49.824Z</time>
      </trkpt>
      <trkpt lat="45.87069" lon="4.62394">
        <ele>315.8</ele>
        <time>2020-07-04T15:57:58.948Z</time>
      </trkpt>
      <trkpt lat="45.87047" lon="4.62399">
        <ele>315.8</ele>
        <time>2020-07-04T15:58:08.086Z</time>
      </trkpt>
      <trkpt lat="45.87027" lon="4.62403">
        <ele>315.3</ele>
        <time>2020-07-04T15:58:17.236Z</time>
      </trkpt>
      <trkpt lat="45.87023" lon="4.62403">
        <ele>315.2</ele>
        <time>2020-07-04T15:58:26.389Z</time>
      </trkpt>
      <trkpt lat="45.86995" lon="4.62415">
        <ele>314.8</ele>
        <time>2020-07-04T15:58:35.559Z</time>
      </trkpt>
      <trkpt lat="45.86975" lon="4.62431">
        <ele>314.8</ele>
        <time>2020-07-04T15:58:44.743Z</time>
      </trkpt>
      <trkpt lat="45.8697" lon="4.62434">
        <ele>314.7</ele>
        <time>2020-07-04T15:58:53.930Z</time>
      </trkpt>
      <trkpt lat="45.86966" lon="4.62438">
        <ele>314.6</ele>
        <time>2020-07-04T15:59:03.120Z</time>
      </trkpt>
      <trkpt lat="45.86937" lon="4.62458">
        <ele>313.3</ele>
        <time>2020-07-04T15:59:12.329Z</time>
      </trkpt>
      <trkpt lat="45.86923" lon="4.62468">
        <ele>312.6</ele>
        <time>2020-07-04T15:59:21.548Z</time>
      </trkpt>
      <trkpt lat="45.86894" lon="4.62485">
        <ele>311.6</ele>
        <time>2020-07-04T15:59:30.786Z</time>
      </trkpt>
      <trkpt lat="45.86884" lon="4.62491">
        <ele>311.2</ele>
        <time>2020-07-04T15:59:40.030Z</time>
      </trkpt>
      <trkpt lat="45.8685" lon="4.62515">
        <ele>309.4</ele>
        <time>2020-07-04T15:59:49.297Z</time>
      </trkpt>
      <trkpt lat="45.86816" lon="4.62541">
        <ele>307</ele>
        <time>2020-07-04T15:59:58.587Z</time>
      </trkpt>
      <trkpt lat="45.86812" lon="4.62545">
        <ele>307</ele>
        <time>2020-07-04T16:00:07.880Z</time>
      </trkpt>
      <trkpt lat="45.86786" lon="4.62566">
        <ele>308.4</ele>
        <time>2020-07-04T16:00:17.191Z</time>
      </trkpt>
      <trkpt lat="45.86765" lon="4.62581">
        <ele>309.6</ele>
        <time>2020-07-04T16:00:26.517Z</time>
      </trkpt>
      <trkpt lat="45.86759" lon="4.62585">
        <ele>309.5</ele>
        <time>2020-07-04T16:00:35.847Z</time>
      </trkpt>
      <trkpt lat="45.86745" lon="4.62593">
        <ele>309.2</ele>
        <time>2020-07-04T16:00:45.186Z</time>
      </trkpt>
      <trkpt lat="45.86735" lon="4.62598">
        <ele>308.9</ele>
        <time>2020-07-04T16:00:54.531Z</time>
      </trkpt>
      <trkpt lat="45.86732" lon="4.62601">
        <ele>308.9</ele>
        <time>2020-07-04T16:01:03.878Z</time>
      </trkpt>
      <trkpt lat="45.86733" lon="4.62601">
        <ele>308.9</ele>
        <time>2020-07-04T16:01:13.225Z</time>
      </trkpt>
      <trkpt lat="45.86733" lon="4.62601">
        <ele>308.9</ele>
        <time>2020-07-04T16:01:22.572Z</time>
      </trkpt>
      <trkpt lat="45.86733" lon="4.62601">
        <ele>308.9</ele>
        <time>2020-07-04T16:01:31.919Z</time>
      </trkpt>
      <trkpt lat="45.86732" lon="4.62602">
        <ele>308.9</ele>
        <time>2020-07-04T16:01:41.267Z</time>
      </trkpt>
      <trkpt lat="45.86731" lon="4.62603">
        <ele>308.9</ele>
        <time>2020-07-04T16:01:50.615Z</time>
      </trkpt>
      <trkpt lat="45.8673" lon="4.62606">
        <ele>309</ele>
        <time>2020-07-04T16:01:59.965Z</time>
      </trkpt>
      <trkpt lat="45.8673" lon="4.62606">
        <ele>309</ele>
        <time>2020-07-04T16:02:09.315Z</time>
      </trkpt>
      <trkpt lat="45.8673" lon="4.62606">
        <ele>309</ele>
        <time>2020-07-04T16:02:18.665Z</time>
      </trkpt>
      <trkpt lat="45.8673" lon="4.62607">
        <ele>309</ele>
        <time>2020-07-04T16:02:28.015Z</time>
      </trkpt>
      <trkpt lat="45.8673" lon="4.62608">
        <ele>309</ele>
        <time>2020-07-04T16:02:37.366Z</time>
      </trkpt>
      <trkpt lat="45.8673" lon="4.62618">
        <ele>309.2</ele>
        <time>2020-07-04T16:02:46.721Z</time>
      </trkpt>
      <trkpt lat="45.86728" lon="4.62649">
        <ele>310.5</ele>
        <time>2020-07-04T16:02:56.089Z</time>
      </trkpt>
      <trkpt lat="45.86727" lon="4.62668">
        <ele>310.8</ele>
        <time>2020-07-04T16:03:05.465Z</time>
      </trkpt>
      <trkpt lat="45.86726" lon="4.62685">
        <ele>311</ele>
        <time>2020-07-04T16:03:14.848Z</time>
      </trkpt>
      <trkpt lat="45.86725" lon="4.62709">
        <ele>311.3</ele>
        <time>2020-07-04T16:03:24.241Z</time>
      </trkpt>
      <trkpt lat="45.86724" lon="4.6273">
        <ele>310.9</ele>
        <time>2020-07-04T16:03:33.643Z</time>
      </trkpt>
      <trkpt lat="45.86721" lon="4.62761">
        <ele>310.1</ele>
        <time>2020-07-04T16:03:43.058Z</time>
      </trkpt>
      <trkpt lat="45.86721" lon="4.62766">
        <ele>310</ele>
        <time>2020-07-04T16:03:52.476Z</time>
      </trkpt>
      <trkpt lat="45.86718" lon="4.62807">
        <ele>308.5</ele>
        <time>2020-07-04T16:04:01.911Z</time>
      </trkpt>
      <trkpt lat="45.86716" lon="4.62846">
        <ele>306.8</ele>
        <time>2020-07-04T16:04:11.362Z</time>
      </trkpt>
      <trkpt lat="45.86714" lon="4.62863">
        <ele>305.9</ele>
        <time>2020-07-04T16:04:20.821Z</time>
      </trkpt>
      <trkpt lat="45.8671" lon="4.62898">
        <ele>304.6</ele>
        <time>2020-07-04T16:04:30.294Z</time>
      </trkpt>
      <trkpt lat="45.86708" lon="4.62914">
        <ele>304</ele>
        <time>2020-07-04T16:04:39.774Z</time>
      </trkpt>
      <trkpt lat="45.86706" lon="4.62925">
        <ele>303.4</ele>
        <time>2020-07-04T16:04:49.259Z</time>
      </trkpt>
      <trkpt lat="45.86703" lon="4.62932">
        <ele>302.9</ele>
        <time>2020-07-04T16:04:58.747Z</time>
      </trkpt>
      <trkpt lat="45.86699" lon="4.62934">
        <ele>302.5</ele>
        <time>2020-07-04T16:05:08.238Z</time>
      </trkpt>
      <trkpt lat="45.86696" lon="4.62932">
        <ele>302.2</ele>
        <time>2020-07-04T16:05:17.731Z</time>
      </trkpt>
      <trkpt lat="45.86684" lon="4.62922">
        <ele>300.9</ele>
        <time>2020-07-04T16:05:27.233Z</time>
      </trkpt>
      <trkpt lat="45.86676" lon="4.62916">
        <ele>300.1</ele>
        <time>2020-07-04T16:05:36.740Z</time>
      </trkpt>
      <trkpt lat="45.86672" lon="4.62913">
        <ele>299.7</ele>
        <time>2020-07-04T16:05:46.249Z</time>
      </trkpt>
      <trkpt lat="45.86653" lon="4.62896">
        <ele>297.6</ele>
        <time>2020-07-04T16:05:55.772Z</time>
      </trkpt>
      <trkpt lat="45.86643" lon="4.62885">
        <ele>296.5</ele>
        <time>2020-07-04T16:06:05.303Z</time>
      </trkpt>
      <trkpt lat="45.8664" lon="4.62881">
        <ele>296.2</ele>
        <time>2020-07-04T16:06:14.836Z</time>
      </trkpt>
      <trkpt lat="45.86634" lon="4.62874">
        <ele>296.1</ele>
        <time>2020-07-04T16:06:24.374Z</time>
      </trkpt>
      <trkpt lat="45.86627" lon="4.62865">
        <ele>295.9</ele>
        <time>2020-07-04T16:06:33.917Z</time>
      </trkpt>
      <trkpt lat="45.86625" lon="4.6286">
        <ele>295.8</ele>
        <time>2020-07-04T16:06:43.463Z</time>
      </trkpt>
      <trkpt lat="45.8662" lon="4.62853">
        <ele>295.6</ele>
        <time>2020-07-04T16:06:53.013Z</time>
      </trkpt>
      <trkpt lat="45.86599" lon="4.62825">
        <ele>295.1</ele>
        <time>2020-07-04T16:07:02.580Z</time>
      </trkpt>
      <trkpt lat="45.86583" lon="4.62803">
        <ele>294.8</ele>
        <time>2020-07-04T16:07:12.161Z</time>
      </trkpt>
      <trkpt lat="45.86569" lon="4.62783">
        <ele>294.6</ele>
        <time>2020-07-04T16:07:21.754Z</time>
      </trkpt>
      <trkpt lat="45.86554" lon="4.62759">
        <ele>294.9</ele>
        <time>2020-07-04T16:07:31.360Z</time>
      </trkpt>
      <trkpt lat="45.86542" lon="4.6273">
        <ele>295.3</ele>
        <time>2020-07-04T16:07:40.981Z</time>
      </trkpt>
      <trkpt lat="45.86532" lon="4.62708">
        <ele>295.6</ele>
        <time>2020-07-04T16:07:50.612Z</time>
      </trkpt>
      <trkpt lat="45.86519" lon="4.62681">
        <ele>296.2</ele>
        <time>2020-07-04T16:08:00.257Z</time>
      </trkpt>
      <trkpt lat="45.86507" lon="4.62661">
        <ele>296.6</ele>
        <time>2020-07-04T16:08:09.913Z</time>
      </trkpt>
      <trkpt lat="45.86501" lon="4.62644">
        <ele>297.3</ele>
        <time>2020-07-04T16:08:19.577Z</time>
      </trkpt>
      <trkpt lat="45.86501" lon="4.6264">
        <ele>297.8</ele>
        <time>2020-07-04T16:08:29.243Z</time>
      </trkpt>
      <trkpt lat="45.86503" lon="4.62625">
        <ele>299.6</ele>
        <time>2020-07-04T16:08:38.915Z</time>
      </trkpt>
      <trkpt lat="45.86506" lon="4.62615">
        <ele>300.8</ele>
        <time>2020-07-04T16:08:48.592Z</time>
      </trkpt>
      <trkpt lat="45.86508" lon="4.62604">
        <ele>301.5</ele>
        <time>2020-07-04T16:08:58.274Z</time>
      </trkpt>
      <trkpt lat="45.86511" lon="4.6259">
        <ele>302.5</ele>
        <time>2020-07-04T16:09:07.962Z</time>
      </trkpt>
      <trkpt lat="45.86514" lon="4.62573">
        <ele>303.5</ele>
        <time>2020-07-04T16:09:17.657Z</time>
      </trkpt>
      <trkpt lat="45.86517" lon="4.62559">
        <ele>303.9</ele>
        <time>2020-07-04T16:09:27.359Z</time>
      </trkpt>
      <trkpt lat="45.86518" lon="4.62555">
        <ele>304</ele>
        <time>2020-07-04T16:09:37.062Z</time>
      </trkpt>
      <trkpt lat="45.86521" lon="4.62537">
        <ele>304.5</ele>
        <time>2020-07-04T16:09:46.773Z</time>
      </trkpt>
      <trkpt lat="45.86524" lon="4.62523">
        <ele>305</ele>
        <time>2020-07-04T16:09:56.490Z</time>
      </trkpt>
      <trkpt lat="45.86527" lon="4.62509">
        <ele>305.5</ele>
        <time>2020-07-04T16:10:06.213Z</time>
      </trkpt>
      <trkpt lat="45.86529" lon="4.62499">
        <ele>305.9</ele>
        <time>2020-07-04T16:10:15.941Z</time>
      </trkpt>
      <trkpt lat="45.8653" lon="4.62491">
        <ele>306.2</ele>
        <time>2020-07-04T16:10:25.672Z</time>
      </trkpt>
      <trkpt lat="45.86532" lon="4.62474">
        <ele>306.7</ele>
        <time>2020-07-04T16:10:35.411Z</time>
      </trkpt>
      <trkpt lat="45.86533" lon="4.62464">
        <ele>307</ele>
        <time>2020-07-04T16:10:45.154Z</time>
      </trkpt>
      <trkpt lat="45.86533" lon="4.62461">
        <ele>307.1</ele>
        <time>2020-07-04T16:10:54.898Z</time>
      </trkpt>
      <trkpt lat="45.86535" lon="4.62441">
        <ele>307.6</ele>
        <time>2020-07-04T16:11:04.651Z</time>
      </trkpt>
      <trkpt lat="45.86536" lon="4.62435">
        <ele>307.8</ele>
        <time>2020-07-04T16:11:14.406Z</time>
      </trkpt>
      <trkpt lat="45.86538" lon="4.62408">
        <ele>308.8</ele>
        <time>2020-07-04T16:11:24.173Z</time>
      </trkpt>
      <trkpt lat="45.86539" lon="4.624">
        <ele>309.2</ele>
        <time>2020-07-04T16:11:33.943Z</time>
      </trkpt>
      <trkpt lat="45.86542" lon="4.62374">
        <ele>310.5</ele>
        <time>2020-07-04T16:11:43.724Z</time>
      </trkpt>
      <trkpt lat="45.86551" lon="4.62348">
        <ele>312.1</ele>
        <time>2020-07-04T16:11:53.517Z</time>
      </trkpt>
      <trkpt lat="45.86563" lon="4.62317">
        <ele>313.9</ele>
        <time>2020-07-04T16:12:03.325Z</time>
      </trkpt>
      <trkpt lat="45.86574" lon="4.62288">
        <ele>314.7</ele>
        <time>2020-07-04T16:12:13.147Z</time>
      </trkpt>
      <trkpt lat="45.86577" lon="4.62281">
        <ele>314.7</ele>
        <time>2020-07-04T16:12:22.973Z</time>
      </trkpt>
      <trkpt lat="45.86583" lon="4.62262">
        <ele>314.4</ele>
        <time>2020-07-04T16:12:32.808Z</time>
      </trkpt>
      <trkpt lat="45.86588" lon="4.62251">
        <ele>314.2</ele>
        <time>2020-07-04T16:12:42.648Z</time>
      </trkpt>
      <trkpt lat="45.86596" lon="4.62228">
        <ele>314</ele>
        <time>2020-07-04T16:12:52.499Z</time>
      </trkpt>
      <trkpt lat="45.86598" lon="4.62225">
        <ele>314</ele>
        <time>2020-07-04T16:13:02.352Z</time>
      </trkpt>
      <trkpt lat="45.86602" lon="4.62211">
        <ele>314</ele>
        <time>2020-07-04T16:13:12.211Z</time>
      </trkpt>
      <trkpt lat="45.86606" lon="4.622">
        <ele>314</ele>
        <time>2020-07-04T16:13:22.075Z</time>
      </trkpt>
      <trkpt lat="45.86609" lon="4.62192">
        <ele>313.9</ele>
        <time>2020-07-04T16:13:31.943Z</time>
      </trkpt>
      <trkpt lat="45.86616" lon="4.62169">
        <ele>313.8</ele>
        <time>2020-07-04T16:13:41.821Z</time>
      </trkpt>
      <trkpt lat="45.86631" lon="4.62127">
        <ele>314.7</ele>
        <time>2020-07-04T16:13:51.719Z</time>
      </trkpt>
      <trkpt lat="45.86638" lon="4.62096">
        <ele>314.9</ele>
        <time>2020-07-04T16:14:01.631Z</time>
      </trkpt>
      <trkpt lat="45.86638" lon="4.6209">
        <ele>314.9</ele>
        <time>2020-07-04T16:14:11.546Z</time>
      </trkpt>
      <trkpt lat="45.86637" lon="4.62072">
        <ele>314.9</ele>
        <time>2020-07-04T16:14:21.468Z</time>
      </trkpt>
      <trkpt lat="45.86635" lon="4.6206">
        <ele>314.8</ele>
        <time>2020-07-04T16:14:31.395Z</time>
      </trkpt>
      <trkpt lat="45.86629" lon="4.62015">
        <ele>314.6</ele>
        <time>2020-07-04T16:14:41.342Z</time>
      </trkpt>
      <trkpt lat="45.86626" lon="4.61984">
        <ele>314.5</ele>
        <time>2020-07-04T16:14:51.302Z</time>
      </trkpt>
      <trkpt lat="45.86626" lon="4.61978">
        <ele>314.5</ele>
        <time>2020-07-04T16:15:01.264Z</time>
      </trkpt>
      <trkpt lat="45.86626" lon="4.61973">
        <ele>314.5</ele>
        <time>2020-07-04T16:15:11.229Z</time>
      </trkpt>
      <trkpt lat="45.86625" lon="4.61959">
        <ele>314.5</ele>
        <time>2020-07-04T16:15:21.199Z</time>
      </trkpt>
      <trkpt lat="45.86624" lon="4.61956">
        <ele>314.4</ele>
        <time>2020-07-04T16:15:31.171Z</time>
      </trkpt>
      <trkpt lat="45.86624" lon="4.61956">
        <ele>314.4</ele>
        <time>2020-07-04T16:15:41.143Z</time>
      </trkpt>
      <trkpt lat="45.86624" lon="4.61956">
        <ele>314.4</ele>
        <time>2020-07-04T16:15:51.115Z</time>
      </trkpt>
      <trkpt lat="45.86624" lon="4.61955">
        <ele>314.4</ele>
        <time>2020-07-04T16:16:01.087Z</time>
      </trkpt>
      <trkpt lat="45.86624" lon="4.61955">
        <ele>314.4</ele>
        <time>2020-07-04T16:16:11.059Z</time>
      </trkpt>
      <trkpt lat="45.86624" lon="4.61955">
        <ele>314.4</ele>
        <time>2020-07-04T16:16:21.031Z</time>
      </trkpt>
      <trkpt lat="45.86623" lon="4.61953">
        <ele>314.4</ele>
        <time>2020-07-04T16:16:31.004Z</time>
      </trkpt>
      <trkpt lat="45.86618" lon="4.61951">
        <ele>314.3</ele>
        <time>2020-07-04T16:16:40.980Z</time>
      </trkpt>
      <trkpt lat="45.866" lon="4.61945">
        <ele>314</ele>
        <time>2020-07-04T16:16:50.968Z</time>
      </trkpt>
      <trkpt lat="45.86578" lon="4.6194">
        <ele>313.5</ele>
        <time>2020-07-04T16:17:00.969Z</time>
      </trkpt>
      <trkpt lat="45.86572" lon="4.61939">
        <ele>313.4</ele>
        <time>2020-07-04T16:17:10.974Z</time>
      </trkpt>
      <trkpt lat="45.8656" lon="4.61936">
        <ele>313.1</ele>
        <time>2020-07-04T16:17:20.986Z</time>
      </trkpt>
      <trkpt lat="45.86537" lon="4.61929">
        <ele>314.3</ele>
        <time>2020-07-04T16:17:31.012Z</time>
      </trkpt>
      <trkpt lat="45.86526" lon="4.61926">
        <ele>315.2</ele>
        <time>2020-07-04T16:17:41.045Z</time>
      </trkpt>
      <trkpt lat="45.86513" lon="4.61922">
        <ele>316.3</ele>
        <time>2020-07-04T16:17:51.086Z</time>
      </trkpt>
      <trkpt lat="45.86498" lon="4.61925">
        <ele>317.5</ele>
        <time>2020-07-04T16:18:01.136Z</time>
      </trkpt>
      <trkpt lat="45.86486" lon="4.61942">
        <ele>318.1</ele>
        <time>2020-07-04T16:18:11.196Z</time>
      </trkpt>
      <trkpt lat="45.86483" lon="4.61945">
        <ele>318.3</ele>
        <time>2020-07-04T16:18:21.258Z</time>
      </trkpt>
      <trkpt lat="45.86474" lon="4.61958">
        <ele>318.6</ele>
        <time>2020-07-04T16:18:31.328Z</time>
      </trkpt>
      <trkpt lat="45.86472" lon="4.6196">
        <ele>318.5</ele>
        <time>2020-07-04T16:18:41.399Z</time>
      </trkpt>
      <trkpt lat="45.86464" lon="4.61975">
        <ele>318.2</ele>
        <time>2020-07-04T16:18:51.479Z</time>
      </trkpt>
      <trkpt lat="45.86462" lon="4.61978">
        <ele>318.2</ele>
        <time>2020-07-04T16:19:01.560Z</time>
      </trkpt>
      <trkpt lat="45.86453" lon="4.62001">
        <ele>317.4</ele>
        <time>2020-07-04T16:19:11.652Z</time>
      </trkpt>
      <trkpt lat="45.86441" lon="4.62018">
        <ele>317.5</ele>
        <time>2020-07-04T16:19:21.754Z</time>
      </trkpt>
      <trkpt lat="45.86427" lon="4.62036">
        <ele>317.9</ele>
        <time>2020-07-04T16:19:31.867Z</time>
      </trkpt>
      <trkpt lat="45.8642" lon="4.62044">
        <ele>318.3</ele>
        <time>2020-07-04T16:19:41.986Z</time>
      </trkpt>
      <trkpt lat="45.86418" lon="4.62046">
        <ele>318.4</ele>
        <time>2020-07-04T16:19:52.107Z</time>
      </trkpt>
      <trkpt lat="45.86411" lon="4.62051">
        <ele>318.9</ele>
        <time>2020-07-04T16:20:02.232Z</time>
      </trkpt>
      <trkpt lat="45.86396" lon="4.62061">
        <ele>319.1</ele>
        <time>2020-07-04T16:20:12.367Z</time>
      </trkpt>
      <trkpt lat="45.86393" lon="4.62062">
        <ele>319.2</ele>
        <time>2020-07-04T16:20:22.504Z</time>
      </trkpt>
      <trkpt lat="45.86374" lon="4.62075">
        <ele>318.4</ele>
        <time>2020-07-04T16:20:32.654Z</time>
      </trkpt>
      <trkpt lat="45.86351" lon="4.62091">
        <ele>317.5</ele>
        <time>2020-07-04T16:20:42.820Z</time>
      </trkpt>
      <trkpt lat="45.86331" lon="4.62104">
        <ele>317.7</ele>
        <time>2020-07-04T16:20:52.999Z</time>
      </trkpt>
      <trkpt lat="45.86323" lon="4.62107">
        <ele>317.9</ele>
        <time>2020-07-04T16:21:03.183Z</time>
      </trkpt>
      <trkpt lat="45.86304" lon="4.62111">
        <ele>318.4</ele>
        <time>2020-07-04T16:21:13.378Z</time>
      </trkpt>
      <trkpt lat="45.86281" lon="4.62117">
        <ele>319.2</ele>
        <time>2020-07-04T16:21:23.587Z</time>
      </trkpt>
      <trkpt lat="45.86257" lon="4.62123">
        <ele>319.8</ele>
        <time>2020-07-04T16:21:33.811Z</time>
      </trkpt>
      <trkpt lat="45.86242" lon="4.62131">
        <ele>319.6</ele>
        <time>2020-07-04T16:21:44.044Z</time>
      </trkpt>
      <trkpt lat="45.8623" lon="4.62138">
        <ele>319.5</ele>
        <time>2020-07-04T16:21:54.285Z</time>
      </trkpt>
      <trkpt lat="45.86227" lon="4.62138">
        <ele>319.7</ele>
        <time>2020-07-04T16:22:04.528Z</time>
      </trkpt>
      <trkpt lat="45.8622" lon="4.62133">
        <ele>320.3</ele>
        <time>2020-07-04T16:22:14.776Z</time>
      </trkpt>
      <trkpt lat="45.86212" lon="4.62125">
        <ele>320.7</ele>
        <time>2020-07-04T16:22:25.030Z</time>
      </trkpt>
      <trkpt lat="45.86208" lon="4.62121">
        <ele>320.9</ele>
        <time>2020-07-04T16:22:35.287Z</time>
      </trkpt>
      <trkpt lat="45.86205" lon="4.6212">
        <ele>320.8</ele>
        <time>2020-07-04T16:22:45.546Z</time>
      </trkpt>
      <trkpt lat="45.86198" lon="4.62126">
        <ele>319.7</ele>
        <time>2020-07-04T16:22:55.810Z</time>
      </trkpt>
      <trkpt lat="45.86194" lon="4.62129">
        <ele>319.2</ele>
        <time>2020-07-04T16:23:06.076Z</time>
      </trkpt>
      <trkpt lat="45.86193" lon="4.62129">
        <ele>319.1</ele>
        <time>2020-07-04T16:23:16.343Z</time>
      </trkpt>
      <trkpt lat="45.86189" lon="4.6213">
        <ele>318.8</ele>
        <time>2020-07-04T16:23:26.613Z</time>
      </trkpt>
      <trkpt lat="45.86186" lon="4.62132">
        <ele>318.4</ele>
        <time>2020-07-04T16:23:36.884Z</time>
      </trkpt>
      <trkpt lat="45.86181" lon="4.62136">
        <ele>317.6</ele>
        <time>2020-07-04T16:23:47.159Z</time>
      </trkpt>
      <trkpt lat="45.86177" lon="4.62141">
        <ele>316.8</ele>
        <time>2020-07-04T16:23:57.437Z</time>
      </trkpt>
      <trkpt lat="45.86168" lon="4.62157">
        <ele>315.9</ele>
        <time>2020-07-04T16:24:07.724Z</time>
      </trkpt>
      <trkpt lat="45.86162" lon="4.62171">
        <ele>316.6</ele>
        <time>2020-07-04T16:24:18.018Z</time>
      </trkpt>
      <trkpt lat="45.86156" lon="4.62186">
        <ele>317.4</ele>
        <time>2020-07-04T16:24:28.319Z</time>
      </trkpt>
      <trkpt lat="45.86151" lon="4.62195">
        <ele>318</ele>
        <time>2020-07-04T16:24:38.625Z</time>
      </trkpt>
      <trkpt lat="45.8615" lon="4.62196">
        <ele>318.1</ele>
        <time>2020-07-04T16:24:48.931Z</time>
      </trkpt>
      <trkpt lat="45.86146" lon="4.62206">
        <ele>318.2</ele>
        <time>2020-07-04T16:24:59.242Z</time>
      </trkpt>
      <trkpt lat="45.86139" lon="4.62222">
        <ele>318.3</ele>
        <time>2020-07-04T16:25:09.561Z</time>
      </trkpt>
      <trkpt lat="45.86131" lon="4.62237">
        <ele>317.2</ele>
        <time>2020-07-04T16:25:19.888Z</time>
      </trkpt>
      <trkpt lat="45.86125" lon="4.62243">
        <ele>316.7</ele>
        <time>2020-07-04T16:25:30.220Z</time>
      </trkpt>
      <trkpt lat="45.86124" lon="4.62245">
        <ele>316.5</ele>
        <time>2020-07-04T16:25:40.553Z</time>
      </trkpt>
      <trkpt lat="45.86119" lon="4.62247">
        <ele>316.2</ele>
        <time>2020-07-04T16:25:50.889Z</time>
      </trkpt>
      <trkpt lat="45.86118" lon="4.62245">
        <ele>316.2</ele>
        <time>2020-07-04T16:26:01.226Z</time>
      </trkpt>
      <trkpt lat="45.86109" lon="4.62236">
        <ele>316</ele>
        <time>2020-07-04T16:26:11.570Z</time>
      </trkpt>
      <trkpt lat="45.86096" lon="4.62226">
        <ele>315.5</ele>
        <time>2020-07-04T16:26:21.922Z</time>
      </trkpt>
      <trkpt lat="45.86091" lon="4.62223">
        <ele>315.3</ele>
        <time>2020-07-04T16:26:32.278Z</time>
      </trkpt>
      <trkpt lat="45.86083" lon="4.6222">
        <ele>315</ele>
        <time>2020-07-04T16:26:42.639Z</time>
      </trkpt>
      <trkpt lat="45.86067" lon="4.62209">
        <ele>314.4</ele>
        <time>2020-07-04T16:26:53.010Z</time>
      </trkpt>
      <trkpt lat="45.86064" lon="4.62207">
        <ele>314.3</ele>
        <time>2020-07-04T16:27:03.383Z</time>
      </trkpt>
      <trkpt lat="45.86044" lon="4.62193">
        <ele>312.9</ele>
        <time>2020-07-04T16:27:13.770Z</time>
      </trkpt>
      <trkpt lat="45.86036" lon="4.62186">
        <ele>312.2</ele>
        <time>2020-07-04T16:27:24.163Z</time>
      </trkpt>
      <trkpt lat="45.86024" lon="4.62176">
        <ele>311.1</ele>
        <time>2020-07-04T16:27:34.564Z</time>
      </trkpt>
      <trkpt lat="45.86015" lon="4.62154">
        <ele>309.7</ele>
        <time>2020-07-04T16:27:44.975Z</time>
      </trkpt>
      <trkpt lat="45.8601" lon="4.62126">
        <ele>308.1</ele>
        <time>2020-07-04T16:27:55.398Z</time>
      </trkpt>
      <trkpt lat="45.86004" lon="4.62098">
        <ele>308</ele>
        <time>2020-07-04T16:28:05.834Z</time>
      </trkpt>
      <trkpt lat="45.85998" lon="4.62081">
        <ele>308.1</ele>
        <time>2020-07-04T16:28:16.278Z</time>
      </trkpt>
      <trkpt lat="45.85997" lon="4.62078">
        <ele>308.1</ele>
        <time>2020-07-04T16:28:26.723Z</time>
      </trkpt>
      <trkpt lat="45.85986" lon="4.62051">
        <ele>308.3</ele>
        <time>2020-07-04T16:28:37.181Z</time>
      </trkpt>
      <trkpt lat="45.85972" lon="4.62013">
        <ele>308.8</ele>
        <time>2020-07-04T16:28:47.658Z</time>
      </trkpt>
      <trkpt lat="45.85966" lon="4.61994">
        <ele>309.1</ele>
        <time>2020-07-04T16:28:58.143Z</time>
      </trkpt>
      <trkpt lat="45.85969" lon="4.61966">
        <ele>310.3</ele>
        <time>2020-07-04T16:29:08.640Z</time>
      </trkpt>
      <trkpt lat="45.85972" lon="4.61935">
        <ele>310.8</ele>
        <time>2020-07-04T16:29:19.150Z</time>
      </trkpt>
      <trkpt lat="45.85978" lon="4.61898">
        <ele>310.6</ele>
        <time>2020-07-04T16:29:29.676Z</time>
      </trkpt>
      <trkpt lat="45.8598" lon="4.61889">
        <ele>310.6</ele>
        <time>2020-07-04T16:29:40.206Z</time>
      </trkpt>
      <trkpt lat="45.85986" lon="4.61874">
        <ele>311</ele>
        <time>2020-07-04T16:29:50.744Z</time>
      </trkpt>
      <trkpt lat="45.85994" lon="4.61857">
        <ele>312.1</ele>
        <time>2020-07-04T16:30:01.290Z</time>
      </trkpt>
      <trkpt lat="45.85996" lon="4.61854">
        <ele>312.3</ele>
        <time>2020-07-04T16:30:11.838Z</time>
      </trkpt>
      <trkpt lat="45.86007" lon="4.61837">
        <ele>313.6</ele>
        <time>2020-07-04T16:30:22.395Z</time>
      </trkpt>
      <trkpt lat="45.86013" lon="4.61825">
        <ele>314.4</ele>
        <time>2020-07-04T16:30:32.959Z</time>
      </trkpt>
      <trkpt lat="45.86015" lon="4.61819">
        <ele>314.4</ele>
        <time>2020-07-04T16:30:43.526Z</time>
      </trkpt>
      <trkpt lat="45.86012" lon="4.61808">
        <ele>314.2</ele>
        <time>2020-07-04T16:30:54.098Z</time>
      </trkpt>
      <trkpt lat="45.86006" lon="4.61799">
        <ele>313.8</ele>
        <time>2020-07-04T16:31:04.675Z</time>
      </trkpt>
      <trkpt lat="45.85999" lon="4.61791">
        <ele>313.3</ele>
        <time>2020-07-04T16:31:15.257Z</time>
      </trkpt>
      <trkpt lat="45.85983" lon="4.61775">
        <ele>312.7</ele>
        <time>2020-07-04T16:31:25.851Z</time>
      </trkpt>
      <trkpt lat="45.8597" lon="4.61764">
        <ele>312.4</ele>
        <time>2020-07-04T16:31:36.454Z</time>
      </trkpt>
      <trkpt lat="45.85957" lon="4.61754">
        <ele>312.4</ele>
        <time>2020-07-04T16:31:47.066Z</time>
      </trkpt>
      <trkpt lat="45.85945" lon="4.61738">
        <ele>312.5</ele>
        <time>2020-07-04T16:31:57.688Z</time>
      </trkpt>
      <trkpt lat="45.85936" lon="4.6172">
        <ele>312.7</ele>
        <time>2020-07-04T16:32:08.319Z</time>
      </trkpt>
      <trkpt lat="45.85927" lon="4.61697">
        <ele>313</ele>
        <time>2020-07-04T16:32:18.961Z</time>
      </trkpt>
      <trkpt lat="45.85921" lon="4.61679">
        <ele>313.3</ele>
        <time>2020-07-04T16:32:29.612Z</time>
      </trkpt>
      <trkpt lat="45.85919" lon="4.61673">
        <ele>313.4</ele>
        <time>2020-07-04T16:32:40.266Z</time>
      </trkpt>
      <trkpt lat="45.85912" lon="4.61646">
        <ele>313.9</ele>
        <time>2020-07-04T16:32:50.931Z</time>
      </trkpt>
      <trkpt lat="45.85909" lon="4.61634">
        <ele>314</ele>
        <time>2020-07-04T16:33:01.602Z</time>
      </trkpt>
      <trkpt lat="45.85907" lon="4.61622">
        <ele>314</ele>
        <time>2020-07-04T16:33:12.278Z</time>
      </trkpt>
      <trkpt lat="45.85904" lon="4.61608">
        <ele>314</ele>
        <time>2020-07-04T16:33:22.961Z</time>
      </trkpt>
      <trkpt lat="45.85898" lon="4.61588">
        <ele>314</ele>
        <time>2020-07-04T16:33:33.653Z</time>
      </trkpt>
      <trkpt lat="45.85904" lon="4.61575">
        <ele>314</ele>
        <time>2020-07-04T16:33:44.351Z</time>
      </trkpt>
      <trkpt lat="45.85919" lon="4.61564">
        <ele>314</ele>
        <time>2020-07-04T16:33:55.059Z</time>
      </trkpt>
      <trkpt lat="45.85922" lon="4.61561">
        <ele>314</ele>
        <time>2020-07-04T16:34:05.769Z</time>
      </trkpt>
      <trkpt lat="45.85936" lon="4.61552">
        <ele>314</ele>
        <time>2020-07-04T16:34:16.488Z</time>
      </trkpt>
      <trkpt lat="45.85955" lon="4.61542">
        <ele>314</ele>
        <time>2020-07-04T16:34:27.220Z</time>
      </trkpt>
      <trkpt lat="45.85957" lon="4.6154">
        <ele>314</ele>
        <time>2020-07-04T16:34:37.953Z</time>
      </trkpt>
      <trkpt lat="45.85962" lon="4.61532">
        <ele>314</ele>
        <time>2020-07-04T16:34:48.690Z</time>
      </trkpt>
      <trkpt lat="45.8597" lon="4.61518">
        <ele>313.8</ele>
        <time>2020-07-04T16:34:59.435Z</time>
      </trkpt>
      <trkpt lat="45.85973" lon="4.61512">
        <ele>313.7</ele>
        <time>2020-07-04T16:35:10.184Z</time>
      </trkpt>
      <trkpt lat="45.85983" lon="4.61491">
        <ele>314</ele>
        <time>2020-07-04T16:35:20.943Z</time>
      </trkpt>
      <trkpt lat="45.85989" lon="4.61459">
        <ele>313.9</ele>
        <time>2020-07-04T16:35:31.716Z</time>
      </trkpt>
      <trkpt lat="45.85991" lon="4.61425">
        <ele>313.6</ele>
        <time>2020-07-04T16:35:42.503Z</time>
      </trkpt>
      <trkpt lat="45.85991" lon="4.614">
        <ele>313.3</ele>
        <time>2020-07-04T16:35:53.301Z</time>
      </trkpt>
      <trkpt lat="45.85992" lon="4.61375">
        <ele>312.8</ele>
        <time>2020-07-04T16:36:04.110Z</time>
      </trkpt>
      <trkpt lat="45.85994" lon="4.61348">
        <ele>313.5</ele>
        <time>2020-07-04T16:36:14.930Z</time>
      </trkpt>
      <trkpt lat="45.85995" lon="4.61342">
        <ele>313.8</ele>
        <time>2020-07-04T16:36:25.753Z</time>
      </trkpt>
      <trkpt lat="45.85998" lon="4.61324">
        <ele>314.5</ele>
        <time>2020-07-04T16:36:36.583Z</time>
      </trkpt>
      <trkpt lat="45.85999" lon="4.61318">
        <ele>314.8</ele>
        <time>2020-07-04T16:36:47.416Z</time>
      </trkpt>
      <trkpt lat="45.85999" lon="4.61312">
        <ele>315</ele>
        <time>2020-07-04T16:36:58.251Z</time>
      </trkpt>
      <trkpt lat="45.86" lon="4.61301">
        <ele>315</ele>
        <time>2020-07-04T16:37:09.091Z</time>
      </trkpt>
      <trkpt lat="45.85998" lon="4.61288">
        <ele>315</ele>
        <time>2020-07-04T16:37:19.937Z</time>
      </trkpt>
      <trkpt lat="45.85997" lon="4.6128">
        <ele>315.2</ele>
        <time>2020-07-04T16:37:30.786Z</time>
      </trkpt>
      <trkpt lat="45.85989" lon="4.61263">
        <ele>315.8</ele>
        <time>2020-07-04T16:37:41.644Z</time>
      </trkpt>
      <trkpt lat="45.85982" lon="4.61251">
        <ele>316.2</ele>
        <time>2020-07-04T16:37:52.508Z</time>
      </trkpt>
      <trkpt lat="45.85969" lon="4.61239">
        <ele>316.8</ele>
        <time>2020-07-04T16:38:03.382Z</time>
      </trkpt>
      <trkpt lat="45.85954" lon="4.61239">
        <ele>317.1</ele>
        <time>2020-07-04T16:38:14.265Z</time>
      </trkpt>
      <trkpt lat="45.85929" lon="4.61241">
        <ele>317.6</ele>
        <time>2020-07-04T16:38:25.163Z</time>
      </trkpt>
      <trkpt lat="45.85905" lon="4.61242">
        <ele>318.2</ele>
        <time>2020-07-04T16:38:36.075Z</time>
      </trkpt>
      <trkpt lat="45.85877" lon="4.61242">
        <ele>317.8</ele>
        <time>2020-07-04T16:38:47.004Z</time>
      </trkpt>
      <trkpt lat="45.85844" lon="4.61236">
        <ele>316.1</ele>
        <time>2020-07-04T16:38:57.953Z</time>
      </trkpt>
      <trkpt lat="45.85821" lon="4.61236">
        <ele>314.7</ele>
        <time>2020-07-04T16:39:08.916Z</time>
      </trkpt>
      <trkpt lat="45.85812" lon="4.61236">
        <ele>314.1</ele>
        <time>2020-07-04T16:39:19.885Z</time>
      </trkpt>
      <trkpt lat="45.85802" lon="4.61235">
        <ele>313.7</ele>
        <time>2020-07-04T16:39:30.859Z</time>
      </trkpt>
      <trkpt lat="45.85798" lon="4.61233">
        <ele>313.7</ele>
        <time>2020-07-04T16:39:41.836Z</time>
      </trkpt>
      <trkpt lat="45.85774" lon="4.61227">
        <ele>313.3</ele>
        <time>2020-07-04T16:39:52.828Z</time>
      </trkpt>
      <trkpt lat="45.85755" lon="4.61221">
        <ele>313.1</ele>
        <time>2020-07-04T16:40:03.832Z</time>
      </trkpt>
      <trkpt lat="45.8574" lon="4.61213">
        <ele>313</ele>
        <time>2020-07-04T16:40:14.845Z</time>
      </trkpt>
      <trkpt lat="45.85728" lon="4.61209">
        <ele>312.8</ele>
        <time>2020-07-04T16:40:25.865Z</time>
      </trkpt>
      <trkpt lat="45.85715" lon="4.61206">
        <ele>312.8</ele>
        <time>2020-07-04T16:40:36.894Z</time>
      </trkpt>
      <trkpt lat="45.85711" lon="4.61211">
        <ele>312.5</ele>
        <time>2020-07-04T16:40:47.926Z</time>
      </trkpt>
      <trkpt lat="45.8571" lon="4.61219">
        <ele>312</ele>
        <time>2020-07-04T16:40:58.961Z</time>
      </trkpt>
      <trkpt lat="45.85709" lon="4.6123">
        <ele>311.3</ele>
        <time>2020-07-04T16:41:10.001Z</time>
      </trkpt>
      <trkpt lat="45.85708" lon="4.61261">
        <ele>309.5</ele>
        <time>2020-07-04T16:41:21.054Z</time>
      </trkpt>
      <trkpt lat="45.85708" lon="4.61273">
        <ele>308.8</ele>
        <time>2020-07-04T16:41:32.112Z</time>
      </trkpt>
      <trkpt lat="45.85709" lon="4.61286">
        <ele>308.1</ele>
        <time>2020-07-04T16:41:43.176Z</time>
      </trkpt>
      <trkpt lat="45.85709" lon="4.61292">
        <ele>307.5</ele>
        <time>2020-07-04T16:41:54.242Z</time>
      </trkpt>
      <trkpt lat="45.85712" lon="4.61321">
        <ele>304.7</ele>
        <time>2020-07-04T16:42:05.320Z</time>
      </trkpt>
      <trkpt lat="45.85714" lon="4.61335">
        <ele>303.3</ele>
        <time>2020-07-04T16:42:16.405Z</time>
      </trkpt>
      <trkpt lat="45.85716" lon="4.61349">
        <ele>302</ele>
        <time>2020-07-04T16:42:27.495Z</time>
      </trkpt>
      <trkpt lat="45.85716" lon="4.61359">
        <ele>301</ele>
        <time>2020-07-04T16:42:38.590Z</time>
      </trkpt>
      <trkpt lat="45.85715" lon="4.61364">
        <ele>300.5</ele>
        <time>2020-07-04T16:42:49.687Z</time>
      </trkpt>
      <trkpt lat="45.85713" lon="4.61367">
        <ele>300.2</ele>
        <time>2020-07-04T16:43:00.786Z</time>
      </trkpt>
      <trkpt lat="45.85705" lon="4.6137">
        <ele>300</ele>
        <time>2020-07-04T16:43:11.890Z</time>
      </trkpt>
      <trkpt lat="45.857" lon="4.6137">
        <ele>300</ele>
        <time>2020-07-04T16:43:22.997Z</time>
      </trkpt>
      <trkpt lat="45.85696" lon="4.6137">
        <ele>300</ele>
        <time>2020-07-04T16:43:34.106Z</time>
      </trkpt>
      <trkpt lat="45.85681" lon="4.61373">
        <ele>299.9</ele>
        <time>2020-07-04T16:43:45.224Z</time>
      </trkpt>
      <trkpt lat="45.85659" lon="4.61384">
        <ele>299.6</ele>
        <time>2020-07-04T16:43:56.357Z</time>
      </trkpt>
      <trkpt lat="45.8564" lon="4.61396">
        <ele>298.7</ele>
        <time>2020-07-04T16:44:07.502Z</time>
      </trkpt>
      <trkpt lat="45.85619" lon="4.61408">
        <ele>298.6</ele>
        <time>2020-07-04T16:44:18.660Z</time>
      </trkpt>
      <trkpt lat="45.856" lon="4.61417">
        <ele>298.7</ele>
        <time>2020-07-04T16:44:29.831Z</time>
      </trkpt>
      <trkpt lat="45.85582" lon="4.61427">
        <ele>299.3</ele>
        <time>2020-07-04T16:44:41.013Z</time>
      </trkpt>
      <trkpt lat="45.85568" lon="4.61441">
        <ele>299.7</ele>
        <time>2020-07-04T16:44:52.205Z</time>
      </trkpt>
      <trkpt lat="45.85561" lon="4.61458">
        <ele>299.5</ele>
        <time>2020-07-04T16:45:03.405Z</time>
      </trkpt>
      <trkpt lat="45.85549" lon="4.61473">
        <ele>299.7</ele>
        <time>2020-07-04T16:45:14.616Z</time>
      </trkpt>
      <trkpt lat="45.85545" lon="4.61476">
        <ele>299.7</ele>
        <time>2020-07-04T16:45:25.829Z</time>
      </trkpt>
      <trkpt lat="45.85539" lon="4.61479">
        <ele>299.7</ele>
        <time>2020-07-04T16:45:37.046Z</time>
      </trkpt>
      <trkpt lat="45.8552" lon="4.61485">
        <ele>299.6</ele>
        <time>2020-07-04T16:45:48.275Z</time>
      </trkpt>
      <trkpt lat="45.85497" lon="4.6149">
        <ele>299.5</ele>
        <time>2020-07-04T16:45:59.518Z</time>
      </trkpt>
      <trkpt lat="45.85462" lon="4.6149">
        <ele>298.9</ele>
        <time>2020-07-04T16:46:10.782Z</time>
      </trkpt>
      <trkpt lat="45.85456" lon="4.61488">
        <ele>298.6</ele>
        <time>2020-07-04T16:46:22.049Z</time>
      </trkpt>
      <trkpt lat="45.85445" lon="4.61476">
        <ele>298.1</ele>
        <time>2020-07-04T16:46:33.324Z</time>
      </trkpt>
      <trkpt lat="45.8544" lon="4.61458">
        <ele>298</ele>
        <time>2020-07-04T16:46:44.608Z</time>
      </trkpt>
      <trkpt lat="45.85439" lon="4.61431">
        <ele>298.5</ele>
        <time>2020-07-04T16:46:55.903Z</time>
      </trkpt>
      <trkpt lat="45.85438" lon="4.61396">
        <ele>299.3</ele>
        <time>2020-07-04T16:47:07.213Z</time>
      </trkpt>
      <trkpt lat="45.85438" lon="4.61364">
        <ele>300.2</ele>
        <time>2020-07-04T16:47:18.536Z</time>
      </trkpt>
      <trkpt lat="45.85439" lon="4.61339">
        <ele>301.8</ele>
        <time>2020-07-04T16:47:29.870Z</time>
      </trkpt>
      <trkpt lat="45.8544" lon="4.61317">
        <ele>302.7</ele>
        <time>2020-07-04T16:47:41.213Z</time>
      </trkpt>
      <trkpt lat="45.8544" lon="4.61307">
        <ele>303</ele>
        <time>2020-07-04T16:47:52.560Z</time>
      </trkpt>
      <trkpt lat="45.8544" lon="4.61299">
        <ele>303.3</ele>
        <time>2020-07-04T16:48:03.911Z</time>
      </trkpt>
      <trkpt lat="45.85436" lon="4.61291">
        <ele>303.5</ele>
        <time>2020-07-04T16:48:15.266Z</time>
      </trkpt>
      <trkpt lat="45.85425" lon="4.61278">
        <ele>303.8</ele>
        <time>2020-07-04T16:48:26.630Z</time>
      </trkpt>
      <trkpt lat="45.85422" lon="4.61277">
        <ele>303.8</ele>
        <time>2020-07-04T16:48:37.995Z</time>
      </trkpt>
      <trkpt lat="45.85402" lon="4.61262">
        <ele>304.1</ele>
        <time>2020-07-04T16:48:49.374Z</time>
      </trkpt>
      <trkpt lat="45.8539" lon="4.61254">
        <ele>304.3</ele>
        <time>2020-07-04T16:49:00.761Z</time>
      </trkpt>
      <trkpt lat="45.85377" lon="4.61259">
        <ele>303.6</ele>
        <time>2020-07-04T16:49:12.156Z</time>
      </trkpt>
      <trkpt lat="45.85368" lon="4.61263">
        <ele>303.1</ele>
        <time>2020-07-04T16:49:23.557Z</time>
      </trkpt>
      <trkpt lat="45.85368" lon="4.61264">
        <ele>303</ele>
        <time>2020-07-04T16:49:34.958Z</time>
      </trkpt>
      <trkpt lat="45.88222" lon="4.65372">
        <ele>310.4</ele>
      </trkpt>
      <trkpt lat="45.8825" lon="4.65399">
        <ele>309.4</ele>
      </trkpt>
      <trkpt lat="45.88256" lon="4.65403">
        <ele>309.6</ele>
      </trkpt>
    </trkseg>
  </trk>
</gpx>